ECMWFNIL_925_spd_000.txt.gz
Wind_Speed
23 22 21 21 20 18 17 15 14 12 10 9 9 8 9 9 9 10 9 9 9 9 8 7 7 7 6 6 6 6 6 6 6 6 7 7 7 7 7 7 8 7
24 22 21 21 20 18 17 16 14 12 11 10 9 8 8 9 9 9 9 8 9 9 8 8 8 7 7 6 7 7 7 7 7 7 8 8 8 8 8 9 9 9
25 24 24 23 21 20 18 16 15 13 11 10 10 9 9 9 9 9 9 9 9 9 9 9 8 8 8 7 7 8 8 8 9 8 8 9 9 9 9 9 9 9
26 26 25 23 21 19 18 17 16 14 13 11 10 10 10 10 9 9 9 10 9 9 9 9 9 8 8 8 8 8 8 9 9 9 9 9 9 9 10 9 10 9
26 25 24 22 21 19 18 18 17 15 14 11 11 12 12 11 10 10 10 10 10 9 9 9 9 9 9 9 9 8 8 9 10 10 10 10 9 10 10 10 10 10
24 24 23 22 21 20 20 18 17 16 14 12 12 14 13 11 10 9 9 9 9 9 9 9 9 10 9 9 9 9 8 9 9 9 10 10 10 10 10 10 10 10
24 24 24 23 23 23 21 19 18 16 14 13 14 13 11 9 9 9 8 8 8 8 9 9 9 10 9 9 9 9 9 9 9 10 10 10 9 9 10 10 10 11
25 26 26 25 23 22 20 18 18 16 14 13 11 11 10 8 8 9 8 8 9 10 10 10 10 10 10 10 10 10 9 9 10 10 11 10 10 10 10 10 10 11
27 26 26 25 24 23 21 18 16 16 15 11 6 4 6 6 8 10 10 10 11 13 14 13 12 13 12 12 11 11 11 11 11 11 12 11 11 10 10 10 11 12
27 26 26 26 24 23 22 19 15 12 12 10 7 2 4 3 6 9 10 11 12 15 17 17 16 15 15 15 14 13 13 12 12 12 13 12 12 11 11 11 12 13
25 24 24 24 23 25 26 23 18 15 13 13 11 4 3 5 8 12 14 15 16 17 20 21 21 19 18 17 16 15 14 13 13 13 13 13 13 12 12 12 13 14
21 19 19 18 21 27 30 28 23 19 17 17 15 11 11 16 21 23 23 24 23 23 24 25 24 22 20 18 17 15 14 14 13 13 14 14 14 13 13 13 14 15
24 25 27 25 23 28 33 32 27 24 23 22 21 23 28 31 31 32 34 33 32 30 28 26 25 23 21 19 17 16 15 14 14 14 14 14 15 14 13 14 16 17
27 29 31 31 29 30 32 31 31 33 32 29 29 35 41 42 41 43 43 41 38 34 30 27 25 23 21 19 18 16 15 15 14 14 14 15 15 14 14 15 17 17
23 24 26 28 29 31 31 32 36 40 40 39 41 44 47 47 47 46 45 43 40 35 30 28 26 22 21 22 20 18 17 16 15 15 15 15 15 15 15 15 16 17
24 26 29 31 32 33 36 42 46 46 45 46 47 46 46 46 45 44 44 42 36 31 29 28 26 22 21 23 22 20 19 18 16 15 15 15 16 16 15 16 17 17
27 30 33 36 38 39 42 46 50 50 49 47 46 45 45 46 46 45 40 31 25 26 27 26 25 24 23 22 20 20 22 20 18 17 16 16 16 16 17 19 18 16
29 33 36 38 41 44 47 50 52 51 49 47 46 46 47 48 47 42 33 23 21 24 25 24 24 24 22 21 21 21 22 23 20 17 16 17 17 17 17 17 16 16
31 34 36 39 43 47 50 52 51 48 46 47 47 47 46 44 39 32 25 22 22 23 21 20 20 21 21 21 22 22 21 21 20 18 17 18 18 15 14 12 11 11
32 34 35 37 42 47 50 51 49 47 45 45 45 44 41 35 27 23 21 22 23 24 21 16 15 19 22 20 19 21 20 18 19 20 19 20 19 17 14 10 7 7
30 31 32 34 37 42 46 47 47 46 44 40 36 33 31 26 21 19 20 22 23 23 20 16 15 18 20 19 20 23 21 18 17 18 19 19 19 17 13 10 7 5
27 28 30 32 34 36 38 38 39 38 34 28 24 21 21 20 18 18 19 21 22 21 18 15 14 15 17 19 22 24 21 17 15 16 19 19 17 14 12 10 8 5
27 30 30 30 30 30 30 29 28 26 23 20 19 18 17 17 17 16 17 19 20 20 18 15 15 17 18 19 20 20 16 13 11 12 14 16 16 15 15 14 11 9
31 34 33 28 25 25 25 22 20 19 18 16 16 17 17 17 17 17 17 18 19 19 19 17 16 18 20 22 21 18 15 13 12 10 10 15 17 16 16 15 13 13
31 35 34 28 23 22 21 18 16 16 15 14 14 16 17 17 17 18 17 17 17 18 19 18 17 17 20 22 22 21 20 16 13 12 14 18 19 16 13 9 7 7
29 31 30 26 24 23 20 17 16 14 14 13 13 15 16 17 17 17 16 16 16 16 17 16 16 17 18 20 21 21 19 16 13 14 16 17 15 12 9 5 4 3

ECMWFNIL_925_spd_003.txt.gz
Wind_Speed
21 19 18 18 17 15 14 14 13 12 10 9 7 7 6 6 5 6 6 6 6 7 7 7 6 7 6 6 6 5 5 5 5 5 5 6 6 6 5 5 5 6
22 20 19 18 17 16 15 14 13 12 10 8 7 6 5 6 6 6 6 7 7 8 8 8 8 8 8 8 7 7 7 6 7 7 7 7 8 8 8 8 8 8
23 22 21 20 19 18 16 15 13 12 10 9 8 6 5 6 6 6 7 7 8 8 9 9 9 9 9 9 8 9 9 9 8 8 8 8 9 9 9 9 9 9
24 23 23 21 20 19 18 16 14 13 11 10 9 7 7 6 6 6 6 7 8 9 9 10 10 10 10 10 10 10 11 10 10 9 9 9 9 9 10 10 10 9
26 25 24 23 21 20 18 17 16 15 13 11 10 9 9 8 7 7 8 9 9 10 10 11 11 11 11 12 12 12 12 11 11 11 11 11 10 10 10 11 11 10
27 26 24 23 22 20 19 18 17 16 14 12 12 12 12 12 11 11 13 13 13 13 13 13 14 14 14 13 14 14 13 12 12 12 11 11 11 11 11 11 11 11
27 26 25 23 22 21 20 19 19 19 17 15 16 16 15 16 17 19 21 19 18 17 17 17 17 17 16 14 14 14 14 13 12 12 11 11 11 11 12 12 11 12
27 27 26 24 23 23 23 22 22 23 23 22 22 21 21 23 25 26 26 24 23 22 21 19 18 18 16 14 14 14 14 14 13 13 12 12 12 12 13 13 12 13
27 27 27 26 26 27 26 25 26 30 31 30 28 26 28 31 30 29 28 26 26 26 24 20 18 18 17 15 14 15 15 14 14 13 13 13 13 13 13 13 14 15
28 28 29 30 30 30 30 30 34 39 39 36 34 33 36 36 33 31 30 29 29 28 25 22 20 18 16 16 16 17 17 16 15 14 14 14 14 14 14 14 14 15
30 31 32 34 33 32 32 34 40 44 41 39 39 39 40 39 35 33 32 31 31 29 27 26 23 20 17 16 17 18 17 16 15 15 15 15 14 15 15 14 14 14
32 32 34 35 33 33 35 36 41 44 43 42 44 44 42 39 35 35 34 33 33 31 29 27 23 19 18 17 17 18 17 15 15 15 16 15 15 15 15 15 14 15
33 34 35 35 34 36 37 37 41 46 46 47 48 46 43 39 36 36 36 35 34 32 31 29 25 20 19 18 18 19 18 16 15 16 16 16 15 15 14 15 15 16
33 34 34 35 36 37 38 41 46 49 49 49 48 47 44 41 39 40 38 36 34 32 31 29 26 22 19 18 19 20 19 17 16 17 17 16 16 15 15 15 16 16
32 31 31 34 37 39 41 47 52 52 50 50 49 48 46 43 42 41 39 36 33 29 27 25 22 20 19 19 20 20 20 18 18 18 17 16 17 16 16 16 17 16
31 30 31 33 37 44 47 49 52 52 51 51 50 49 47 44 42 39 34 33 31 26 24 22 20 19 19 20 21 21 20 18 18 19 18 18 17 17 17 17 17 16
32 31 30 33 41 48 49 48 50 52 52 52 51 49 46 42 40 36 28 24 25 23 22 21 20 19 20 21 23 24 22 19 18 19 19 19 18 17 17 17 16 14
31 29 29 35 44 50 50 49 50 50 50 47 42 41 41 37 36 36 28 20 19 19 20 20 19 20 22 23 24 26 26 22 19 18 18 19 19 18 17 17 16 15
30 30 30 35 42 46 46 46 46 47 43 33 24 25 27 26 28 29 23 18 16 17 18 19 19 21 24 25 25 26 26 24 21 18 18 19 19 18 18 18 17 16
31 32 32 32 34 35 35 34 36 38 34 23 15 15 15 15 17 17 16 16 16 15 17 17 18 20 24 25 24 24 24 26 24 20 19 18 16 16 19 18 17 16
29 30 29 28 27 27 27 26 26 26 24 19 16 14 12 12 13 13 13 14 14 14 15 16 17 20 22 22 22 22 24 26 24 19 19 19 18 19 19 16 14 13
27 27 26 24 23 23 24 25 23 20 19 18 17 15 13 12 12 12 13 13 14 15 16 16 17 20 21 22 21 21 23 25 22 19 18 17 17 17 16 13 13 13
25 24 23 22 22 22 23 23 22 20 19 18 17 16 14 12 12 13 13 14 15 17 18 18 18 21 22 22 21 21 23 24 22 18 16 15 13 13 15 16 17 16
25 24 23 23 22 22 22 21 20 20 20 19 16 16 14 12 12 12 12 13 15 16 18 18 18 19 21 20 20 21 22 23 20 16 16 16 13 14 17 19 16 14
26 23 23 23 21 21 20 19 18 19 19 17 15 14 14 13 13 12 12 13 14 14 16 17 17 17 18 19 20 22 23 21 18 15 14 14 13 14 17 16 13 11
24 22 22 21 20 19 17 16 16 16 16 15 14 14 14 14 14 13 12 13 13 12 13 15 15 15 16 17 19 22 24 21 17 15 15 14 14 13 12 11 11 10

ECMWFNIL_925_spd_006.txt.gz
Wind_Speed
27 27 26 23 22 20 21 22 21 21 21 21 20 19 19 18 18 20 20 17 15 16 15 14 13 13 11 11 13 13 10 10 11 9 9 9 8 6 5 4 5 4
28 27 27 25 23 22 22 23 23 23 22 22 22 20 21 21 21 21 20 18 17 17 17 16 15 16 15 14 14 14 13 11 10 9 9 9 9 7 6 6 6 7
29 28 28 26 24 24 24 24 24 24 23 22 22 22 22 23 24 23 21 21 19 18 18 18 18 18 17 16 16 15 14 13 12 10 10 10 10 9 8 8 9 9
30 28 28 27 26 26 26 25 25 25 24 23 24 24 24 24 25 24 23 22 21 20 21 20 19 19 19 18 17 16 15 14 13 12 11 10 11 12 11 11 11 9
31 29 29 28 28 29 29 28 27 27 27 27 26 26 27 27 27 25 24 23 22 22 22 21 21 20 19 19 18 17 16 15 15 14 13 12 11 12 13 12 12 11
32 31 31 30 30 31 31 31 31 30 30 30 30 29 29 29 29 27 26 26 25 24 23 23 23 21 20 21 20 19 18 17 16 15 15 14 13 12 12 12 13 13
33 32 32 32 31 32 33 33 33 33 32 31 31 31 31 31 30 28 28 27 26 25 25 25 25 24 22 22 22 21 20 18 16 15 15 15 15 14 14 13 13 12
34 33 33 33 33 34 35 35 34 35 34 33 32 33 33 31 30 28 28 28 28 27 27 26 25 25 24 23 22 22 21 19 17 16 15 14 14 13 14 14 14 13
35 34 34 34 34 34 35 35 36 37 36 35 34 34 33 31 29 29 29 29 28 28 27 27 26 26 25 24 23 22 22 20 18 17 16 15 14 13 13 13 14 14
36 35 35 35 34 34 34 34 36 39 38 37 35 34 33 31 29 29 31 31 30 29 29 28 27 26 25 24 23 22 22 20 18 17 16 16 15 15 15 15 14 15
37 36 36 36 35 34 35 35 34 36 38 38 37 34 32 32 31 30 32 33 33 32 31 30 28 27 26 25 23 22 21 20 18 17 16 16 15 15 15 15 14 14
38 37 37 38 37 35 36 36 34 34 35 36 38 37 33 33 33 33 33 35 35 34 33 31 29 28 28 26 24 23 21 20 18 17 17 17 16 16 16 15 15 14
38 39 39 39 39 37 36 37 36 34 33 35 39 39 36 35 36 35 35 36 35 33 33 32 30 28 28 27 25 23 21 20 19 18 18 18 17 17 17 16 16 15
39 39 39 39 39 39 38 38 38 37 35 36 38 38 37 38 40 37 34 34 33 32 31 31 31 29 29 28 26 24 22 21 20 19 19 18 17 17 17 16 15 14
39 38 38 38 38 39 39 40 40 39 38 36 37 38 36 37 41 39 35 32 30 30 30 30 31 30 30 31 30 27 25 23 22 21 20 18 17 17 16 16 15 14
38 38 38 38 39 40 40 40 40 40 39 37 37 39 36 34 37 36 33 32 30 29 30 30 31 31 32 33 32 30 28 26 24 23 22 20 19 17 16 16 16 16
38 37 38 38 39 40 40 39 39 39 39 37 36 37 33 31 31 29 29 32 31 30 31 32 31 32 33 34 32 29 28 26 25 24 23 22 20 19 18 18 17 18
38 37 37 37 37 38 38 38 37 36 35 33 33 33 30 27 28 30 31 32 30 29 31 32 32 32 33 33 30 28 27 25 23 22 22 22 21 20 19 19 18 17
38 36 36 36 36 36 35 33 33 32 31 31 30 29 27 25 26 28 30 30 29 29 29 29 29 30 31 30 29 28 27 25 22 21 21 21 20 20 19 18 17 16
37 35 35 35 34 32 31 30 31 32 31 30 27 25 24 23 22 24 26 27 27 27 27 25 25 27 28 29 28 27 27 26 24 21 19 18 18 19 19 19 19 18
38 36 34 33 31 30 30 31 31 30 28 26 23 21 22 22 21 22 23 24 23 23 23 22 21 24 26 27 27 26 25 27 26 22 18 17 18 17 17 18 18 18
41 39 34 30 29 29 29 28 28 27 25 23 21 19 18 19 20 21 21 22 22 21 20 19 17 20 23 25 25 24 25 27 27 23 19 17 17 16 16 16 16 17
38 36 31 27 28 28 24 23 24 24 23 22 21 19 16 15 16 18 19 21 22 22 20 18 16 17 20 23 24 24 25 26 26 23 20 18 17 16 16 16 16 17
30 30 28 26 26 26 22 20 20 19 18 19 19 17 16 13 13 15 17 20 21 22 21 19 17 17 19 22 24 24 24 24 24 22 20 18 16 15 15 15 16 18
26 27 27 25 23 21 19 18 18 17 16 17 16 16 17 16 15 15 16 18 17 18 19 18 17 18 21 23 24 23 22 22 21 20 18 16 16 15 16 16 17 19
25 26 25 22 20 20 19 19 19 19 18 18 17 16 18 19 18 17 16 15 14 14 17 17 14 16 19 22 22 22 21 20 20 18 16 16 15 15 16 16 16 17

ECMWFNIL_925_spd_009.txt.gz
Wind_Speed
35 34 34 35 35 32 32 33 32 32 31 31 31 32 32 31 31 32 30 27 27 27 26 23 21 22 20 16 18 19 17 15 14 13 13 15 16 13 10 9 9 8
36 36 35 35 36 33 32 34 34 34 33 32 32 33 33 32 32 32 31 29 28 27 25 23 23 23 21 19 19 19 17 15 15 14 13 14 15 14 12 10 9 8
37 37 37 37 37 34 32 34 35 35 34 33 33 33 32 33 33 33 32 31 30 28 25 25 25 24 22 20 20 19 18 17 17 16 15 15 15 14 14 13 10 8
38 38 39 39 37 35 33 35 36 35 34 34 34 33 32 32 33 34 34 32 30 28 27 26 25 24 23 21 20 20 20 19 18 17 17 17 17 16 15 14 12 10
40 39 40 39 37 35 35 36 37 36 35 35 35 34 33 33 32 32 34 34 31 29 29 27 25 24 24 22 21 20 21 22 20 19 18 16 17 18 16 15 14 13
40 40 40 40 38 37 36 37 38 37 36 36 36 35 35 35 33 31 34 35 33 31 30 28 26 25 24 23 22 20 21 22 21 21 20 16 15 16 16 14 13 13
40 41 41 40 39 38 37 37 38 38 37 36 36 36 36 37 36 34 34 35 34 32 30 29 28 26 25 24 24 23 22 22 21 20 21 19 16 16 15 15 14 13
40 41 41 40 40 38 37 38 38 39 39 37 36 37 37 37 37 36 35 35 34 32 31 30 29 28 26 25 26 26 25 24 23 22 22 21 20 18 17 16 16 14
40 40 41 40 39 39 39 39 39 39 40 38 37 38 38 37 37 37 37 36 35 34 33 33 32 30 29 28 28 28 28 26 25 25 24 23 22 21 19 19 18 17
41 41 41 40 39 39 40 41 40 40 40 39 38 38 38 37 37 37 37 37 36 36 36 35 34 33 32 31 29 29 29 29 27 27 25 23 23 22 20 19 18 18
42 42 42 41 40 40 41 41 41 40 40 40 40 39 38 38 38 37 37 38 38 38 38 37 36 35 34 32 31 30 30 30 29 28 27 25 23 22 21 19 18 18
42 43 43 42 42 41 41 41 41 41 41 41 40 40 39 38 38 38 39 39 39 39 39 37 35 35 35 34 32 31 31 30 29 29 28 27 25 24 23 21 20 19
43 44 44 43 42 42 42 42 42 41 41 42 41 40 38 38 38 38 39 39 39 39 38 37 35 34 35 34 34 33 32 31 30 30 29 27 26 25 23 21 20 19
44 45 45 43 43 43 42 42 42 41 41 41 41 40 39 38 38 38 38 38 38 38 37 36 35 34 35 35 35 34 33 32 32 31 30 28 27 26 24 22 22 21
44 44 44 43 43 43 43 42 42 41 39 38 39 40 39 38 37 37 36 36 37 36 35 36 36 36 36 37 37 36 35 34 33 32 31 29 28 27 25 24 23 22
44 43 43 43 43 44 44 42 40 39 38 38 39 40 39 36 34 34 34 35 35 35 35 35 36 37 37 38 38 37 36 35 34 32 31 29 28 27 25 25 24 23
43 43 42 43 43 43 42 40 39 38 37 37 38 39 38 35 33 32 33 34 34 34 34 35 36 36 37 38 39 38 36 35 33 32 30 29 28 27 26 25 24 24
43 43 43 43 43 41 40 39 38 37 37 35 34 35 36 34 32 33 33 33 33 33 34 35 36 37 37 37 36 35 33 31 31 30 30 29 28 27 26 25 24 23
43 43 42 42 41 40 38 38 37 36 37 36 33 32 32 32 32 32 32 32 32 32 33 34 36 36 35 34 33 30 28 27 27 28 29 28 28 28 27 26 24 22
44 43 42 41 40 39 37 36 37 37 37 35 32 29 29 29 29 29 30 31 32 31 32 33 34 33 31 32 32 29 27 28 30 30 29 28 28 28 28 26 25 23
44 44 43 41 39 38 37 36 36 35 34 32 30 28 28 27 27 28 30 31 31 32 32 31 32 31 30 30 31 29 28 31 34 33 29 28 27 27 27 25 24 23
46 44 42 39 38 37 37 36 35 34 32 30 28 28 28 29 28 29 29 30 31 32 32 31 31 31 30 29 30 28 27 31 36 34 28 25 25 25 25 25 24 23
46 43 40 38 38 38 36 36 35 32 30 29 29 29 29 30 28 26 27 29 31 32 33 33 32 31 29 29 29 28 28 32 37 35 27 23 22 22 23 24 24 23
45 42 39 38 38 37 37 35 33 30 30 31 32 32 31 30 29 27 27 29 31 32 33 31 29 28 27 27 28 28 30 33 36 34 29 25 22 21 21 22 22 21
42 41 40 39 38 37 35 34 31 30 31 32 32 32 30 28 28 28 28 28 29 30 29 26 25 25 25 26 26 27 30 33 33 31 29 27 24 22 21 21 21 21
41 41 40 39 37 36 34 33 32 32 32 32 31 31 29 27 27 27 28 28 28 27 26 23 22 22 23 24 26 27 29 32 32 30 29 28 25 23 22 21 21 20

ECMWFNIL_925_spd_012.txt.gz
Wind_Speed
41 41 40 39 38 36 35 35 35 34 34 34 33 33 34 33 31 31 31 30 31 31 30 29 27 27 28 28 27 25 23 22 20 20 19 18 18 17 16 15 13 10
42 42 40 38 37 36 36 36 36 35 36 35 35 35 34 33 32 32 32 32 33 33 31 30 29 28 29 29 28 26 24 22 20 21 21 20 19 17 16 16 13 11
43 42 41 38 37 36 36 37 36 36 37 36 36 36 35 34 33 34 34 34 35 35 33 32 30 29 28 28 28 27 25 23 21 21 20 20 21 19 17 15 13 13
44 43 42 39 37 37 37 37 37 37 37 37 37 37 36 35 35 35 35 36 36 36 35 34 33 31 29 28 28 27 26 24 21 20 18 18 20 20 19 16 14 14
45 43 41 39 37 37 37 37 38 38 38 37 38 37 36 36 36 36 37 37 37 37 36 35 35 33 30 29 28 27 27 26 23 22 20 18 18 19 19 18 16 15
43 43 41 39 38 37 38 38 38 39 39 39 38 38 37 37 37 38 39 39 39 38 37 37 37 34 32 30 29 28 29 27 24 24 23 20 19 19 19 19 18 17
43 43 42 40 39 39 39 38 38 39 40 40 39 39 39 39 39 39 40 41 40 39 38 39 38 36 34 32 31 30 29 28 26 26 25 23 22 21 21 21 21 20
43 43 42 40 39 39 39 39 38 39 40 40 40 40 40 40 41 41 41 42 41 40 40 40 39 38 36 34 34 32 31 30 29 28 27 25 24 22 22 22 22 20
43 42 41 40 40 40 40 40 39 39 40 41 41 41 40 41 42 42 43 42 42 41 41 41 40 39 38 37 36 35 33 31 30 31 29 28 27 25 22 21 21 21
43 42 41 40 40 41 41 41 40 40 41 42 42 41 41 41 41 42 43 43 43 42 42 42 42 40 39 38 36 35 33 31 30 30 30 28 29 28 25 22 22 22
42 42 41 41 41 42 42 42 41 40 41 42 41 41 42 41 40 40 42 43 44 44 43 43 42 41 40 38 37 34 32 32 30 29 28 27 28 29 27 24 24 24
43 42 42 42 43 43 42 42 41 41 42 42 42 42 42 41 41 41 42 44 45 44 44 43 42 42 41 39 37 35 32 32 31 30 29 28 28 29 28 26 26 26
43 44 44 43 44 44 43 42 42 42 42 42 41 41 41 41 42 43 43 43 43 43 43 43 42 42 41 40 38 35 33 33 33 32 31 29 29 29 29 28 27 26
45 45 44 44 43 43 42 42 42 42 41 41 40 40 40 41 42 43 42 41 41 41 41 42 41 41 41 40 38 36 35 35 34 34 33 32 31 31 30 29 28 27
44 43 43 43 42 41 42 42 42 41 40 38 38 39 39 39 40 40 40 39 39 39 39 40 41 41 41 41 39 38 37 37 36 35 35 34 33 32 32 31 30 29
42 42 42 41 41 42 42 42 40 39 38 37 37 38 37 36 36 37 37 38 39 39 38 38 39 40 41 42 41 40 39 38 37 36 35 34 33 32 32 33 32 31
41 41 40 41 42 41 41 40 38 37 36 35 35 35 35 35 35 36 37 38 39 38 37 37 38 39 40 42 42 41 40 39 38 37 35 35 34 33 33 34 33 32
41 40 40 40 40 40 39 37 35 34 33 33 33 34 35 35 35 36 37 37 37 37 38 38 38 38 40 41 42 43 41 39 39 38 36 35 34 34 34 34 33 32
41 39 39 39 39 39 37 34 32 32 32 32 33 34 35 35 35 35 36 37 37 38 39 38 37 38 40 41 43 44 41 40 41 40 35 33 34 34 35 34 33 33
39 38 38 38 37 35 33 32 32 31 31 31 32 34 36 36 35 35 37 38 39 39 39 38 37 39 41 42 43 43 41 42 41 35 29 28 31 33 34 35 34 33
38 38 37 35 34 32 32 32 32 31 31 32 34 35 36 37 37 38 38 38 39 39 38 37 38 39 40 40 41 41 41 41 38 31 25 26 31 33 35 36 35 33
39 38 36 33 32 32 33 33 33 33 34 35 35 35 36 37 38 39 39 38 38 38 38 36 36 37 38 39 39 40 41 39 36 32 27 27 31 34 35 35 34 31
40 38 35 33 33 34 35 35 35 36 37 38 36 35 36 38 39 39 39 39 38 38 38 36 34 35 36 37 38 40 41 39 36 34 29 28 31 34 34 33 31 30
40 39 36 34 35 37 37 37 37 39 40 41 39 38 38 39 40 39 38 38 38 39 39 36 33 33 34 35 37 39 41 40 39 37 33 30 30 30 30 29 29 28
40 40 38 37 38 39 38 39 40 41 41 41 40 39 38 38 38 36 36 37 38 39 37 34 32 31 31 32 35 37 39 40 40 36 32 28 27 26 26 26 26 26
40 40 40 39 39 40 40 41 41 40 39 40 39 39 38 37 37 36 35 36 36 35 34 32 31 29 29 31 32 33 36 39 38 35 30 26 23 23 24 24 24 23

ECMWFNIL_925_spd_015.txt.gz
Wind_Speed
41 40 38 37 36 36 35 35 35 35 35 35 35 35 35 34 32 32 31 31 29 28 27 25 26 26 26 25 25 24 23 23 22 21 21 19 18 18 18 18 18 15
42 40 38 36 35 35 36 36 36 35 36 36 36 36 35 34 32 32 31 31 30 28 27 26 27 28 26 26 25 24 24 24 23 22 21 20 18 17 18 18 18 16
43 41 40 37 36 36 36 36 36 36 36 36 36 35 34 34 33 32 31 31 30 29 28 28 29 29 27 25 26 25 25 25 25 23 22 21 19 18 18 18 18 16
43 42 41 39 37 37 36 35 35 36 36 35 35 35 34 34 33 32 31 31 31 30 30 30 30 30 28 26 26 27 27 26 26 25 23 22 21 20 19 19 18 17
43 43 42 39 38 36 36 36 36 36 36 35 35 35 35 34 33 32 32 32 32 32 31 31 31 31 30 29 29 29 29 29 28 27 25 24 22 22 21 21 20 18
42 43 42 40 38 37 37 37 37 37 37 36 35 35 35 35 34 33 33 33 33 33 33 32 32 33 32 31 31 31 31 31 30 29 27 25 23 22 23 23 22 20
41 42 41 39 38 37 38 38 37 37 37 36 35 35 36 35 35 34 33 34 34 34 34 34 34 34 34 33 33 32 32 32 32 31 29 26 23 23 24 25 25 24
41 41 40 39 38 38 39 39 38 37 37 35 35 35 36 36 35 34 34 34 34 35 35 35 35 36 36 35 35 34 34 33 33 33 31 28 26 25 25 26 27 26
40 40 40 39 39 39 40 40 38 37 36 35 36 36 36 36 36 35 34 35 35 36 36 36 37 37 38 37 37 36 35 34 34 34 33 31 30 29 27 27 27 27
40 40 39 38 39 40 41 40 38 37 36 36 36 35 35 36 35 35 35 35 36 36 37 38 39 39 39 39 39 38 37 35 34 35 34 33 33 32 30 29 29 28
40 39 39 39 40 41 41 40 38 36 36 36 36 35 35 35 34 35 35 36 37 38 39 40 40 41 41 40 40 39 38 37 36 35 35 35 34 33 32 31 31 30
40 40 40 40 40 40 40 39 37 36 36 36 37 36 35 34 35 36 36 38 39 39 40 41 41 42 42 42 41 40 39 38 37 36 36 35 35 34 33 33 32 32
41 42 41 40 40 40 39 38 37 36 36 36 37 36 36 35 35 37 38 39 40 40 41 42 42 42 43 42 41 40 40 39 37 37 36 36 35 34 34 34 34 33
43 42 41 40 39 39 38 37 36 36 36 36 36 36 37 37 37 38 39 40 40 41 41 41 41 43 43 42 41 40 41 39 38 37 37 35 34 34 33 33 33 34
42 40 40 39 37 37 38 37 36 36 36 36 36 37 38 38 38 39 39 39 40 41 41 40 41 43 44 44 42 41 41 40 38 37 36 35 31 28 28 29 31 33
40 39 38 37 37 37 37 37 36 36 36 36 37 37 38 39 39 38 38 39 39 40 40 40 42 44 45 45 44 43 42 40 37 36 35 31 27 26 28 30 33 35
38 38 37 37 37 37 37 36 35 35 36 37 38 39 39 39 39 39 39 39 39 39 40 40 42 44 45 45 45 44 43 40 37 35 33 29 28 31 33 32 33 35
38 37 37 37 37 37 37 35 35 35 36 38 39 40 40 39 39 40 40 40 39 38 39 41 43 45 45 45 45 46 45 40 36 35 33 33 33 34 33 31 30 32
37 36 37 37 38 38 36 35 35 37 39 40 40 40 39 39 40 41 41 41 39 39 40 41 43 44 45 45 45 47 44 38 35 36 36 36 35 33 32 32 32 31
36 37 38 37 37 36 36 36 39 40 41 41 39 38 39 40 41 41 41 41 41 41 41 41 43 44 45 45 45 45 42 37 37 38 36 33 32 32 32 33 33 31
37 38 38 37 36 36 37 39 41 41 41 40 39 39 41 41 41 41 41 41 41 41 40 41 43 44 44 45 44 42 40 37 35 36 36 33 32 32 31 32 33 32
38 38 36 36 36 37 39 40 41 41 42 41 40 39 40 40 40 40 41 40 40 41 41 41 42 43 43 44 43 40 39 36 34 37 41 39 34 32 32 35 35 31
39 38 37 37 37 39 40 40 40 41 42 41 39 38 39 40 40 39 40 41 41 41 41 41 41 41 42 43 41 38 37 37 37 40 41 37 33 34 36 37 36 30
40 40 38 38 39 41 41 40 41 41 41 40 39 40 41 41 39 38 38 41 42 42 42 42 40 40 41 40 39 38 38 39 39 38 36 35 35 36 35 35 34 29
40 41 41 41 42 42 41 41 42 41 40 39 40 40 40 38 37 37 37 39 40 41 42 42 39 38 39 38 36 37 39 41 39 35 34 36 38 36 33 32 30 26
40 42 43 44 44 44 43 43 42 39 38 39 39 39 37 35 35 36 35 35 36 37 39 39 38 37 37 36 35 36 38 40 38 35 35 37 37 34 32 29 26 23

ECMWFNIL_925_spd_018.txt.gz
Wind_Speed
41 39 38 38 37 36 35 35 34 33 32 33 33 34 34 33 32 30 29 29 29 28 28 27 25 23 22 21 21 20 21 22 22 21 20 20 20 19 18 18 17 17
41 40 38 37 37 37 36 36 35 35 34 34 34 34 34 33 31 30 29 29 30 29 28 28 26 25 24 23 21 21 23 23 23 22 21 20 20 20 19 18 18 18
41 40 38 37 38 38 36 35 35 35 35 35 35 34 34 33 32 30 29 30 30 30 29 29 28 26 25 24 22 23 24 25 24 23 22 21 21 20 20 18 18 18
41 40 40 39 38 37 36 35 35 35 35 35 35 35 34 33 32 30 29 30 31 30 30 30 29 27 26 25 24 25 26 25 25 23 22 22 22 21 20 18 18 18
42 41 40 39 37 36 35 36 37 36 36 36 36 35 34 33 32 31 30 30 31 31 31 31 30 29 27 26 26 27 27 26 25 25 24 24 23 22 20 19 19 19
40 41 40 39 38 37 36 37 38 37 37 37 36 35 35 34 33 32 31 31 32 32 32 32 31 30 29 28 28 29 29 27 26 26 26 25 25 23 22 21 20 20
39 40 40 39 38 38 38 38 38 38 38 37 37 36 35 35 34 33 33 32 33 34 34 33 33 32 31 30 30 31 31 29 27 27 27 27 26 25 24 23 22 21
39 39 40 40 39 39 38 38 38 38 38 37 37 37 36 36 36 35 34 34 34 35 35 35 34 34 32 32 32 33 32 31 29 28 29 29 28 27 26 25 24 24
39 39 40 40 40 39 38 38 38 37 37 37 37 37 37 37 37 36 36 35 35 36 36 36 36 35 34 33 34 34 34 33 32 31 31 31 30 29 28 26 25 25
39 39 39 40 40 39 38 38 38 37 37 37 37 37 37 38 38 38 37 36 36 37 37 37 37 36 36 35 35 35 35 35 34 33 32 32 31 30 30 29 28 27
40 39 39 40 39 39 39 39 39 38 37 37 37 37 38 38 38 38 38 38 38 38 38 38 38 38 37 36 36 36 36 35 35 34 34 33 32 31 31 30 29 28
40 40 40 40 39 39 39 39 40 39 38 37 38 38 38 38 39 39 40 40 40 40 39 39 39 39 38 37 37 36 36 35 35 35 34 33 33 32 32 31 31 30
41 41 40 40 40 39 39 40 40 40 39 38 39 39 39 40 40 41 41 42 42 41 41 40 40 39 39 38 37 37 36 36 35 35 34 33 33 33 32 32 32 31
41 41 40 40 40 40 40 41 40 40 39 39 39 40 41 42 42 42 41 42 42 42 42 41 40 39 39 39 38 37 37 37 36 36 34 34 34 33 32 32 32 31
40 40 39 39 39 39 40 40 40 39 38 38 40 41 42 42 42 41 41 41 42 42 42 41 40 40 40 40 40 39 38 37 37 36 35 34 33 33 33 32 32 31
40 39 39 39 39 40 40 40 40 39 38 39 40 42 42 41 40 40 41 41 41 41 41 40 41 41 42 42 42 40 39 38 38 37 35 34 33 32 32 32 31 30
39 39 38 39 40 40 40 40 39 38 39 40 41 42 41 40 39 40 41 42 41 41 41 41 42 43 43 44 43 42 40 39 39 38 35 34 34 33 32 32 32 31
39 38 39 39 40 41 41 41 40 39 40 40 41 41 40 39 40 41 42 41 40 40 41 42 43 44 44 45 44 43 41 40 40 38 35 34 35 34 34 34 33 30
39 39 40 40 41 41 40 40 40 41 41 42 41 40 39 40 41 42 41 41 40 41 42 43 43 43 45 45 44 43 43 41 41 39 36 35 36 36 37 36 32 29
39 39 40 40 40 40 39 40 41 42 43 42 41 40 39 40 41 41 41 41 42 42 42 42 43 43 43 44 43 43 43 42 42 40 36 36 37 37 37 34 30 29
38 39 39 39 40 39 39 40 41 41 42 41 40 40 41 41 42 41 41 42 42 42 40 41 43 42 41 41 42 42 43 42 43 39 35 35 36 35 33 31 28 28
39 38 38 39 39 39 39 40 40 41 42 40 39 39 41 41 41 41 41 42 41 40 39 41 41 38 37 39 40 41 42 42 42 39 34 33 34 32 28 26 25 26
39 39 39 39 39 39 39 41 42 42 42 40 39 39 39 40 40 40 41 41 40 40 41 41 38 34 34 37 39 41 42 42 42 40 36 34 33 29 27 26 27 28
40 39 38 38 38 39 40 41 41 42 41 41 40 39 38 39 39 39 39 39 39 40 42 40 35 32 33 36 38 40 42 42 43 41 37 36 36 33 30 29 29 30
38 38 38 39 40 42 43 42 42 42 40 39 39 38 37 36 36 36 37 38 39 40 41 40 35 32 33 35 37 40 42 43 43 40 36 36 39 38 36 34 34 34
37 39 41 42 44 44 43 42 41 39 37 37 37 36 34 32 34 35 35 36 37 38 39 40 37 34 33 35 37 40 43 44 42 39 36 37 39 40 39 37 36 36

ECMWFNIL_925_spd_021.txt.gz
Wind_Speed
37 37 38 36 34 33 32 34 34 32 32 31 31 33 34 33 32 31 31 30 29 28 26 25 24 24 24 23 21 19 18 17 17 17 16 17 18 17 16 15 14 13
38 37 38 35 34 36 36 36 35 34 35 35 34 34 34 34 32 32 31 30 30 29 27 26 24 25 25 24 23 21 19 19 18 18 18 18 19 18 17 16 16 16
38 36 38 37 36 38 35 32 34 36 36 35 36 35 34 33 32 32 32 31 31 29 28 26 24 24 26 25 25 23 21 20 20 19 19 19 20 19 17 16 15 16
39 37 37 36 34 34 32 31 34 36 35 34 36 35 33 33 32 32 32 32 31 30 29 27 24 24 26 26 26 24 23 22 21 20 21 21 20 19 18 17 16 16
40 39 37 35 32 31 33 35 36 36 35 34 35 36 35 34 33 32 32 32 31 31 30 28 26 25 26 27 27 26 25 23 23 22 22 22 22 20 19 18 17 17
39 41 40 37 35 34 36 38 37 37 36 35 36 37 36 35 34 33 33 32 32 30 30 30 28 27 27 28 28 28 27 25 25 24 24 24 23 22 20 19 18 18
39 40 41 39 37 38 39 39 38 39 39 37 37 38 38 37 36 36 35 34 32 31 31 32 31 29 28 29 29 29 28 27 26 26 26 26 25 23 22 20 20 20
38 38 40 39 36 36 37 38 38 40 41 39 38 39 39 39 38 38 37 35 33 33 33 34 33 31 30 30 30 30 30 29 29 28 28 28 27 25 24 22 21 21
37 35 36 37 36 35 35 35 35 37 40 41 39 37 38 41 40 40 39 37 35 35 35 36 34 33 32 32 32 32 32 31 31 30 30 30 29 27 25 24 23 22
36 35 35 36 36 35 34 34 33 33 37 41 38 34 36 41 42 41 40 39 37 36 36 37 36 35 34 34 33 33 33 33 33 32 32 32 31 29 27 25 25 25
37 36 35 36 36 34 34 34 33 32 32 36 36 34 35 40 42 41 41 40 39 38 37 37 37 37 36 36 35 34 34 34 34 34 34 34 33 31 29 27 27 27
37 37 36 37 36 35 34 34 34 32 31 33 36 35 35 37 41 42 42 41 40 39 38 39 39 38 38 37 36 36 35 36 36 35 35 35 34 33 32 30 29 28
37 38 38 37 36 36 35 34 35 34 32 32 35 35 34 36 39 41 42 42 41 40 39 39 40 39 39 39 38 37 37 37 37 36 36 36 35 35 34 33 31 30
38 37 37 37 36 36 36 35 34 35 33 33 34 35 35 36 38 40 42 41 41 40 40 39 40 41 40 40 40 38 38 38 38 38 37 36 36 36 35 35 33 32
36 34 35 38 37 36 37 37 35 34 34 33 35 37 37 36 37 38 39 39 38 38 38 37 38 42 43 42 42 41 39 39 39 39 38 37 36 36 35 36 35 33
37 36 35 39 39 38 40 40 37 35 36 37 38 38 37 38 38 36 35 36 35 36 36 34 35 41 44 44 43 42 42 40 40 40 39 38 37 36 35 36 36 34
41 39 36 38 40 39 40 41 38 36 37 39 40 38 36 38 41 38 34 32 33 34 35 34 34 38 43 45 44 44 43 42 42 41 40 39 38 36 36 37 36 35
40 38 37 37 39 38 38 39 38 36 36 37 37 36 36 38 39 38 35 33 32 33 35 35 35 38 42 45 45 45 44 43 42 41 40 39 39 38 38 37 36 35
38 37 37 36 37 37 36 37 36 36 36 36 35 36 36 37 37 36 36 35 34 35 36 36 36 39 43 45 45 46 46 43 41 41 41 41 40 40 39 39 37 35
38 38 37 36 37 36 35 36 37 37 37 35 34 35 36 37 37 37 36 36 36 37 37 35 34 38 43 45 45 46 46 44 42 41 42 42 41 41 41 40 39 37
38 37 35 34 35 34 34 36 37 37 36 34 33 35 36 36 37 37 37 37 37 37 36 34 34 36 42 45 45 45 45 44 42 41 41 42 42 42 42 41 41 40
36 34 33 32 32 32 32 34 35 35 34 33 33 33 33 34 36 37 37 37 37 37 36 35 34 36 41 44 45 45 44 44 43 40 41 43 42 43 43 42 42 42
33 32 31 30 30 31 32 33 34 33 33 33 33 32 32 34 36 36 36 35 36 37 37 36 35 37 40 42 43 43 43 44 43 40 41 43 43 43 44 43 43 43
33 32 31 30 31 33 33 33 34 33 33 34 34 32 32 33 33 34 36 37 36 37 38 36 35 36 38 39 42 43 43 45 44 40 40 44 44 43 44 44 43 43
35 34 32 31 33 34 33 32 32 31 30 31 32 31 31 31 31 32 36 36 35 36 38 36 35 36 37 38 41 43 43 45 46 41 37 40 42 41 41 43 43 41
32 32 33 34 34 34 32 30 29 28 27 28 30 30 30 31 32 33 35 35 35 36 36 35 36 38 40 40 41 44 44 45 47 44 38 37 36 35 36 39 40 38

ECMWFNIL_925_spd_024.txt.gz
Wind_Speed
26 25 24 25 24 23 22 21 20 20 20 20 19 19 19 20 19 18 18 18 17 18 18 18 18 17 17 16 15 14 13 13 12 11 12 13 13 13 12 12 11 10
28 26 26 26 25 23 23 22 21 20 21 21 20 19 18 18 18 19 19 19 18 18 18 18 19 18 18 17 16 15 14 14 14 13 13 14 14 13 13 13 12 11
30 28 29 29 26 24 23 22 21 21 21 21 21 21 19 18 18 19 20 20 19 18 18 19 19 19 19 18 17 16 16 16 15 14 13 14 14 14 13 13 13 12
32 30 31 30 26 24 23 22 22 22 21 22 22 22 20 19 19 19 20 20 20 18 18 19 19 19 19 19 18 18 17 16 17 15 15 15 15 14 13 13 13 12
34 33 32 29 26 25 24 24 25 24 23 23 22 22 22 21 20 19 19 20 20 20 19 19 20 20 19 19 20 19 18 17 17 17 16 16 16 15 14 14 14 13
33 34 32 29 27 27 26 26 26 25 24 24 23 22 22 22 22 21 20 20 20 21 20 20 20 20 20 20 21 20 19 18 18 17 18 18 17 16 15 14 15 14
33 33 33 31 29 29 28 27 27 26 26 24 23 23 23 23 23 23 22 22 21 21 21 21 21 21 20 20 21 21 20 19 19 19 19 20 18 17 16 15 15 15
34 33 33 33 31 30 30 29 28 28 28 26 25 25 25 25 24 24 24 23 23 22 22 22 22 22 21 21 22 22 21 20 20 20 21 20 20 19 17 16 16 16
33 33 33 33 33 32 32 31 30 29 28 28 28 27 26 27 26 25 24 24 24 23 23 23 22 22 22 22 22 23 23 21 21 21 22 21 21 20 19 17 17 17
33 32 32 33 33 33 33 33 31 29 29 30 30 29 28 28 27 26 25 25 25 25 24 24 23 23 23 23 23 24 24 23 22 22 22 22 21 21 20 19 19 18
34 34 33 34 34 34 33 33 31 30 30 30 31 31 30 28 27 27 27 26 27 26 26 25 25 24 24 24 24 24 24 24 24 23 23 22 22 22 21 21 20 20
35 35 35 35 35 34 33 32 33 32 31 31 31 31 31 29 28 28 28 28 27 27 27 27 26 26 26 26 25 25 25 25 25 24 24 23 23 23 23 22 22 22
36 36 36 36 35 34 33 32 33 34 33 32 31 31 31 31 30 29 29 29 28 27 27 27 27 27 26 27 27 26 26 26 26 25 24 24 24 24 24 24 23 23
36 35 35 35 35 33 33 33 34 34 34 32 31 30 31 32 31 30 29 28 28 28 28 28 28 28 28 27 28 28 27 26 26 25 24 23 24 24 25 24 24 24
33 32 32 33 33 33 34 34 34 33 33 32 31 31 30 31 31 30 29 28 28 28 29 29 28 29 29 30 29 29 28 27 26 26 25 24 23 24 25 25 25 25
31 31 31 32 33 34 34 34 33 33 32 32 32 31 29 29 29 29 29 29 29 29 29 29 29 29 31 34 34 31 28 27 26 25 26 25 24 24 25 26 26 26
30 31 31 32 33 33 32 32 32 31 31 31 31 30 29 29 29 30 30 28 28 29 29 30 30 30 33 36 38 36 31 27 25 25 25 25 25 24 25 26 26 25
29 30 30 31 32 32 31 31 30 30 29 30 30 31 29 28 28 29 29 28 27 28 29 30 30 32 35 37 39 40 38 30 25 24 25 26 26 26 25 25 25 25
28 29 30 30 30 30 29 29 30 31 31 30 31 30 29 29 29 29 29 29 28 28 29 29 29 32 37 39 39 41 42 37 28 24 25 26 26 26 26 25 25 24
29 29 30 29 29 29 29 29 31 32 32 31 30 29 30 31 30 29 31 31 30 30 30 29 29 31 36 40 41 40 42 42 35 26 24 25 26 26 25 25 26 25
30 31 30 29 29 28 29 30 31 32 32 31 29 29 30 32 30 30 33 34 31 31 32 32 31 32 35 38 41 41 41 43 39 31 25 25 25 25 25 26 27 27
31 31 30 29 29 28 30 31 32 32 31 30 29 27 28 30 30 31 33 33 32 32 33 34 33 33 34 37 40 41 40 42 42 35 30 28 26 25 25 26 27 29
29 29 28 28 27 28 30 31 31 30 29 27 27 26 27 29 29 30 31 31 33 33 34 35 34 34 35 37 39 40 41 43 43 38 33 31 29 27 26 27 30 30
26 26 26 26 27 29 30 29 28 27 26 26 26 26 27 27 27 28 28 29 32 34 34 34 34 33 36 38 40 41 43 45 42 38 36 33 30 29 29 29 32 33
24 25 26 28 29 29 28 26 25 24 24 25 26 26 26 26 25 26 26 28 31 33 34 35 34 34 36 39 40 42 45 45 40 37 37 34 30 30 30 30 31 33
25 27 28 28 28 27 26 25 25 24 24 25 25 25 24 25 26 26 26 28 30 31 32 35 35 35 36 39 40 42 46 46 40 37 37 35 31 30 29 28 29 30

ECMWFNIL_925_spd_027.txt.gz
Wind_Speed
27 26 26 26 25 24 23 23 22 21 21 21 20 20 20 20 20 20 20 20 20 20 19 18 18 17 16 15 15 14 14 14 14 13 13 13 13 13 13 14 13 12
28 27 26 25 25 25 25 24 23 22 21 21 21 20 19 20 20 21 21 21 21 21 20 20 19 19 18 17 16 16 15 15 15 14 14 14 14 13 13 14 14 13
29 28 28 27 26 27 26 25 24 23 22 21 21 21 20 19 20 21 22 22 22 21 21 21 20 20 20 18 17 17 17 17 17 15 15 15 14 14 14 14 15 15
31 30 29 28 27 26 26 25 25 24 24 23 22 22 21 20 20 21 22 23 22 22 22 22 21 21 20 19 19 18 18 18 18 17 16 15 15 15 15 15 15 15
34 32 30 29 27 26 26 26 26 26 25 25 23 22 22 22 21 21 22 23 23 23 22 22 22 22 21 20 20 19 19 19 19 18 17 16 16 16 16 16 16 16
34 33 31 29 28 27 27 28 28 27 26 26 24 22 22 23 23 22 22 23 23 23 23 23 23 22 21 21 21 20 20 19 19 20 19 18 17 17 16 16 17 17
34 34 33 31 29 29 29 28 28 28 27 26 25 24 23 23 24 24 23 23 23 23 23 23 23 23 22 21 21 21 21 20 20 21 21 20 19 18 18 17 17 18
34 33 33 32 31 30 30 29 28 29 29 27 26 26 25 25 24 24 24 24 23 23 23 23 23 23 22 22 22 22 21 21 21 22 22 21 20 20 19 19 18 19
33 33 33 33 33 32 31 31 29 29 29 28 28 26 26 26 25 24 24 25 25 24 24 23 23 24 23 23 23 23 23 22 22 22 23 23 22 22 21 21 20 20
34 34 34 35 35 34 33 33 31 30 30 30 29 28 26 26 26 26 25 26 26 26 25 25 25 25 25 24 25 25 24 24 23 23 24 24 24 23 23 23 22 22
35 35 35 36 36 35 34 34 33 32 31 30 30 30 29 28 27 27 27 27 28 28 27 27 27 27 27 26 25 25 26 25 24 24 24 24 25 25 24 24 24 24
36 36 36 36 36 35 34 35 35 33 32 31 31 31 31 30 29 29 29 29 29 29 29 29 28 28 28 27 26 26 26 26 26 25 25 25 25 25 25 25 26 26
35 36 35 35 35 34 34 33 34 34 32 31 30 30 31 31 30 30 30 30 30 30 30 30 30 29 29 29 28 27 27 27 26 26 26 25 26 26 26 27 27 27
35 34 35 35 34 34 34 33 33 33 32 31 30 29 30 30 30 30 29 29 29 29 29 29 30 30 29 29 29 28 27 27 27 27 26 26 26 26 27 28 28 28
32 32 32 33 33 33 34 34 33 32 32 31 30 29 28 29 29 29 28 28 28 28 29 29 29 30 30 30 30 29 28 27 27 27 28 27 26 27 27 28 29 28
31 30 29 30 32 33 33 33 32 32 31 32 31 29 28 27 28 28 28 27 27 28 28 29 30 31 32 34 33 31 29 28 28 28 28 28 27 27 27 27 28 29
30 30 29 30 32 32 32 30 30 30 30 31 31 30 28 27 27 28 28 28 28 28 29 30 31 32 34 37 37 35 32 29 28 27 28 28 28 27 27 27 28 29
29 30 30 30 31 32 31 29 29 29 29 29 30 30 29 28 28 29 29 29 29 29 30 31 31 32 36 39 40 41 38 32 28 27 27 28 29 29 28 28 28 29
30 30 31 30 30 31 30 28 28 30 30 30 30 30 30 30 30 30 30 31 30 30 30 31 31 32 36 40 41 43 44 39 32 27 27 28 29 30 30 30 29 29
29 30 31 30 29 29 29 29 30 32 32 31 30 30 31 32 31 30 30 31 31 30 30 30 31 32 35 39 42 43 45 45 39 30 27 28 30 31 31 31 32 31
29 29 28 27 27 28 29 31 31 31 32 30 28 29 30 30 30 30 30 31 31 30 30 30 31 32 34 37 42 44 44 46 44 36 30 29 29 31 31 32 33 33
28 27 27 27 27 28 29 30 30 30 29 28 27 26 27 28 28 29 29 30 31 30 31 32 32 33 35 36 40 42 43 46 46 39 32 31 30 31 32 32 33 34
27 27 27 27 28 29 30 30 29 27 27 27 27 26 27 28 29 29 30 31 32 32 32 33 32 33 36 36 38 41 43 46 47 39 32 32 31 30 32 34 35 35
27 27 26 27 28 28 28 27 27 26 26 27 27 27 27 27 28 29 30 31 32 33 34 33 32 32 36 37 38 40 43 47 46 37 31 32 32 31 32 34 35 37
26 27 27 27 27 26 25 25 25 25 25 26 27 27 27 27 27 28 29 30 31 32 34 35 33 32 35 37 38 39 43 47 44 35 32 33 32 31 32 33 35 38
26 26 27 26 25 25 24 24 25 25 25 26 27 26 26 26 27 27 28 28 29 30 32 35 34 33 35 38 39 40 43 47 43 35 34 35 34 32 32 32 36 39

ECMWFNIL_925_spd_030.txt.gz
Wind_Speed
32 31 31 29 28 27 27 26 24 24 25 24 24 25 25 24 23 24 25 26 26 26 24 22 22 22 21 19 18 17 17 17 17 17 17 17 17 16 14 15 15 15
34 32 32 30 30 29 29 28 27 25 26 26 25 24 25 25 24 24 26 26 26 26 25 24 23 23 23 21 20 19 18 18 18 17 18 18 18 17 16 16 16 16
36 34 33 32 32 31 30 30 29 28 27 27 26 24 24 25 25 25 26 27 27 26 25 25 24 24 24 22 21 21 20 20 19 18 19 20 19 19 17 17 17 18
39 37 35 33 32 32 32 31 30 29 28 26 27 26 24 23 24 26 26 26 27 26 25 26 25 24 25 24 22 22 21 21 21 20 20 21 21 20 19 18 18 19
41 39 37 35 33 32 33 32 31 30 30 27 27 27 27 25 24 26 27 27 27 26 26 26 25 25 25 25 24 24 22 21 22 21 21 22 23 22 20 19 19 19
41 40 38 36 34 33 33 33 32 31 31 30 28 27 28 28 26 25 27 28 27 27 26 26 26 26 26 26 26 25 24 22 22 23 23 23 23 23 21 21 21 21
39 39 39 36 35 34 33 33 33 33 32 31 30 29 28 29 29 27 26 27 28 27 27 26 27 27 27 27 28 28 27 24 23 24 25 24 24 24 23 22 22 23
37 38 39 38 36 35 35 33 33 34 33 31 30 31 30 30 31 30 28 28 28 29 29 28 28 29 28 28 29 29 29 27 25 25 26 26 25 25 25 24 23 25
36 36 38 38 36 35 35 34 33 33 34 32 31 30 31 31 30 31 31 30 29 29 30 30 30 30 30 29 30 30 30 29 27 27 28 28 27 27 27 26 25 25
36 35 36 36 36 34 34 34 32 32 32 33 32 30 30 31 31 31 32 32 31 31 31 32 31 31 31 31 30 31 31 30 29 28 29 30 29 29 29 28 27 27
36 35 35 35 35 34 33 34 32 31 31 32 33 31 30 31 32 32 32 34 34 33 33 33 33 32 32 32 31 31 32 32 30 30 30 30 31 30 30 30 29 28
36 36 35 35 36 34 33 34 33 31 31 31 33 33 32 31 33 34 34 35 35 35 34 34 34 34 34 34 33 31 32 32 31 31 31 31 32 32 31 31 31 30
36 37 37 36 36 36 35 34 34 33 32 32 32 33 33 32 33 35 36 36 36 37 36 36 36 35 35 35 34 32 32 32 32 31 31 32 32 33 32 32 32 31
36 38 39 39 38 38 37 35 35 35 34 33 33 33 33 33 33 35 36 36 36 37 38 37 37 37 36 36 36 35 33 33 33 32 32 32 33 33 33 33 33 33
37 37 39 40 39 38 39 38 37 36 35 34 34 34 34 33 32 33 34 36 36 36 37 37 37 38 38 38 38 37 36 34 34 34 33 32 33 33 34 34 34 34
36 36 36 38 39 39 39 39 38 36 36 36 35 35 34 34 33 32 32 34 35 36 36 37 37 37 39 40 41 40 38 36 34 34 34 34 33 33 34 35 35 35
36 36 35 37 38 38 38 39 39 37 36 36 36 35 35 35 35 34 33 32 33 34 35 36 37 38 39 42 43 43 41 38 36 35 35 36 35 35 35 36 36 36
35 35 35 35 37 37 37 38 39 38 37 36 37 36 35 35 35 36 35 33 32 33 34 35 37 38 40 42 44 46 45 42 38 36 36 36 37 37 36 36 36 37
34 34 35 34 35 37 37 36 37 38 38 37 36 36 35 35 36 37 36 36 34 34 35 35 35 37 40 42 44 46 47 44 40 38 37 37 37 38 38 37 37 37
34 34 34 34 34 35 36 36 36 37 37 36 34 34 35 35 36 36 37 38 38 36 36 36 36 36 38 41 44 46 47 47 44 40 38 38 38 38 38 39 39 38
34 33 32 33 32 33 34 35 35 35 34 33 32 33 35 36 36 36 37 38 39 37 36 35 35 35 37 40 43 44 47 49 47 42 39 38 38 39 39 40 40 40
32 32 31 31 31 31 33 33 33 33 32 32 32 31 32 34 35 35 35 36 36 37 36 36 35 35 36 39 42 43 45 48 49 45 41 39 38 38 40 40 40 40
31 31 30 30 30 30 31 32 31 31 31 31 31 29 29 30 32 33 34 34 34 36 37 38 36 34 36 38 40 43 45 48 50 47 43 42 41 39 39 40 40 41
30 30 29 29 30 29 28 29 29 29 29 30 30 29 28 28 28 30 32 32 33 35 37 38 37 35 36 38 39 41 45 48 50 47 43 43 42 39 38 38 39 41
29 30 29 28 29 28 26 27 28 27 27 28 28 28 28 27 26 27 29 30 32 33 35 37 37 35 36 38 38 39 43 47 48 46 43 42 40 37 36 37 38 40
28 28 28 27 27 27 26 26 26 26 25 26 26 27 27 28 28 27 27 28 30 31 33 36 38 36 36 37 38 39 41 45 46 44 43 41 37 35 35 36 37 38

ECMWFNIL_925_spd_033.txt.gz
Wind_Speed
38 37 36 35 35 35 34 34 35 34 32 31 32 32 32 32 30 29 29 30 30 29 27 26 25 26 25 23 22 21 21 21 22 22 21 21 20 18 18 16 16 18
39 38 37 35 35 34 34 35 35 36 34 32 32 31 29 30 30 29 29 29 30 29 29 28 26 25 25 25 24 22 21 22 23 23 21 22 22 20 20 19 18 19
40 39 38 37 36 36 35 34 35 36 36 34 32 31 29 28 29 30 29 29 30 30 30 30 28 26 26 26 26 24 23 23 23 24 22 22 23 22 21 21 19 20
41 40 40 39 38 38 36 34 33 34 35 35 33 32 31 30 29 29 29 29 30 31 31 32 31 29 28 27 27 27 26 25 24 24 23 23 23 23 23 22 21 21
43 42 41 40 39 38 37 35 34 33 33 34 34 33 32 32 32 31 30 31 32 32 32 33 32 31 30 29 29 29 29 28 26 25 25 24 24 25 24 23 23 23
42 42 42 41 40 39 37 37 37 36 34 33 34 34 33 32 33 34 33 33 33 34 33 33 33 33 32 31 31 31 31 31 30 28 28 27 26 26 25 25 25 24
40 42 42 41 41 40 39 38 38 37 37 35 34 34 34 33 33 34 35 35 34 34 35 34 34 34 33 33 33 33 32 31 31 30 30 29 28 28 27 26 26 26
40 42 42 41 40 39 39 39 38 38 38 37 35 34 35 35 34 34 35 36 36 35 35 35 35 35 34 34 34 34 34 32 32 31 32 31 30 30 30 29 28 29
39 40 40 40 39 38 39 39 39 39 38 37 37 36 35 36 37 35 34 35 37 36 35 35 36 36 36 35 36 36 35 35 34 33 33 33 33 32 32 31 31 30
39 39 40 40 39 39 39 39 38 38 38 38 38 37 36 36 37 37 35 34 36 37 37 37 36 37 37 37 37 37 37 37 36 35 35 35 35 35 34 34 34 33
40 39 39 40 41 40 39 39 38 37 38 38 38 37 37 36 36 37 38 36 36 38 39 39 39 38 38 38 38 38 38 38 38 37 36 36 37 37 36 36 36 36
41 40 40 41 42 41 40 39 38 37 37 38 39 38 37 37 37 37 39 39 39 39 39 41 41 40 40 40 39 39 39 39 39 38 38 38 38 38 38 38 38 38
42 42 42 42 43 42 41 40 39 39 38 38 39 39 38 37 38 38 39 41 42 41 40 41 41 41 41 41 40 39 39 39 39 40 39 39 39 39 39 39 39 39
43 43 43 43 42 42 41 41 40 40 39 38 39 40 40 39 38 39 40 41 42 43 42 41 41 42 41 41 41 40 40 40 40 40 40 40 39 40 40 40 41 41
42 42 43 42 41 41 42 42 41 41 40 39 39 40 41 40 39 39 39 40 41 42 42 42 41 42 42 42 43 42 41 41 41 41 41 40 40 40 40 41 42 42
42 41 41 41 41 41 42 42 41 41 41 40 40 40 40 40 40 39 39 40 40 41 42 42 42 42 43 44 45 44 43 42 41 42 42 42 41 40 40 41 42 42
40 40 40 41 42 41 42 42 42 41 41 40 40 39 40 40 40 40 39 39 40 41 42 42 43 43 44 45 47 46 45 43 41 41 42 42 41 40 40 41 41 42
39 40 39 40 41 41 41 42 42 41 40 40 40 39 39 39 40 41 41 40 40 41 42 43 44 45 45 46 47 48 47 45 42 40 40 40 41 41 41 40 40 41
40 40 40 39 40 41 41 41 41 40 40 40 40 40 39 39 41 42 42 41 41 42 43 44 44 45 47 47 47 48 48 47 44 41 40 40 40 41 41 40 39 39
41 40 40 40 40 40 39 39 39 39 40 40 39 39 39 39 41 42 42 43 42 42 43 44 44 45 46 47 48 48 48 49 48 44 41 40 40 41 40 40 40 39
41 41 40 40 39 39 38 38 37 38 39 39 37 38 39 40 40 41 42 43 43 42 41 42 43 44 44 46 47 47 47 49 49 46 42 41 40 40 40 40 40 40
40 40 39 39 38 37 38 37 37 37 37 37 36 36 38 39 39 39 40 41 42 41 40 41 41 41 41 43 44 45 46 47 48 47 44 42 41 40 40 40 40 40
38 39 38 38 37 37 37 37 37 37 36 36 35 34 34 35 37 37 37 38 39 40 41 41 39 37 37 39 40 42 43 45 46 46 44 44 43 40 39 39 39 40
36 38 38 37 37 37 36 35 35 35 35 34 34 34 33 33 34 34 35 36 36 38 39 40 38 35 33 33 35 37 40 43 44 44 44 44 42 39 39 39 39 40
36 36 37 37 36 36 35 34 34 33 33 33 33 33 33 32 31 31 32 34 35 36 36 37 36 35 33 32 32 32 36 40 42 42 42 41 38 37 38 39 40 40
35 35 36 36 35 34 33 33 32 31 31 32 32 31 31 31 31 31 31 32 33 34 34 35 34 33 33 33 32 31 32 36 40 41 40 36 35 36 37 38 39 39

ECMWFNIL_925_spd_036.txt.gz
Wind_Speed
40 39 37 36 35 35 36 37 36 36 36 36 35 35 34 33 32 31 30 28 28 28 27 26 25 25 24 23 22 22 21 22 22 22 21 22 22 21 20 20 19 17
41 40 38 36 34 33 34 36 36 36 37 37 36 35 34 32 31 31 30 29 29 29 29 28 27 26 26 26 25 24 23 24 24 23 23 23 23 22 21 21 21 19
41 40 39 38 36 34 34 35 35 36 36 36 36 35 34 33 31 31 31 31 30 30 30 29 28 28 27 28 28 27 26 26 26 25 25 24 24 23 22 21 21 21
40 40 39 39 38 36 35 34 34 35 35 35 36 36 35 33 32 32 32 32 31 31 31 31 30 29 29 28 29 30 29 29 27 26 27 26 25 25 24 23 23 23
40 39 39 39 38 37 35 34 35 36 36 36 36 36 35 34 33 33 33 33 33 32 32 31 31 31 30 29 29 30 30 30 29 27 28 28 27 27 26 25 24 25
39 39 38 38 38 37 36 37 38 38 38 38 37 36 35 34 34 34 34 33 33 33 33 32 32 32 32 31 31 31 31 32 31 29 29 30 30 29 27 27 27 27
38 39 39 38 37 37 37 38 38 38 39 38 37 36 35 34 33 34 34 33 33 34 34 33 33 33 33 33 33 33 33 33 32 31 31 31 31 31 30 29 29 29
39 39 39 39 37 36 37 37 36 37 37 37 37 37 37 36 35 35 34 34 34 35 35 35 35 34 34 35 35 35 35 34 34 33 33 33 33 33 33 32 31 31
40 40 39 39 37 37 37 37 36 36 36 35 37 38 38 38 38 37 36 35 35 36 36 36 36 36 36 36 37 37 36 36 35 35 35 35 35 35 35 34 33 34
39 39 39 38 37 37 37 37 37 36 35 36 36 36 37 38 38 38 37 37 37 37 37 38 38 38 38 38 38 38 38 38 37 37 37 37 37 37 36 35 35 36
40 39 39 39 39 38 38 38 38 37 37 37 37 36 36 37 37 37 37 38 39 39 39 40 40 40 39 39 40 40 40 40 39 39 38 38 38 38 38 37 38 38
40 40 39 40 40 39 39 39 39 38 38 39 39 38 37 37 37 37 38 39 40 41 41 41 41 41 41 41 41 40 40 40 40 40 40 40 40 40 39 39 39 40
39 40 40 40 40 41 41 41 40 40 40 40 40 40 39 38 37 38 39 40 41 42 42 42 42 41 42 42 41 41 40 40 40 40 41 41 41 41 40 40 40 40
39 40 40 40 40 40 41 41 41 41 41 41 40 40 40 40 40 40 41 41 42 43 43 42 41 41 42 42 41 41 41 41 41 41 41 41 41 42 41 41 41 41
39 39 39 39 39 39 41 41 41 41 41 40 40 40 41 41 41 41 41 41 43 43 43 42 41 42 43 43 42 42 42 42 41 41 41 41 41 41 41 41 41 41
39 38 38 38 39 40 40 41 41 40 40 40 40 40 41 41 41 41 41 42 43 43 43 42 42 43 44 45 44 44 43 42 41 41 40 40 39 39 39 40 40 41
38 37 37 38 39 40 40 40 41 40 39 40 40 40 41 41 41 41 42 43 43 43 43 43 44 44 45 46 46 46 45 43 41 40 39 39 38 37 38 38 39 40
37 37 37 38 38 39 39 39 39 39 39 39 40 41 40 40 41 42 43 43 43 43 43 43 45 46 46 47 47 48 48 45 42 40 38 38 38 38 38 38 37 38
38 38 38 39 39 39 39 38 37 38 39 40 40 41 40 40 41 42 44 44 43 43 43 44 45 46 47 48 49 49 49 48 45 41 39 38 38 38 38 38 38 38
38 38 38 39 39 39 38 38 38 39 40 40 39 39 39 40 41 42 43 44 44 44 44 44 45 46 47 48 49 49 48 48 47 45 41 40 39 38 38 39 39 39
38 38 38 38 39 39 38 39 40 40 40 40 39 38 39 40 41 41 42 43 43 43 43 43 44 45 45 45 47 47 47 47 46 46 43 42 40 39 39 39 39 39
38 37 37 38 38 38 38 38 39 40 40 40 39 38 39 39 40 40 40 41 41 41 41 42 43 41 41 42 43 44 44 44 45 45 44 43 42 40 40 40 40 39
39 38 37 38 38 37 37 38 39 40 40 40 39 38 38 39 39 40 39 39 39 39 40 41 41 38 37 38 39 40 41 42 44 44 44 43 43 42 41 41 41 41
40 40 39 38 38 38 38 38 39 39 40 40 39 39 39 39 39 39 39 39 39 39 40 40 38 37 35 35 36 36 37 40 42 43 43 43 42 42 42 42 42 42
41 41 41 40 39 39 39 39 39 39 40 40 40 40 39 38 38 38 38 39 39 40 40 39 38 36 35 34 34 33 35 38 40 42 41 40 41 41 41 42 42 42
40 41 42 41 40 40 39 39 39 38 38 38 38 38 37 36 36 37 37 37 38 38 38 38 37 35 34 33 33 33 34 35 38 41 40 39 40 39 39 39 40 40

ECMWFNIL_925_spd_039.txt.gz
Wind_Speed
39 37 36 35 35 35 34 34 34 34 34 34 34 34 33 32 31 31 29 27 26 25 24 23 22 22 22 21 20 20 20 20 19 19 19 20 20 21 21 22 21 19
40 38 37 36 35 34 34 34 35 34 34 35 35 35 33 32 31 31 30 29 28 27 25 24 23 23 23 22 22 21 21 22 21 20 20 21 21 22 23 23 22 21
40 39 38 37 36 36 35 35 34 35 35 34 34 34 34 33 32 31 31 30 29 28 27 26 25 24 24 23 23 23 23 23 23 22 22 22 22 23 24 23 23 23
39 38 38 38 37 36 35 34 34 35 35 34 34 34 34 34 33 32 31 31 30 30 29 28 27 25 25 25 25 25 25 25 25 24 24 24 24 24 25 24 24 24
38 38 37 37 36 35 33 33 34 35 35 35 35 35 34 34 33 33 32 32 31 31 30 30 29 28 27 27 27 28 27 27 26 26 26 26 26 26 26 26 26 25
38 37 37 37 36 34 33 34 35 35 36 36 35 35 35 35 34 34 34 33 32 32 31 31 31 30 29 29 29 29 29 29 28 27 28 29 28 28 27 27 27 27
38 38 38 37 36 35 35 35 35 34 35 35 33 33 34 35 35 35 35 34 33 33 32 32 32 32 31 30 30 31 31 30 30 29 30 30 30 30 29 29 29 29
38 38 38 38 37 36 36 36 35 34 34 33 32 33 34 34 36 36 36 35 34 34 34 33 33 33 32 32 31 32 32 32 31 30 31 31 30 31 31 30 30 30
39 38 38 38 38 37 37 37 36 35 34 33 33 33 33 34 35 36 36 35 35 36 35 35 35 34 34 33 33 33 33 33 32 32 32 31 31 32 32 31 31 31
38 38 38 38 37 37 38 38 37 36 35 35 35 34 33 34 34 35 35 35 36 36 36 36 36 36 36 35 35 35 34 34 33 32 33 32 33 33 32 32 32 32
38 38 37 37 37 37 38 38 37 36 36 36 36 35 35 34 34 34 34 35 37 38 38 38 38 38 37 37 36 36 35 35 34 33 34 34 34 34 33 32 32 33
38 37 37 37 37 37 38 38 37 37 37 37 37 36 36 35 34 34 35 36 38 38 39 39 39 38 38 38 37 36 36 36 35 35 35 35 35 34 34 34 34 34
38 38 38 38 38 39 38 38 37 37 37 38 37 37 36 35 35 35 36 38 39 39 39 39 38 38 38 38 37 36 36 36 36 36 36 35 35 35 34 34 35 35
38 38 39 39 39 39 38 38 37 38 38 38 37 36 37 37 37 37 37 38 39 40 40 39 38 37 38 38 37 37 37 37 37 37 37 36 36 35 35 35 35 36
39 38 38 39 38 38 38 38 37 37 37 37 36 37 37 37 38 38 37 37 38 39 39 39 38 38 39 39 38 38 38 38 38 37 37 37 36 36 35 36 36 37
38 37 37 37 38 38 38 38 37 36 36 36 36 37 37 37 37 38 38 38 39 39 38 38 38 39 40 40 40 39 39 38 37 37 37 37 36 35 35 36 37 38
36 36 36 37 38 38 38 37 37 36 36 36 36 37 37 37 37 37 38 39 39 39 39 38 39 41 41 41 41 41 40 38 38 37 37 36 35 35 36 37 37 38
35 35 35 36 37 37 37 37 37 37 37 37 37 37 37 37 37 38 39 40 39 39 40 39 40 42 42 42 42 42 41 40 39 37 35 35 35 35 36 37 37 37
36 35 36 36 37 37 38 37 37 37 38 38 38 38 37 37 38 39 40 40 39 39 40 40 41 42 42 42 43 43 42 41 40 38 36 35 34 35 36 36 36 36
36 36 36 37 37 37 37 37 37 38 39 39 38 37 37 38 38 39 39 40 40 40 40 40 41 42 42 42 43 43 42 41 41 40 38 36 36 36 36 36 36 36
36 36 36 37 37 37 37 37 38 38 39 38 38 38 39 39 38 39 40 40 40 40 39 39 41 42 41 41 42 42 41 40 40 40 40 39 39 39 38 38 37 36
36 36 36 37 37 37 36 37 38 38 38 38 38 38 38 38 38 39 40 40 40 39 39 40 41 41 41 41 41 39 38 38 39 40 40 41 42 41 40 39 39 38
37 37 37 37 37 36 36 37 38 39 39 38 37 37 37 37 38 39 39 39 39 39 40 40 40 41 40 39 39 37 36 36 38 39 40 42 43 42 41 41 40 40
38 38 38 37 36 36 37 38 39 39 39 39 38 38 38 38 38 37 38 39 39 40 40 39 39 39 38 38 38 37 36 36 37 38 40 42 42 41 41 41 42 42
39 39 39 37 37 37 38 39 40 40 39 39 38 38 37 37 36 35 36 37 38 39 39 38 38 38 37 37 38 37 36 36 36 37 39 39 39 38 39 40 41 42
37 38 38 38 37 38 39 40 40 39 37 36 36 36 35 34 33 34 34 35 36 36 36 37 37 36 36 37 37 36 37 37 36 37 38 37 36 36 36 37 38 39

ECMWFNIL_925_spd_042.txt.gz
Wind_Speed
36 35 35 35 34 34 33 32 32 32 32 32 32 32 31 30 28 27 27 27 26 25 24 23 21 19 18 17 17 17 17 16 15 14 13 14 14 15 16 16 16 17
37 36 35 35 34 34 34 33 33 33 32 32 32 32 31 31 29 28 27 27 27 27 26 24 23 21 20 19 18 18 18 18 16 15 15 15 15 16 17 17 17 17
38 37 36 35 35 35 35 34 33 33 32 32 32 32 31 31 31 30 29 28 27 27 26 26 24 23 22 21 20 19 19 19 18 16 16 16 16 16 17 17 17 18
38 38 38 37 37 36 34 33 33 33 32 32 32 32 32 32 31 31 30 29 28 27 27 27 26 25 24 23 22 21 20 20 19 17 17 17 17 17 17 17 18 18
39 38 38 37 36 34 33 33 33 33 33 34 33 33 32 32 31 32 31 31 30 29 28 28 28 27 26 25 24 23 22 21 20 19 19 19 18 18 18 18 19 19
37 37 38 37 35 34 33 34 34 34 34 34 33 33 32 31 31 32 32 32 32 31 30 29 29 29 28 27 26 25 24 22 21 20 21 21 20 20 20 20 21 21
36 37 37 37 35 34 34 35 34 34 34 33 32 32 32 32 32 32 32 32 32 32 31 30 30 29 29 28 27 26 25 24 23 22 22 22 22 22 22 22 23 23
37 37 37 37 36 35 35 35 34 34 34 32 32 33 33 32 33 33 32 32 32 32 31 31 31 30 29 28 28 27 26 25 25 24 24 23 23 24 24 24 24 25
37 37 37 37 37 36 36 36 35 34 33 32 33 33 33 33 33 33 33 33 32 33 32 32 32 31 30 29 29 28 27 27 26 25 25 25 25 26 26 25 25 26
37 36 37 37 38 37 37 37 36 34 33 33 33 33 33 34 34 33 33 33 33 34 34 34 33 32 31 31 30 29 29 28 27 27 27 27 27 27 27 26 26 27
37 36 36 37 38 38 38 38 36 34 33 33 33 33 33 33 33 33 33 33 34 35 35 35 35 34 33 32 32 31 30 30 29 29 29 28 29 28 28 27 27 28
37 36 37 38 38 38 37 37 36 35 34 33 33 33 32 32 32 32 33 34 35 36 36 36 35 35 34 33 32 31 31 31 30 30 30 30 30 30 29 29 29 29
37 37 38 38 38 38 37 36 36 36 35 34 34 33 32 32 32 32 33 34 35 36 36 36 35 34 34 33 32 32 32 31 31 31 31 31 31 31 31 30 31 30
38 38 38 38 37 38 37 37 36 36 36 35 34 33 33 34 33 33 33 34 35 36 36 35 34 34 34 34 33 33 32 32 32 32 32 31 31 32 32 32 32 31
37 37 37 37 37 37 37 37 36 36 36 35 34 34 34 34 34 34 33 33 34 34 35 34 34 34 35 35 34 33 33 33 33 32 32 32 31 32 32 32 32 32
36 36 36 36 37 37 37 37 36 35 35 34 35 35 35 34 34 34 34 34 34 34 34 33 34 35 37 36 35 34 33 33 32 32 32 32 31 32 33 33 32 32
35 35 35 36 36 36 36 36 35 35 34 35 35 35 35 34 34 34 35 35 34 34 34 33 34 36 37 36 36 35 34 33 32 33 32 32 32 33 33 33 32 32
35 34 34 35 35 36 36 36 35 34 35 35 35 35 35 35 35 35 36 35 34 34 34 34 35 36 36 36 36 35 34 33 33 33 32 32 32 33 33 33 32 33
34 34 34 35 36 36 36 35 35 35 35 35 35 36 35 35 36 36 36 36 35 35 35 35 36 36 36 36 36 36 35 34 34 33 32 32 32 32 33 33 33 33
34 35 35 36 36 36 36 36 36 36 36 36 35 35 34 35 36 36 36 36 36 36 36 35 36 37 37 36 36 36 35 34 34 34 33 33 33 33 33 34 33 33
35 35 36 36 36 36 35 36 36 36 36 36 35 35 35 36 36 36 36 36 37 36 36 36 37 37 36 36 37 36 34 33 33 33 34 34 34 34 35 35 35 33
35 35 35 35 35 35 34 34 35 35 36 35 35 34 35 35 35 35 36 37 36 36 35 36 38 38 37 37 37 35 34 33 33 33 34 35 35 36 36 37 36 34
36 36 36 35 34 33 33 34 35 36 36 36 34 34 34 35 35 35 36 36 36 35 36 37 38 37 36 37 36 34 33 33 33 34 34 35 36 36 36 36 36 36
37 37 37 35 34 34 35 35 36 36 37 36 35 35 36 37 36 35 36 36 36 36 37 37 37 37 36 36 36 35 34 33 34 34 35 35 35 35 36 36 36 36
37 37 37 35 35 36 37 37 37 37 37 35 35 36 36 35 34 34 34 35 36 37 36 36 36 37 37 37 36 35 34 34 34 34 34 34 33 33 34 34 34 35
36 36 36 36 36 37 38 38 37 36 35 33 34 35 34 33 32 33 33 35 35 35 35 35 36 37 37 37 36 35 34 33 33 34 34 33 32 32 32 32 32 32

ECMWFNIL_925_spd_045.txt.gz
Wind_Speed
35 35 34 32 31 31 29 29 29 29 30 29 28 28 28 27 26 24 23 23 22 21 20 20 19 18 17 16 14 12 10 10 11 12 12 11 11 11 11 11 11 11
35 35 35 32 32 33 32 31 31 30 31 32 30 29 29 28 26 25 24 23 23 22 21 20 19 19 18 18 16 12 8 9 10 11 11 11 11 11 12 11 11 12
35 33 35 33 32 34 32 30 32 32 31 32 31 30 29 28 26 26 25 24 24 23 22 21 20 20 19 18 18 14 10 9 10 11 11 11 11 12 12 12 11 12
35 33 34 32 30 31 30 28 30 32 30 30 31 30 29 28 27 27 25 25 24 24 23 22 21 20 20 19 19 16 12 10 10 10 10 11 11 12 13 13 12 12
36 35 34 32 28 28 29 30 30 30 30 31 31 31 30 29 28 26 26 26 25 25 24 24 23 21 21 20 20 17 13 11 11 10 10 12 12 13 13 14 14 14
35 35 35 33 29 28 30 31 30 30 31 31 31 31 30 29 28 27 27 26 25 25 24 24 24 23 22 21 21 19 15 13 12 12 12 13 13 14 15 15 15 16
33 34 35 33 29 29 31 31 30 31 31 30 30 31 30 29 29 28 28 27 26 25 24 24 24 23 23 22 22 21 19 16 14 13 13 14 13 13 14 16 17 17
32 32 33 31 29 28 29 29 30 32 32 31 30 31 31 30 29 29 29 28 27 26 26 25 24 24 23 22 22 22 21 19 17 16 15 15 15 14 14 16 18 19
31 30 31 31 29 28 29 29 29 29 31 32 31 29 30 31 30 29 30 29 28 27 27 26 25 24 23 23 23 23 22 21 20 20 20 19 18 18 17 17 18 20
31 31 31 31 30 29 28 28 27 26 29 32 31 27 28 32 32 30 30 29 28 28 28 27 26 25 24 24 24 23 23 22 22 23 23 23 22 21 19 19 20 20
31 30 30 31 31 29 29 29 27 25 27 30 29 27 27 30 31 31 30 30 29 28 28 28 28 27 26 25 24 24 24 23 23 24 24 24 25 24 22 22 22 22
31 31 30 31 31 30 28 28 27 25 25 28 29 28 26 27 29 31 31 30 30 29 29 29 29 28 27 27 25 24 24 24 24 25 26 26 26 25 25 24 24 24
32 31 31 31 31 30 28 27 27 26 25 26 27 27 26 25 27 30 32 31 30 30 30 29 29 28 28 28 26 25 26 26 26 25 26 26 27 26 25 24 24 24
32 31 31 31 30 29 29 27 27 27 26 25 26 27 27 26 26 28 31 31 30 30 30 29 29 28 28 28 29 28 27 27 27 27 26 25 26 27 25 24 23 23
31 30 30 32 30 30 32 30 27 27 27 25 27 29 28 27 26 25 27 29 30 29 29 27 26 27 28 29 29 29 28 27 26 27 26 25 25 25 25 24 24 23
32 31 31 34 34 34 36 34 30 28 28 28 29 29 28 27 26 24 25 27 27 27 26 25 25 27 29 30 30 29 27 26 25 27 27 25 25 25 23 23 23 23
36 35 34 35 36 36 36 36 33 29 29 30 30 29 28 27 27 26 25 25 24 24 24 24 25 28 31 31 31 30 28 26 24 25 26 26 25 25 23 22 21 22
35 34 32 33 35 36 35 36 34 30 28 29 29 28 27 27 26 27 27 25 23 23 23 23 25 29 32 32 31 31 30 28 25 23 22 23 24 24 23 21 21 21
33 31 31 32 34 36 35 34 32 29 28 28 27 27 26 26 26 27 26 26 24 24 24 24 24 27 31 32 32 31 31 30 28 25 22 22 22 22 22 22 22 22
32 31 31 31 33 35 34 33 31 29 29 27 26 26 25 26 28 27 26 26 26 25 25 25 25 27 31 32 32 32 31 30 31 29 26 24 24 23 23 23 23 23
33 32 31 31 33 34 33 32 30 29 29 27 26 25 26 27 28 27 26 26 26 26 25 25 27 30 32 33 32 32 31 30 31 31 30 27 26 26 25 25 24 24
33 32 31 31 31 31 30 29 29 29 30 28 26 25 24 25 27 26 26 26 27 27 26 26 28 30 32 34 33 32 31 30 31 32 32 30 28 28 28 27 26 25
32 32 31 30 29 29 29 28 28 29 30 28 27 25 24 24 25 25 26 26 26 27 27 27 28 29 33 34 33 32 31 31 33 33 32 32 31 30 29 28 29 29
32 32 31 30 29 29 29 29 28 28 29 28 27 27 25 25 24 25 25 26 26 26 28 28 27 28 32 34 33 32 32 32 33 33 32 32 32 32 32 31 32 32
33 32 32 31 30 30 30 29 29 29 28 28 27 27 26 24 24 23 24 24 25 26 28 29 26 25 30 33 33 32 32 33 33 32 29 29 29 29 29 30 32 34
32 31 31 30 29 31 30 29 29 28 26 25 25 25 24 23 23 23 22 23 23 24 26 28 26 25 28 31 32 32 32 32 33 31 28 27 27 26 24 24 26 29

ECMWFNIL_925_spd_048.txt.gz
Wind_Speed
25 24 23 23 22 21 20 20 19 20 20 19 18 18 17 17 16 15 15 15 15 15 15 15 14 14 12 12 11 10 10 10 10 10 10 11 10 9 9 9 9 8
26 24 23 22 21 21 21 20 20 20 20 20 19 17 16 16 16 16 16 15 15 15 15 15 15 15 13 12 12 12 10 10 10 10 11 11 11 10 10 10 10 9
26 25 24 23 22 22 22 21 20 20 20 19 19 17 16 16 16 16 16 16 15 15 16 16 15 15 14 13 13 13 12 11 11 11 11 12 12 11 11 10 10 10
28 27 25 24 23 22 22 21 21 21 20 19 19 18 17 16 16 16 16 16 16 15 15 16 16 15 15 14 14 13 13 12 12 11 11 11 11 11 12 11 11 10
29 28 26 25 24 22 21 22 22 21 21 20 19 18 18 17 16 16 16 16 16 16 16 16 16 16 15 15 15 14 14 13 13 12 11 11 11 12 12 12 12 12
28 28 27 25 24 23 22 22 23 22 21 20 19 18 18 18 18 17 16 16 16 16 16 17 16 16 16 16 16 15 15 14 13 13 13 12 12 12 12 12 13 13
29 29 28 26 25 25 24 23 23 22 21 20 19 18 18 18 19 18 18 17 17 17 17 17 17 17 16 16 16 16 16 15 14 14 14 14 13 12 12 12 13 13
29 29 28 27 26 26 25 24 23 23 22 20 20 19 19 19 19 19 19 18 18 17 17 17 17 17 16 16 16 17 16 16 15 15 16 15 14 13 13 13 13 14
30 28 28 28 28 27 26 25 24 23 22 22 21 20 19 20 19 19 19 19 19 18 18 17 17 17 17 16 17 17 17 16 15 16 16 15 15 15 14 14 14 14
30 29 29 29 29 28 27 27 25 24 23 23 22 21 20 20 20 20 19 20 20 19 18 18 18 18 17 17 17 17 17 16 16 16 16 16 16 15 15 15 15 15
31 30 30 30 30 29 28 28 26 25 24 23 23 22 21 20 20 21 21 21 21 20 20 19 19 19 18 18 18 17 17 16 16 16 16 16 16 16 15 15 16 16
32 31 30 31 30 29 28 28 27 26 24 24 24 24 23 21 21 21 22 22 21 20 20 20 19 19 19 19 18 17 17 17 16 16 17 16 16 16 16 16 17 17
33 32 31 31 30 29 28 27 27 26 25 24 24 24 24 23 22 22 22 22 22 21 20 20 19 19 19 19 19 18 18 17 17 17 17 17 17 17 17 17 17 17
33 32 31 30 29 28 27 26 26 26 26 24 23 23 24 24 23 22 21 21 21 21 21 20 20 20 20 20 20 20 19 19 18 18 18 17 17 17 17 17 17 17
31 30 30 29 28 28 28 27 26 26 25 24 23 23 23 23 23 22 21 21 21 21 21 20 20 20 20 21 21 20 20 20 19 19 19 18 17 17 17 17 18 18
30 29 29 29 29 28 28 27 26 25 25 25 24 23 23 22 23 22 21 21 21 21 21 21 21 21 22 24 23 22 20 19 19 19 18 18 17 17 17 17 18 18
30 29 29 29 29 28 28 28 26 25 25 25 24 23 23 22 22 22 22 21 20 20 21 21 21 21 24 27 27 26 22 19 18 18 18 17 17 17 17 17 18 18
30 30 29 29 29 28 28 28 27 25 25 25 25 24 23 22 22 22 22 21 20 20 21 21 21 22 25 27 28 29 27 22 18 17 17 17 17 18 18 17 18 18
30 30 29 29 29 28 28 27 27 26 26 25 25 24 23 22 22 22 22 22 21 20 21 21 21 22 26 28 28 29 29 27 22 18 17 17 17 17 18 18 18 17
29 30 29 28 28 28 27 27 28 27 26 25 24 24 23 23 23 23 22 22 22 22 21 21 21 22 25 28 29 28 28 28 26 23 19 18 18 18 18 18 18 18
29 29 29 28 28 27 27 27 27 27 26 25 23 23 23 23 23 23 23 22 23 23 22 22 22 23 25 27 28 28 27 27 28 25 22 20 20 20 19 19 19 19
30 29 29 28 27 27 27 27 27 26 26 25 23 22 22 22 22 23 23 23 24 24 23 23 23 24 27 28 28 28 26 26 28 26 22 22 21 21 21 20 20 20
30 29 29 28 27 28 28 27 27 26 26 25 24 23 22 22 22 23 23 24 25 25 24 24 24 25 27 29 30 29 27 27 27 24 22 22 22 21 21 21 21 22
29 29 29 28 28 28 28 27 26 26 26 25 25 24 23 23 22 22 23 24 24 25 25 25 24 24 27 29 30 30 30 29 26 22 21 22 21 21 21 21 22 24
28 28 28 28 28 27 27 26 26 25 25 25 25 24 24 23 22 22 22 22 23 24 26 26 25 24 26 29 30 31 31 30 26 21 21 21 20 20 21 21 22 24
27 27 27 27 27 26 25 25 25 24 24 24 24 23 23 23 23 22 21 21 22 22 24 26 25 24 25 29 30 31 32 32 27 22 21 21 20 20 19 19 20 21

ECMWFNIL_925_spd_051.txt.gz
Wind_Speed
27 26 26 25 24 24 23 22 20 20 20 19 18 18 18 18 17 17 16 16 16 16 15 15 14 13 12 11 10 9 9 9 9 9 8 8 8 8 8 7 7 6
28 27 26 25 25 24 24 23 22 21 21 21 20 18 18 19 19 19 18 17 17 17 16 16 15 14 13 12 11 11 10 10 10 9 9 9 9 8 8 8 7 7
29 28 27 27 26 25 25 24 23 22 21 21 21 19 18 19 20 20 20 19 18 17 17 17 16 16 15 14 13 12 12 11 11 10 9 9 9 9 9 8 8 8
30 29 28 28 26 25 25 24 24 23 22 21 21 20 19 19 20 20 20 20 19 17 17 17 17 16 16 15 14 14 13 13 12 11 10 10 10 10 10 9 9 8
30 29 28 27 27 25 25 25 25 24 23 22 21 21 20 19 20 21 21 21 20 18 18 17 17 17 16 16 16 15 14 14 13 12 11 11 10 11 10 10 10 9
30 29 28 27 27 26 25 25 25 24 23 23 22 21 21 21 21 22 22 21 21 20 19 18 18 18 17 17 17 16 15 14 13 13 13 12 11 11 11 10 11 11
31 30 29 28 27 27 26 25 25 25 24 23 23 22 22 22 22 22 22 22 22 21 20 20 19 19 18 18 17 17 16 15 14 14 14 13 12 12 12 11 11 11
32 31 30 29 28 28 27 26 25 25 24 23 23 23 22 23 23 22 22 22 22 22 21 21 20 20 19 18 18 18 17 16 15 15 15 14 14 14 13 12 12 12
32 31 30 30 30 29 28 27 26 25 25 24 24 23 23 23 24 23 22 22 22 22 22 22 21 21 20 20 19 19 18 18 17 16 16 16 16 15 15 14 13 13
32 31 31 31 31 30 30 29 28 26 26 25 25 24 24 24 24 23 23 23 23 22 23 23 22 21 21 20 20 20 19 19 18 17 17 17 17 16 16 15 15 14
33 32 32 32 32 31 31 30 29 28 27 26 26 26 25 24 24 24 24 24 23 23 23 23 23 23 22 21 21 20 20 19 19 18 18 18 18 17 16 16 16 16
34 33 33 33 33 32 31 31 30 29 28 27 26 26 26 25 24 24 24 24 24 23 23 24 23 23 23 22 21 21 20 20 19 19 19 18 18 18 17 17 17 17
35 35 34 34 33 33 31 31 30 30 29 28 27 26 27 26 26 25 24 24 24 24 23 24 23 23 23 22 22 21 21 20 20 20 20 19 19 18 18 18 18 17
35 35 34 33 33 33 31 30 30 30 29 28 27 27 27 27 27 26 25 24 25 24 24 23 23 23 23 23 22 22 21 21 21 20 20 19 19 19 18 18 18 18
34 33 33 33 32 32 32 31 30 30 29 28 27 27 27 27 27 26 25 25 25 25 24 24 24 24 24 24 23 23 22 22 21 21 21 20 19 19 19 19 19 19
33 32 32 33 33 33 33 31 29 29 29 29 28 27 26 27 27 27 26 26 25 25 25 24 24 24 25 26 26 24 23 22 21 21 21 21 20 19 19 19 19 19
32 32 32 33 34 33 33 32 30 29 29 29 28 27 26 26 26 27 27 26 26 26 26 25 25 25 26 29 29 28 25 22 21 21 21 21 21 20 19 19 19 19
33 32 32 32 33 32 33 32 31 29 29 29 28 27 27 26 26 27 27 26 25 26 26 26 25 25 27 30 32 32 29 25 21 21 21 20 20 20 20 19 20 20
33 32 32 32 32 32 31 32 31 29 29 29 29 27 27 26 26 26 26 26 25 25 26 26 25 25 28 30 32 34 34 30 24 20 21 21 20 20 20 20 19 19
33 33 32 32 32 31 30 31 31 30 29 29 28 27 27 26 26 25 25 26 25 24 24 24 24 25 28 30 32 33 34 34 29 22 19 20 19 19 19 19 19 19
33 33 32 31 31 30 30 30 31 30 29 28 28 28 27 26 26 25 25 26 26 25 24 23 24 25 27 29 32 32 32 34 33 26 19 18 19 18 18 18 18 18
32 32 31 31 31 31 30 30 30 30 29 28 27 26 26 25 25 25 25 25 26 26 25 24 23 24 25 27 29 31 30 32 32 27 21 20 19 19 20 19 19 19
32 32 31 31 31 31 31 30 29 29 28 27 26 26 26 25 25 25 25 25 25 26 26 25 24 25 26 26 27 29 29 31 31 26 22 22 21 20 21 21 21 21
33 32 32 31 32 32 31 30 29 28 28 27 26 26 26 25 24 24 25 25 26 26 26 26 25 27 28 28 28 29 29 30 29 24 21 21 20 20 20 21 22 24
32 32 32 31 32 31 31 30 29 28 27 27 26 26 25 25 24 24 24 25 25 26 27 27 26 27 29 30 31 31 31 31 28 22 20 20 19 19 20 20 21 23
31 31 32 31 31 31 30 29 28 27 26 26 26 25 25 25 25 24 24 24 24 25 27 28 27 27 28 31 32 32 33 33 28 23 21 20 19 19 18 19 20 21

ECMWFNIL_925_spd_054.txt.gz
Wind_Speed
34 32 30 28 27 25 23 22 23 23 22 21 20 21 20 19 18 18 18 17 17 16 15 14 13 12 11 10 9 9 7 6 6 6 6 7 6 6 6 6 6 5
35 34 32 30 29 27 26 24 23 23 23 23 21 20 21 20 20 19 19 19 18 18 16 15 15 14 13 11 11 10 9 8 7 6 7 7 7 7 7 7 7 6
35 34 34 32 31 30 28 26 25 23 23 24 23 21 20 20 21 21 21 21 20 19 18 17 16 15 15 13 12 11 10 10 9 8 8 8 8 8 8 8 7 7
37 35 35 34 32 31 30 28 27 26 24 24 24 23 21 20 21 23 23 23 22 20 20 19 17 17 16 15 14 13 12 11 10 9 9 9 9 9 9 9 8 7
39 37 35 34 32 31 31 30 28 28 26 24 24 25 23 21 22 24 24 24 24 22 21 21 20 18 17 17 16 15 13 12 12 11 11 11 10 10 10 9 9 9
39 38 36 35 33 32 31 31 30 29 29 27 25 25 25 24 23 24 25 25 25 23 22 21 21 20 19 18 18 17 15 14 13 13 13 13 12 11 10 10 11 11
38 39 38 35 34 33 32 32 32 31 30 28 27 26 26 26 25 24 25 25 25 24 23 23 23 22 20 19 19 19 18 16 14 14 15 15 14 13 12 12 12 11
37 37 38 36 34 34 33 32 32 32 31 29 28 27 26 27 27 26 26 26 25 25 25 24 24 24 22 21 21 20 19 18 16 16 16 15 15 15 14 14 12 12
36 35 37 36 34 33 33 32 31 32 32 30 28 27 27 27 28 27 27 27 27 26 26 26 25 26 24 22 22 22 22 20 18 17 17 17 16 16 16 15 14 14
35 34 35 35 34 33 33 33 31 30 31 31 29 27 27 28 28 28 28 29 28 27 27 27 26 27 26 25 24 24 24 22 20 19 19 18 18 17 17 16 16 16
36 35 35 35 35 33 33 33 32 30 30 31 30 28 28 28 29 29 29 29 30 28 28 28 28 27 28 27 25 25 25 24 22 21 20 20 19 19 18 18 17 17
36 36 36 36 36 34 33 33 32 31 30 31 31 30 29 28 30 31 30 30 30 29 28 29 29 28 29 28 27 25 25 24 23 23 22 21 20 20 19 19 19 19
37 37 37 36 36 35 34 33 33 32 31 31 31 31 30 29 29 30 31 31 31 30 29 28 30 30 29 30 28 26 25 25 23 22 22 22 21 21 20 20 20 20
37 38 38 37 36 36 35 34 34 33 32 31 31 31 30 29 29 30 31 30 30 31 30 28 29 30 30 31 30 28 26 26 25 23 22 22 22 21 21 20 20 20
38 37 37 37 37 37 36 35 34 34 33 32 32 32 30 30 30 30 31 30 29 30 30 29 29 30 31 31 32 30 28 26 26 25 23 22 22 22 21 21 21 20
38 37 37 37 37 38 38 37 35 35 34 32 33 33 31 31 31 30 30 30 30 30 30 29 28 29 31 32 32 32 30 27 26 26 25 24 23 22 22 22 22 21
37 37 37 38 38 38 39 38 35 35 35 33 32 34 33 32 31 31 30 30 30 29 29 29 28 28 31 33 33 33 32 30 27 26 26 26 25 23 23 23 22 22
37 37 37 38 38 39 39 39 36 34 34 34 33 33 34 33 32 32 30 30 30 29 29 29 29 29 30 33 34 34 33 31 28 27 26 26 26 25 24 24 24 23
37 37 37 38 39 39 38 39 37 34 34 34 33 32 34 34 33 32 31 30 30 30 30 29 28 29 31 32 34 35 35 33 29 27 26 25 25 25 25 25 25 25
37 36 37 38 38 38 37 38 38 36 34 33 32 31 32 33 33 32 31 31 30 30 31 30 28 29 31 32 34 35 36 36 33 28 26 25 24 25 25 25 25 26
36 36 35 36 37 37 37 37 38 37 35 33 32 31 31 31 32 31 31 32 31 29 29 29 29 29 30 32 33 35 36 37 36 32 27 24 23 23 24 24 25 25
35 35 34 35 36 36 36 36 37 37 36 34 31 31 30 30 30 30 30 31 31 30 28 27 27 28 30 32 33 35 36 36 37 35 31 26 23 22 22 23 24 25
34 34 34 33 34 35 35 36 36 36 36 34 32 30 29 29 29 28 28 28 29 30 30 27 26 27 29 31 33 35 36 37 37 36 34 30 27 24 22 22 23 24
34 34 33 33 34 35 34 34 35 35 35 34 32 30 29 28 28 28 27 28 28 30 31 29 27 27 28 29 32 35 36 37 37 36 32 30 29 27 25 24 25 26
34 34 33 33 33 34 33 32 32 33 33 34 32 31 29 28 28 28 27 28 28 29 30 31 29 29 29 28 29 32 35 36 36 34 31 28 27 26 26 27 28 28
33 34 34 34 34 33 32 31 30 30 31 32 31 30 29 28 28 28 27 27 27 28 29 31 30 29 30 30 30 31 33 35 35 33 30 28 27 25 24 25 27 29

ECMWFNIL_925_spd_057.txt.gz
Wind_Speed
37 35 34 32 34 34 31 29 28 28 27 26 27 26 24 22 21 21 21 20 19 18 18 16 15 14 13 13 12 11 11 11 9 8 8 7 7 7 6 6 6 7
39 37 36 34 34 35 34 32 30 29 29 29 28 27 25 23 21 22 22 22 21 20 19 19 18 17 17 15 15 15 14 13 12 10 9 8 8 7 8 7 6 6
40 39 38 37 35 34 33 33 33 32 31 30 29 28 26 24 23 23 23 23 23 22 20 20 20 19 18 18 16 16 15 15 15 13 11 9 9 9 9 9 8 7
42 41 40 40 38 36 33 33 33 34 33 31 29 28 27 25 25 25 25 24 24 24 22 21 21 21 19 18 17 16 15 15 15 14 13 11 11 10 10 9 9 8
44 43 42 41 39 38 35 33 33 33 33 33 31 29 27 27 27 27 27 27 26 25 24 22 22 22 21 20 19 18 17 15 14 13 13 13 12 11 11 10 11 9
43 43 42 41 40 39 38 36 35 34 33 33 32 31 29 28 28 28 29 29 28 27 26 24 23 23 23 21 20 20 19 18 16 14 14 15 14 13 12 11 11 11
42 43 42 42 40 40 40 40 38 36 35 33 32 32 32 30 28 29 30 30 30 29 28 27 25 25 25 23 22 22 22 20 18 17 16 15 15 15 14 13 12 12
42 43 42 42 41 40 41 41 40 39 37 35 34 33 33 33 32 30 30 31 32 31 31 29 28 27 26 26 24 24 24 23 21 19 18 16 16 17 16 15 15 14
41 42 43 42 42 41 41 42 42 41 40 37 36 35 33 34 34 33 31 32 33 33 32 31 30 28 28 28 27 26 25 25 24 23 21 19 19 18 17 16 16 16
41 42 43 43 42 42 42 42 41 41 40 39 38 36 35 34 34 35 34 32 34 34 33 32 31 30 30 30 30 29 27 26 26 25 24 22 21 20 18 17 17 18
42 42 42 44 44 43 42 42 41 40 40 40 38 37 36 36 35 35 36 34 35 35 35 33 33 32 32 32 31 30 29 28 27 26 25 24 23 22 20 19 18 19
42 42 43 45 45 44 42 42 41 39 39 39 39 38 36 36 37 37 37 37 36 36 36 35 34 33 33 33 33 31 30 29 28 27 26 24 24 23 22 22 21 20
42 43 43 44 45 44 43 42 41 40 39 40 40 39 37 36 37 38 39 39 38 37 37 36 35 35 35 35 34 32 31 30 29 28 27 26 25 24 24 23 23 22
42 43 43 43 44 44 43 42 42 41 40 40 40 40 39 38 37 38 39 39 39 38 37 36 36 36 36 36 35 34 32 30 29 29 29 28 27 26 25 25 24 24
41 41 42 42 42 43 43 42 42 42 41 40 40 40 40 39 38 38 38 39 38 38 37 36 36 36 37 37 36 35 34 31 30 30 29 29 29 28 27 27 26 25
40 39 40 41 41 43 44 43 42 42 42 40 40 41 40 40 38 37 38 39 38 38 37 35 35 36 37 38 37 36 35 33 31 31 31 30 29 28 29 28 28 27
38 39 39 40 42 43 44 44 42 41 42 41 41 41 40 40 39 37 37 39 38 37 37 36 35 35 36 38 38 37 36 34 32 31 31 31 30 29 29 29 29 28
37 38 39 40 41 43 43 44 43 41 42 41 40 41 40 40 39 38 37 38 38 37 37 37 36 36 36 37 38 38 37 35 34 32 31 32 32 31 30 30 29 29
38 38 39 40 41 42 42 43 42 41 42 42 41 41 41 40 40 39 37 37 38 37 37 37 37 37 37 37 38 38 39 38 36 34 33 32 32 33 32 31 30 30
38 38 39 40 40 41 40 41 42 42 42 42 40 40 40 41 41 40 38 36 37 38 37 36 37 38 38 37 37 38 39 39 39 37 35 33 32 32 33 32 32 31
40 40 39 39 39 39 39 41 42 42 41 40 39 39 40 41 41 40 39 37 36 37 38 36 36 38 38 38 37 37 38 40 40 38 35 34 33 31 31 32 33 33
42 41 40 39 38 38 39 40 41 42 40 39 38 37 38 39 40 40 40 38 36 36 37 37 36 37 38 38 38 37 38 39 40 39 36 34 33 32 31 31 32 33
43 43 41 39 39 38 39 40 40 41 40 38 37 36 36 37 38 38 39 39 37 35 36 37 37 37 38 38 38 38 38 39 40 40 37 36 34 33 32 31 31 31
43 43 42 40 40 40 40 39 39 39 39 39 37 36 35 36 37 36 37 39 39 38 36 35 36 37 38 38 38 38 38 40 41 40 39 37 36 34 33 31 30 29
43 43 42 42 41 41 40 39 38 38 38 39 37 36 34 33 34 35 35 36 38 39 38 36 34 35 37 38 38 38 38 40 41 40 38 37 36 35 34 33 32 31
42 43 43 43 42 41 40 38 37 36 36 38 37 35 33 32 33 34 34 34 36 36 38 38 37 34 34 36 37 38 39 41 41 40 38 37 36 35 34 34 35 35

ECMWFNIL_925_spd_060.txt.gz
Wind_Speed
39 37 37 39 38 37 36 34 34 33 31 30 30 28 27 27 27 26 25 23 22 21 18 17 18 18 16 16 14 12 14 16 14 11 10 10 10 12 13 12 10 9
40 38 37 38 39 38 37 35 35 34 33 32 31 29 28 27 27 27 27 25 23 22 21 18 18 17 17 18 18 14 13 16 17 14 13 12 10 11 13 14 12 10
40 39 38 39 40 40 38 36 35 35 34 33 32 30 29 28 27 27 27 26 24 23 22 21 20 19 19 19 20 19 16 16 17 15 14 14 12 11 12 14 13 11
42 40 39 40 41 41 40 37 36 35 34 33 32 31 29 29 27 26 25 25 24 23 23 22 22 21 21 21 21 21 20 19 18 16 15 15 14 13 12 13 14 13
44 43 41 40 41 41 40 38 37 36 35 34 33 31 30 29 28 26 25 24 24 24 24 24 23 23 23 23 23 23 23 22 21 20 19 18 17 15 14 14 15 15
44 43 42 41 40 40 41 41 40 38 36 35 34 33 31 30 29 28 27 26 25 26 26 25 25 25 25 25 25 25 24 24 23 22 22 22 20 18 16 15 16 16
42 43 43 42 41 40 41 42 42 40 39 37 36 35 34 33 32 31 29 28 27 28 28 28 27 27 27 26 26 26 25 25 23 22 22 22 21 21 19 18 17 17
41 42 43 43 41 41 41 42 42 42 41 39 38 37 37 36 35 34 32 30 29 30 30 30 30 29 28 28 27 27 27 26 25 24 23 21 21 22 21 20 19 18
40 40 42 43 42 42 42 42 42 42 42 40 40 40 39 38 37 36 34 32 31 32 32 32 32 32 31 30 29 29 29 28 27 27 26 24 23 22 22 21 21 21
39 39 40 41 42 42 43 43 42 42 41 41 41 40 40 39 39 37 36 34 34 34 34 34 34 34 33 32 31 30 30 30 29 29 29 27 26 24 22 21 21 22
40 40 40 41 42 42 43 43 43 42 41 41 41 40 39 39 39 38 37 36 36 36 36 36 36 36 35 35 34 33 32 32 31 30 30 29 29 27 24 23 22 22
42 41 41 42 42 43 43 43 43 42 41 41 41 40 39 39 39 39 39 39 38 38 37 37 37 37 37 36 35 34 34 33 32 32 31 31 30 29 27 25 24 23
42 43 43 42 42 42 42 42 42 42 41 42 41 41 40 39 39 39 40 40 40 39 39 39 38 38 38 37 37 35 34 34 33 33 33 32 31 30 30 29 27 26
42 43 43 42 42 41 41 41 42 42 42 42 41 41 41 41 40 40 40 40 41 41 40 39 39 39 39 38 37 36 35 34 34 33 33 33 32 31 31 31 30 29
41 41 41 41 40 40 41 42 42 42 42 41 41 41 42 42 41 41 40 40 40 41 41 40 39 39 39 39 38 37 36 35 35 34 34 34 33 32 31 31 31 30
39 39 39 39 40 41 41 42 42 41 41 41 41 41 41 41 41 40 40 40 40 40 40 39 39 39 40 40 40 39 37 36 35 35 35 34 33 33 32 32 31 31
38 39 39 39 40 41 41 42 42 41 41 41 41 41 41 40 40 40 40 40 40 40 40 39 39 39 40 41 42 41 39 37 36 36 35 35 34 34 33 33 33 32
38 39 39 40 40 41 41 41 41 41 40 40 40 40 40 40 40 40 41 40 39 39 40 40 40 40 40 41 42 42 41 38 37 36 36 35 35 35 35 34 33 33
38 39 39 40 41 41 41 40 39 40 40 40 40 40 39 39 40 41 41 40 40 39 39 40 40 41 41 42 42 43 42 40 38 37 36 36 36 36 36 36 35 34
35 37 39 39 40 40 39 39 39 40 41 40 39 39 39 39 40 40 41 41 41 40 40 40 40 41 42 43 43 43 42 41 40 38 36 36 36 36 36 36 36 35
34 36 37 38 38 38 38 39 40 40 40 40 39 38 39 40 40 39 40 41 42 41 40 39 40 41 42 43 44 43 42 41 41 39 37 36 36 36 36 37 37 36
35 36 37 37 37 37 38 39 40 40 40 39 38 37 37 38 38 39 39 40 41 40 39 39 40 41 42 43 44 43 42 41 41 40 38 36 36 36 36 37 37 37
35 34 36 37 37 37 39 40 40 40 39 38 37 36 36 36 37 38 38 39 40 40 40 40 40 41 42 43 44 44 42 41 40 40 39 38 37 37 37 38 38 38
35 34 34 36 37 39 40 39 39 38 38 38 37 37 36 36 36 36 37 38 39 40 41 41 40 41 42 43 44 44 43 42 41 40 39 38 38 38 38 38 39 39
34 34 34 36 38 40 39 38 38 38 37 37 37 37 37 36 35 35 36 37 38 39 40 41 40 40 41 42 43 43 43 43 42 39 38 38 38 37 37 38 39 40
35 35 36 38 39 39 38 37 37 36 35 36 37 36 35 35 34 34 35 36 37 37 39 40 41 40 40 42 43 43 43 44 42 39 38 38 38 37 37 36 38 39

ECMWFNIL_925_spd_063.txt.gz
Wind_Speed
37 37 35 35 35 33 31 31 30 30 29 27 26 26 26 26 25 25 23 22 21 20 19 18 17 18 18 16 15 14 14 14 15 14 12 11 11 11 12 13 12 10
39 38 36 35 35 34 32 32 31 30 30 28 27 26 25 25 25 26 25 23 23 22 20 19 17 18 19 19 17 16 14 13 14 15 14 12 11 11 11 13 13 12
40 39 38 36 36 36 35 33 32 32 31 29 28 27 26 25 25 25 26 25 24 23 21 20 18 18 20 20 19 17 16 14 14 15 16 14 12 11 11 11 14 14
41 41 40 39 37 37 37 35 34 34 33 32 30 29 28 26 25 25 26 26 25 24 23 21 20 19 19 20 19 18 17 17 15 14 16 17 15 14 12 11 13 15
42 42 42 40 39 38 37 36 36 36 35 35 33 31 30 28 27 26 26 26 26 25 24 22 21 20 20 19 19 19 19 18 17 15 16 17 16 16 14 12 13 14
40 41 41 40 38 37 37 38 39 38 37 36 35 34 32 31 29 28 27 27 26 26 25 24 23 22 21 21 21 21 21 20 20 18 18 18 18 17 16 15 15 15
39 40 40 39 37 36 37 39 40 40 39 38 36 35 34 32 32 30 29 28 27 27 26 25 25 23 22 22 23 23 23 23 23 22 21 21 21 20 20 19 19 18
38 39 39 38 37 36 36 38 39 40 40 39 38 36 35 34 33 32 31 30 29 28 27 26 25 24 24 24 25 25 25 25 25 25 25 24 24 24 24 23 22 22
37 38 38 38 37 37 36 37 38 39 40 40 39 38 37 36 35 34 33 31 30 30 29 27 26 26 25 25 26 26 27 27 27 27 27 26 26 25 25 24 24 24
37 37 37 38 38 38 38 37 37 37 37 39 40 39 38 38 36 35 34 33 32 31 30 30 28 27 27 27 28 28 28 28 28 28 28 27 27 26 25 24 24 25
38 37 37 38 39 40 40 39 37 35 35 36 38 38 39 38 37 36 35 34 34 33 33 32 31 30 29 29 30 30 30 30 29 29 28 28 28 27 27 26 25 25
38 38 39 39 40 40 41 40 38 36 35 35 36 37 38 38 37 37 36 36 36 36 35 35 33 32 31 31 31 31 31 31 30 30 30 29 29 28 28 28 28 27
38 39 40 39 40 40 40 40 39 38 37 36 36 36 37 37 37 37 37 38 38 38 37 37 36 34 33 32 32 32 32 32 31 31 31 30 30 30 29 29 29 29
39 39 39 39 39 39 39 39 39 39 39 38 36 36 36 37 37 37 37 37 38 38 38 38 37 36 35 34 33 33 32 32 32 32 32 32 32 31 30 30 30 30
38 37 38 38 38 38 39 40 40 39 39 38 37 36 36 36 36 36 35 36 36 37 37 37 36 36 36 36 35 35 34 34 34 33 33 33 33 32 31 31 31 31
36 36 36 36 37 38 40 40 40 39 38 38 38 38 37 36 36 35 35 35 35 35 36 36 36 36 37 37 37 36 36 35 34 34 34 34 33 33 32 32 31 32
36 36 35 36 38 39 39 39 40 39 38 38 38 38 38 37 36 36 36 36 35 35 35 35 36 36 37 37 37 37 36 35 35 35 34 34 34 33 33 33 33 32
36 36 36 37 38 39 40 40 39 38 37 37 37 38 37 37 37 37 38 37 36 35 35 36 37 37 37 37 38 38 37 36 35 35 34 34 34 34 34 34 33 33
35 35 36 37 38 39 39 38 37 37 38 38 38 37 36 36 37 38 38 38 37 37 37 37 38 38 37 37 38 38 38 37 36 35 35 34 34 34 34 34 34 33
35 36 37 38 38 37 36 36 36 38 39 38 37 36 36 37 38 38 38 38 38 38 38 38 38 38 38 38 38 39 38 38 37 36 36 35 35 35 34 34 34 33
36 37 37 38 38 37 36 36 37 38 38 38 37 37 37 38 38 37 38 38 38 38 37 38 39 39 38 38 38 39 38 38 37 37 36 35 35 35 35 35 34 34
36 37 37 37 37 36 36 36 37 39 39 38 37 37 37 37 37 37 38 38 38 38 37 38 40 40 39 39 39 38 38 37 37 37 36 36 36 36 36 36 36 35
33 35 36 36 35 35 36 37 38 38 38 37 35 35 36 36 37 38 38 38 37 37 37 39 40 40 40 40 40 38 37 37 37 37 36 36 36 37 36 36 37 37
25 29 31 33 34 35 36 37 37 37 36 36 36 36 36 36 37 37 37 37 38 39 39 40 41 41 40 40 40 39 37 37 37 36 36 36 36 37 37 37 37 38
18 24 27 29 31 34 37 36 36 36 35 35 36 36 36 36 36 35 36 37 38 39 40 40 41 41 40 40 40 39 38 37 37 35 35 35 36 36 36 36 37 38
13 19 25 28 29 31 33 33 34 34 34 34 35 36 35 35 35 35 35 36 37 38 38 40 41 40 39 40 40 40 39 38 37 35 35 35 36 35 35 35 35 36

ECMWFNIL_925_spd_066.txt.gz
Wind_Speed
35 36 35 34 32 30 30 30 28 26 25 24 24 24 23 22 20 20 21 20 20 19 18 16 13 12 12 12 12 11 10 10 9 9 10 9 9 8 8 8 9 9
36 36 35 35 33 31 31 31 30 28 26 24 24 24 23 22 21 21 21 21 20 19 18 17 15 13 12 12 13 12 11 11 10 9 9 9 9 9 9 8 8 8
36 36 36 36 35 34 32 31 30 29 27 25 24 24 23 21 20 20 20 21 21 20 19 17 16 15 14 13 13 14 14 13 11 9 9 9 10 10 9 8 8 8
36 37 37 37 37 35 33 31 31 30 28 26 26 25 24 22 20 19 19 20 21 21 20 18 17 16 15 14 13 14 15 15 13 11 11 10 10 11 11 10 9 8
37 37 37 36 36 34 33 32 31 31 30 29 27 26 25 24 22 20 19 19 20 21 21 20 18 17 16 15 14 14 15 15 15 13 13 13 12 12 12 12 12 10
36 37 37 36 35 34 33 33 33 32 31 31 29 28 27 26 25 23 21 20 20 20 21 21 20 18 17 16 15 15 15 15 15 14 14 14 13 13 13 13 13 12
36 37 37 36 35 35 35 35 34 33 32 32 30 29 29 28 27 26 24 22 21 21 21 20 20 19 18 18 17 17 16 16 16 16 16 16 16 15 15 15 15 15
36 36 37 36 35 35 35 35 34 34 33 31 31 30 30 30 29 28 27 25 24 23 22 21 20 19 19 19 19 19 18 18 18 18 18 18 18 18 18 17 17 18
35 35 36 36 36 36 36 36 36 36 34 32 32 31 30 30 30 30 29 28 26 25 25 23 22 21 20 20 20 20 20 20 20 20 20 20 20 20 19 18 19 19
35 35 34 35 36 37 37 37 36 36 35 35 34 32 31 31 30 30 29 29 28 27 27 26 25 23 22 22 21 21 21 21 21 21 22 22 22 21 20 19 19 19
34 34 34 35 36 37 37 37 36 35 35 36 36 34 33 32 31 30 30 30 30 30 29 29 27 26 25 24 23 23 22 22 22 23 23 23 23 23 22 21 20 20
34 34 34 35 35 36 37 36 35 34 34 35 36 35 34 33 32 31 31 31 31 31 31 30 30 28 28 27 26 25 24 24 24 24 24 24 24 24 23 23 22 21
34 35 35 34 35 35 36 35 35 34 34 34 34 34 34 33 33 33 33 33 32 31 32 32 31 31 30 29 28 27 27 26 25 25 25 25 25 25 24 24 23 22
35 35 35 35 35 35 35 36 35 35 35 35 34 33 33 33 34 34 34 33 33 32 32 32 31 31 31 31 30 30 29 28 28 27 27 26 26 26 26 25 25 24
35 34 35 35 34 35 35 36 35 35 35 35 34 34 34 34 34 33 34 34 33 33 33 32 32 33 33 33 33 32 31 31 30 29 29 28 28 28 27 27 27 26
35 35 35 35 35 36 36 36 35 35 34 34 35 35 35 35 34 33 33 34 34 34 34 34 34 35 35 35 35 34 33 32 32 31 31 30 30 29 29 29 29 29
36 36 35 35 36 36 36 36 35 34 34 34 34 35 35 35 34 34 34 35 35 35 35 35 36 37 38 37 36 36 34 33 33 33 32 32 31 31 31 31 31 30
36 36 36 36 36 36 36 36 35 33 33 34 34 34 34 34 34 35 36 36 35 35 36 37 38 39 39 38 38 37 36 34 34 33 33 32 32 32 32 32 31 31
37 36 36 36 36 36 36 36 35 34 35 35 35 35 33 33 35 36 36 36 36 36 37 38 39 39 39 38 38 37 36 35 34 34 33 33 33 33 33 33 32 31
36 36 36 37 37 37 36 35 35 37 37 37 36 34 34 35 36 36 36 37 37 37 38 39 40 40 40 39 38 38 37 36 35 34 34 34 34 34 34 33 33 32
34 35 36 37 37 36 35 36 37 37 37 37 35 34 35 37 37 36 37 37 38 38 38 39 41 42 40 40 39 38 37 35 35 35 35 35 35 35 34 34 34 34
32 34 35 36 36 35 34 35 36 37 37 37 35 34 35 35 35 36 37 37 38 38 37 39 42 42 41 41 41 39 37 35 35 36 36 36 36 36 35 35 35 35
23 29 33 34 33 33 34 36 36 37 37 36 34 34 34 35 36 36 37 37 37 37 38 40 43 43 41 41 41 39 37 36 36 36 36 37 37 37 37 36 36 36
10 17 25 30 31 31 33 35 35 36 36 35 34 35 36 37 37 36 36 36 37 38 39 41 43 43 41 41 40 39 37 37 37 37 36 37 37 37 37 37 37 37
10 9 14 22 28 32 33 33 34 34 34 33 34 36 36 37 36 34 35 36 37 39 39 40 42 42 41 40 40 38 37 37 37 36 36 36 37 37 37 38 38 37
15 12 11 14 20 27 31 32 32 32 31 31 33 35 35 34 34 34 35 36 37 38 38 40 41 42 41 40 39 38 37 37 37 37 37 37 37 37 37 37 37 37

ECMWFNIL_925_spd_069.txt.gz
Wind_Speed
31 31 30 29 28 27 26 26 26 25 23 21 19 18 16 14 13 14 15 15 15 15 14 13 11 10 9 8 8 7 7 6 5 5 5 4 4 3 3 3 3 4
32 31 31 30 29 29 28 27 26 26 25 24 21 19 17 15 14 15 15 15 15 15 15 14 13 12 10 9 9 8 9 8 7 6 5 4 4 4 4 4 3 4
32 32 32 31 30 30 28 27 27 26 25 25 24 22 19 16 15 15 16 16 16 16 16 15 14 13 12 10 10 9 9 10 9 8 6 5 4 4 5 5 4 4
34 33 33 31 30 30 29 28 28 26 25 25 25 23 20 18 16 16 16 16 16 16 16 16 15 14 13 12 11 10 10 10 11 11 10 8 7 6 6 6 6 5
35 35 33 32 31 30 30 29 28 27 26 25 25 25 23 20 17 17 17 16 15 15 16 16 16 15 15 13 12 12 11 10 11 13 13 11 10 8 7 7 7 7
35 35 35 33 32 31 31 30 30 29 27 26 25 26 24 22 19 18 18 17 16 15 15 16 16 16 16 15 14 13 12 11 11 13 14 12 11 9 8 9 9 8
35 35 35 34 32 32 31 31 30 30 29 27 26 26 26 25 22 20 19 19 17 17 16 16 15 16 16 16 16 15 15 13 13 14 14 13 12 11 11 11 11 11
31 32 34 34 32 31 31 31 31 31 30 28 27 27 27 26 25 23 22 20 20 19 18 17 17 16 16 17 17 17 17 15 14 15 15 14 14 14 13 13 13 13
27 28 30 32 30 29 29 29 29 30 31 30 28 27 27 28 27 26 24 23 22 22 21 20 19 18 17 18 18 18 18 16 15 16 16 16 15 15 14 14 14 15
25 25 26 28 27 26 27 27 25 26 30 31 28 26 27 28 28 27 27 25 24 24 23 22 22 21 20 19 19 18 18 18 17 17 17 17 17 16 15 15 16 16
24 25 24 25 26 25 26 26 24 23 27 30 28 26 27 28 28 28 28 27 26 25 24 23 23 22 21 21 20 20 20 19 19 19 19 19 19 18 18 17 18 18
24 24 24 25 26 26 25 25 25 24 25 29 29 28 28 28 29 29 30 29 29 28 26 24 23 23 23 22 22 22 22 22 22 21 21 21 21 20 20 20 20 20
25 25 25 25 26 27 27 25 25 25 25 26 29 30 29 28 29 30 32 31 31 30 28 27 25 25 25 25 24 24 24 24 24 24 24 23 23 23 22 21 21 21
26 25 25 26 27 28 29 27 25 25 25 25 27 30 31 30 30 31 32 33 32 32 31 29 28 27 27 27 27 26 26 26 26 26 25 25 25 25 24 23 23 22
25 24 24 27 29 30 32 30 27 27 28 27 29 31 31 30 30 30 31 33 33 33 33 32 31 31 31 30 30 29 29 28 28 28 27 27 27 26 25 25 25 24
28 30 29 29 32 33 34 34 30 28 29 31 32 32 31 31 31 30 30 31 32 34 34 33 33 34 34 34 32 32 31 30 30 30 30 29 29 28 27 27 26 26
30 33 32 32 34 35 35 35 33 30 30 33 33 32 32 33 32 32 31 29 29 32 33 33 35 37 37 37 35 34 33 32 32 32 32 32 31 31 30 29 27 26
30 30 31 33 34 35 35 35 33 31 31 32 32 32 33 33 31 32 34 31 28 29 30 31 35 38 39 38 37 37 35 34 33 32 32 32 32 32 32 30 28 26
29 28 30 32 33 34 35 34 33 32 32 31 31 30 31 33 33 33 35 33 30 29 30 30 32 37 40 39 38 38 37 36 35 34 33 32 32 33 32 31 31 29
26 27 28 30 33 34 33 32 32 33 33 29 27 27 29 34 35 32 33 36 34 33 33 32 31 35 39 39 39 39 38 37 36 37 36 34 33 33 33 33 33 32
18 25 27 28 31 32 31 32 32 34 33 29 25 24 28 34 34 30 32 36 37 35 34 32 33 36 38 38 39 38 38 37 36 37 38 37 36 36 36 35 35 34
7 15 22 26 27 27 28 29 31 34 36 32 27 24 24 28 30 30 30 33 35 34 32 32 35 37 37 39 39 38 37 36 36 37 38 38 38 38 38 38 37 35
10 9 11 17 22 24 26 28 29 33 34 30 27 25 24 24 26 28 29 30 31 32 34 36 39 39 39 39 39 38 36 36 37 38 39 39 39 39 39 39 38 38
12 10 10 11 15 20 25 27 27 28 28 26 26 26 26 25 25 25 27 27 28 31 34 37 39 39 39 39 39 38 37 37 38 38 38 39 40 40 40 40 39 39
15 12 11 10 12 16 21 25 25 24 23 23 24 25 26 25 24 23 24 26 27 29 33 36 35 35 36 38 38 38 37 38 38 38 38 38 38 37 36 37 40 40
17 15 12 11 12 13 16 20 24 25 23 22 23 24 25 24 24 24 24 25 26 27 29 32 33 32 33 36 38 37 37 38 38 38 39 39 36 32 30 30 34 39

ECMWFNIL_925_spd_072.txt.gz
Wind_Speed
18 17 17 17 16 15 14 14 14 14 13 12 11 11 10 9 8 8 8 8 9 9 9 9 9 8 7 7 7 6 6 6 5 5 5 5 4 4 5 4 4 4
19 18 17 17 16 15 15 14 14 14 14 13 12 10 10 10 9 9 9 9 9 9 10 10 10 9 9 8 8 7 7 7 7 7 6 5 5 5 5 5 5 4
19 19 18 18 17 16 16 15 14 14 14 13 13 12 11 11 10 10 10 9 10 10 10 11 10 10 10 9 8 8 7 8 8 8 6 6 6 5 5 5 5 5
21 20 19 18 17 16 16 16 15 15 14 14 14 13 13 12 11 11 10 10 10 10 10 11 11 11 11 10 9 8 8 8 9 8 7 7 7 6 6 6 5 5
21 20 19 18 17 17 16 16 16 16 15 15 14 14 14 13 13 11 11 11 11 11 11 12 12 11 11 11 10 10 9 9 9 9 9 9 8 7 7 6 6 6
20 20 19 18 17 17 17 17 17 16 16 16 15 14 14 14 15 14 12 12 11 11 11 12 12 12 12 11 11 11 10 9 9 9 10 10 9 9 8 7 6 7
19 19 20 19 18 18 18 17 17 17 16 16 15 15 15 15 15 15 14 13 12 12 12 12 12 12 12 12 12 12 11 11 10 9 10 10 10 10 9 8 8 8
19 19 20 20 19 19 19 18 17 17 17 16 16 16 16 16 15 15 15 15 14 13 13 13 13 12 12 12 12 13 12 12 11 11 11 11 10 10 10 10 9 9
19 19 19 21 21 20 20 19 18 18 17 18 18 17 16 16 16 16 16 16 15 15 14 14 14 13 13 13 13 13 13 13 12 11 11 11 11 11 11 10 10 10
20 20 19 20 21 21 20 20 19 18 18 19 19 18 17 17 17 17 16 16 16 16 15 15 15 15 14 14 14 14 14 14 13 12 12 12 12 11 11 11 11 11
20 20 20 20 21 21 21 21 20 19 18 19 19 18 18 17 17 17 17 17 18 17 17 17 16 16 15 15 15 15 14 14 14 13 13 12 12 12 11 11 11 11
20 20 20 21 21 21 21 21 20 20 19 19 19 19 19 18 18 17 18 19 19 19 18 18 17 17 17 16 16 16 15 15 14 14 14 13 13 12 12 12 12 12
18 19 19 20 20 20 20 20 20 20 20 19 19 19 20 20 19 19 19 19 20 19 19 18 18 18 18 18 17 17 16 16 16 15 15 14 14 14 13 13 13 12
17 17 18 19 19 19 20 20 20 20 20 20 19 19 20 20 20 20 20 20 20 20 20 19 19 19 19 19 19 18 18 17 17 17 16 16 15 15 14 14 14 14
16 16 17 18 19 19 20 20 20 19 20 20 19 19 20 20 20 20 20 20 20 20 21 20 20 20 20 20 20 19 19 19 18 18 18 17 17 16 16 16 15 16
17 17 17 18 19 20 20 20 20 20 19 20 21 20 20 20 20 20 21 21 20 21 21 21 22 22 22 23 23 22 20 19 19 19 18 18 18 18 17 17 17 17
17 18 19 19 19 20 20 20 20 20 20 20 21 21 21 20 20 21 22 21 21 21 21 22 23 23 24 27 29 28 25 21 19 18 18 18 19 19 19 19 19 19
18 17 19 20 20 20 20 20 20 20 21 21 21 22 22 21 21 22 23 23 22 22 22 23 23 24 26 29 32 33 32 28 23 19 19 19 19 19 20 19 19 19
17 17 19 20 21 21 20 20 20 21 22 22 22 22 22 22 23 23 23 23 23 23 24 24 24 25 27 31 33 34 35 33 29 24 22 21 20 20 20 20 19 19
15 18 20 20 21 21 21 21 21 22 23 22 22 22 22 23 24 23 23 24 24 25 25 25 25 25 27 30 33 34 34 34 33 30 26 24 23 22 21 21 20 20
10 14 18 20 20 21 21 22 22 22 23 22 21 21 21 22 23 23 23 24 24 25 25 25 26 26 28 30 32 34 33 33 33 33 29 26 25 25 24 23 22 22
10 11 13 15 18 20 22 23 23 23 23 22 21 21 21 21 22 22 23 24 25 25 24 25 26 27 29 31 33 34 33 31 33 33 30 28 26 26 26 25 25 24
12 12 11 12 14 17 20 23 24 24 23 21 21 21 21 21 21 21 21 22 23 24 25 26 26 27 29 32 33 33 33 32 33 32 29 27 27 27 27 26 26 26
13 13 13 13 13 15 19 21 22 22 20 19 19 21 21 21 21 21 21 21 23 24 26 26 26 26 29 31 33 33 33 34 33 29 25 25 26 27 27 27 28 30
12 13 13 13 13 15 17 17 16 16 16 16 17 18 19 20 20 21 21 21 22 23 25 26 26 25 27 30 32 33 33 35 33 28 24 25 25 24 26 26 27 30
13 12 12 13 13 13 14 13 12 15 18 18 19 19 19 21 21 21 21 22 22 22 23 25 26 26 26 29 31 32 33 35 34 29 26 26 24 23 24 25 25 26

ECMWFNIL_925_spd_075.txt.gz
Wind_Speed
17 16 16 15 14 13 13 13 13 13 13 12 11 11 11 10 9 10 9 9 9 9 8 8 7 7 6 6 7 6 5 5 6 5 5 4 5 5 4 4 4 3
18 17 16 16 15 14 13 13 13 13 13 12 11 10 11 11 11 11 10 10 10 10 10 9 9 9 8 7 8 8 7 7 7 6 5 5 5 4 4 4 4 3
19 18 18 17 16 15 15 14 14 13 14 13 12 11 10 12 12 11 11 10 10 10 11 11 10 10 9 9 8 9 9 8 7 6 5 5 6 5 4 4 4 4
20 19 18 17 16 16 15 15 14 14 14 14 14 12 11 11 12 12 12 11 11 11 11 11 11 11 11 10 10 10 9 8 8 7 6 5 6 5 5 4 4 4
20 19 18 17 16 17 16 16 16 15 15 14 14 14 13 12 12 12 13 12 12 11 11 12 12 11 11 11 11 10 10 8 8 8 7 6 6 6 6 5 5 5
20 20 19 17 17 17 17 17 17 16 16 16 15 15 14 14 14 13 13 13 13 13 12 13 12 12 12 11 11 11 10 9 8 9 9 8 7 7 6 5 5 5
20 20 20 19 18 18 18 18 17 17 17 16 16 16 15 15 15 15 14 14 14 13 13 13 13 13 12 12 12 12 11 10 9 8 9 9 8 8 7 7 6 6
18 19 20 20 19 19 19 18 18 19 18 17 17 17 17 16 16 16 16 15 14 14 14 14 13 13 13 12 12 12 12 11 10 10 10 9 9 9 9 8 8 8
16 17 18 20 20 20 20 20 19 19 19 19 19 18 18 18 17 17 17 17 16 15 15 14 14 14 14 13 13 13 13 12 11 11 11 11 10 10 10 10 9 10
16 17 18 19 20 20 20 20 20 20 20 20 20 19 19 19 18 17 17 18 18 17 16 16 15 15 14 14 14 13 13 13 12 12 11 11 11 11 11 11 11 11
17 18 18 19 20 21 21 21 20 20 20 20 20 20 19 19 19 19 18 18 19 18 18 18 17 16 16 16 15 14 14 14 14 13 13 12 12 12 11 11 12 12
17 19 19 19 21 21 21 21 21 21 21 21 20 20 20 20 20 20 20 20 20 19 19 19 18 18 18 17 17 16 15 15 15 14 14 14 14 13 13 13 13 13
17 17 17 18 20 22 21 21 21 21 21 21 21 21 21 21 21 21 21 21 21 21 20 20 20 19 19 19 18 17 17 16 16 16 15 15 15 14 14 14 14 14
16 18 18 18 21 23 22 20 20 21 21 21 21 21 21 22 22 22 21 21 21 22 21 21 20 20 20 20 20 19 18 18 17 17 17 17 16 16 15 15 15 15
14 17 18 19 21 21 20 19 20 20 21 21 22 22 22 22 22 22 22 22 22 22 22 21 21 21 21 21 21 20 20 19 19 19 19 18 17 17 17 16 16 16
13 14 14 15 17 18 18 19 20 20 21 21 22 22 22 21 21 22 22 22 22 22 22 22 22 22 23 24 23 21 20 20 20 20 20 20 19 18 18 18 18 18
13 14 14 15 15 15 16 17 19 20 21 21 21 21 21 21 21 21 22 22 22 22 23 23 23 23 24 26 26 25 22 20 20 20 20 20 20 20 20 19 19 20
11 11 12 14 14 14 14 14 16 17 18 20 22 22 22 22 22 22 22 22 22 23 23 23 23 24 25 27 28 29 28 24 21 20 21 21 21 21 21 21 21 21
10 10 11 12 13 15 14 13 15 17 19 20 21 21 22 22 22 22 22 23 23 23 23 23 23 24 25 27 28 30 31 30 27 23 21 22 22 21 22 22 22 22
12 11 10 11 13 15 16 16 17 18 20 23 23 20 20 22 23 23 22 23 23 23 23 23 24 24 25 28 30 31 32 33 32 29 25 23 23 23 22 22 22 22
13 12 12 12 10 10 13 16 18 18 18 20 23 24 21 19 20 22 22 22 23 23 23 24 25 25 25 26 28 31 32 33 34 33 29 25 24 25 25 24 24 23
14 13 13 14 13 10 10 12 15 16 17 17 19 24 26 22 17 17 19 21 21 23 23 24 26 26 27 28 28 29 30 31 34 34 30 26 24 25 26 27 26 26
16 15 12 12 13 12 11 11 12 14 17 18 18 22 24 23 20 19 20 21 22 24 24 24 25 26 27 29 30 29 29 30 33 32 28 26 25 25 25 26 27 29
14 14 12 12 12 12 12 12 12 11 13 16 20 24 25 24 25 26 25 23 23 24 25 25 25 25 27 29 30 31 31 31 32 30 25 24 25 25 25 25 27 30
14 14 13 12 13 14 13 12 13 12 12 13 18 22 24 23 24 26 28 28 25 24 25 26 26 25 26 28 30 31 32 33 33 28 24 24 24 23 23 24 26 29
14 14 13 13 14 16 15 15 17 18 17 16 17 18 19 20 21 23 25 27 27 25 25 26 27 27 27 28 30 31 32 34 33 28 24 24 23 21 21 22 23 25

ECMWFNIL_925_spd_078.txt.gz
Wind_Speed
18 17 17 15 15 14 14 15 14 13 13 12 12 11 11 11 12 12 12 12 12 10 10 9 8 8 7 7 6 6 6 5 5 6 5 4 5 4 3 4 4 3
19 18 18 17 16 16 15 16 15 15 15 14 12 12 12 11 11 12 12 12 12 11 10 10 10 10 8 7 8 6 5 5 5 5 5 4 5 5 4 5 4 4
20 19 19 18 17 17 16 16 16 16 15 15 13 12 13 13 12 13 13 12 11 11 11 10 9 9 9 8 8 8 7 7 7 5 5 5 6 5 3 4 5 4
20 19 19 18 17 17 16 16 17 17 16 16 15 14 12 13 14 14 13 13 12 11 11 11 10 9 9 9 9 9 9 9 8 7 7 7 7 6 5 5 5 4
20 20 19 19 18 18 17 17 17 17 17 16 17 16 14 13 15 15 14 14 13 12 12 12 11 11 10 10 10 9 8 8 8 9 9 8 7 7 6 6 4 3
19 20 20 20 19 19 19 18 17 17 17 17 17 17 16 14 15 15 15 15 14 13 13 12 12 12 11 11 12 10 9 9 9 10 11 10 8 7 7 6 5 5
17 18 19 20 20 20 20 19 19 18 18 17 17 17 17 16 16 16 16 16 15 14 14 14 14 13 12 13 13 12 11 10 10 11 11 10 10 9 8 7 7 6
20 18 19 20 20 20 21 20 21 21 19 18 18 18 18 18 18 17 16 16 15 15 15 15 15 15 14 13 14 13 12 11 11 11 11 10 10 10 9 8 8 7
23 21 21 22 21 21 21 20 20 20 20 19 18 18 18 18 18 18 18 17 16 16 15 15 16 16 15 14 14 14 14 13 12 12 12 12 11 11 10 10 10 9
22 22 23 23 22 21 20 20 20 19 20 20 19 18 19 19 18 17 18 19 18 16 16 16 15 16 16 16 15 15 15 14 14 13 13 13 13 12 12 11 11 11
21 22 24 24 23 21 19 19 19 19 19 20 19 18 18 19 20 18 17 19 20 18 17 17 16 16 16 16 16 16 16 15 15 15 14 13 13 13 13 13 12 12
24 24 24 24 24 23 21 20 20 19 19 19 20 19 18 18 20 20 19 18 19 20 18 18 19 17 17 17 16 16 16 16 16 16 15 15 15 14 14 13 13 13
25 25 25 23 21 21 20 18 18 18 19 20 20 19 19 18 18 20 21 20 19 20 19 19 19 19 19 19 18 17 17 17 17 16 17 16 16 16 15 15 15 15
22 19 20 18 17 18 19 19 18 17 18 19 21 21 19 19 19 19 21 21 20 20 20 19 20 21 20 20 20 19 18 18 18 18 17 17 17 17 16 16 16 16
14 9 8 8 8 8 9 10 13 15 15 14 17 20 20 19 19 19 19 21 21 20 20 20 20 20 21 21 21 21 20 19 19 19 19 19 18 18 18 18 18 17
9 10 9 10 12 13 13 12 9 11 13 13 13 15 18 20 20 19 19 19 21 21 21 21 20 20 21 23 23 22 22 21 20 20 21 20 20 20 20 20 19 19
13 13 12 12 12 10 11 13 14 13 11 12 12 12 11 15 18 19 19 19 20 21 21 21 21 21 22 24 25 25 24 22 22 22 22 22 22 22 21 21 20 20
15 12 14 15 13 9 8 10 12 13 11 12 14 15 13 10 12 15 17 19 19 20 21 22 22 23 24 25 26 28 27 26 24 23 22 23 23 23 23 22 22 22
16 15 16 16 10 5 5 8 10 11 11 10 13 17 18 15 14 15 16 17 18 19 20 21 22 24 25 27 28 29 30 30 28 25 23 23 23 24 24 24 24 23
16 15 14 13 10 7 6 8 9 9 11 11 11 16 19 19 19 20 20 20 21 21 21 21 22 23 24 26 29 30 31 32 33 31 28 25 24 24 24 25 25 25
16 15 12 11 11 10 7 5 5 6 8 11 13 15 18 21 21 21 22 23 24 23 22 22 23 24 23 24 27 30 32 33 34 34 33 30 28 26 24 24 24 25
15 15 12 11 12 10 7 6 7 6 6 9 12 14 17 20 22 23 23 23 24 25 26 25 24 24 25 25 25 27 30 33 36 36 35 33 32 31 29 28 26 26
11 12 11 9 10 9 7 8 10 9 8 9 11 12 14 16 20 23 25 25 25 26 28 29 27 26 26 27 27 27 27 31 35 36 35 33 32 32 32 31 31 31
6 8 9 8 9 9 8 8 8 9 9 10 11 12 13 14 16 18 20 21 23 24 26 28 27 26 25 27 28 28 28 30 33 34 33 32 31 30 30 31 32 32
6 7 9 9 9 9 9 8 8 9 9 10 11 13 15 16 15 16 17 18 18 20 23 24 24 24 24 25 27 28 28 29 30 31 31 30 29 28 28 29 31 32
7 8 10 11 10 10 11 10 9 10 10 10 10 12 15 17 17 16 17 18 18 18 19 21 24 25 23 22 24 26 28 29 29 30 30 29 28 26 26 27 28 29

ECMWFNIL_925_spd_081.txt.gz
Wind_Speed
21 19 18 16 17 18 17 18 18 17 16 16 16 15 15 14 12 14 14 13 14 13 10 10 10 10 9 9 9 9 9 8 7 6 6 4 4 4 4 4 4 4
21 20 19 17 16 17 17 17 17 18 17 16 16 15 15 14 13 14 14 14 14 13 11 10 10 11 10 9 9 9 9 8 8 7 7 6 3 3 4 4 3 3
21 21 21 20 18 18 17 17 17 18 17 16 15 15 15 15 13 14 15 14 14 14 12 11 11 11 10 9 9 9 9 8 8 8 7 7 5 4 4 4 4 4
22 22 21 21 20 19 17 17 17 18 18 18 17 15 16 16 14 14 15 15 14 14 14 12 11 11 11 11 10 9 9 8 8 8 8 7 6 6 5 4 4 4
24 22 22 21 21 20 19 18 18 18 18 18 18 16 15 17 16 14 15 16 14 13 15 15 12 11 11 12 12 10 9 8 8 9 9 7 7 7 6 5 4 3
24 23 22 21 20 19 20 20 19 19 19 18 18 17 16 16 17 17 17 17 15 14 15 16 14 13 12 11 11 11 9 8 8 8 9 8 7 7 6 5 5 5
22 24 22 21 20 20 20 21 20 19 19 18 18 18 18 16 16 18 19 17 16 15 15 15 15 14 14 13 12 11 10 9 8 8 9 9 8 8 8 8 7 6
19 22 24 22 20 19 19 20 20 19 19 20 19 18 19 18 17 18 19 18 17 17 16 16 16 15 15 14 14 13 12 11 10 10 10 10 10 10 9 9 8 8
19 19 23 23 22 21 19 19 20 20 19 19 19 19 19 19 19 19 18 18 18 18 17 17 18 18 16 15 16 15 13 12 12 12 12 11 12 12 10 10 9 9
19 19 20 20 18 13 10 11 15 19 21 20 19 20 20 20 20 21 20 18 19 19 18 17 18 18 18 17 16 16 16 14 12 13 14 13 13 13 12 12 11 10
7 7 8 8 5 5 10 9 9 11 16 21 21 20 20 21 21 21 22 21 20 20 19 18 18 18 19 19 17 16 16 15 13 13 14 14 14 14 13 12 12 12
6 1 1 6 8 7 10 12 11 11 13 16 23 23 20 21 23 23 22 23 23 22 21 20 18 17 17 18 19 17 16 16 15 14 14 14 15 14 13 13 13 14
8 5 3 7 11 13 14 15 17 15 11 13 17 25 24 22 24 26 25 24 23 24 24 23 21 20 19 18 19 18 17 17 17 16 16 16 16 16 16 15 15 15
6 6 5 6 9 14 16 15 16 18 15 12 14 20 28 26 23 26 28 27 25 24 24 24 23 24 23 22 20 19 19 19 19 19 19 18 18 19 19 18 18 18
5 3 2 3 5 9 13 15 13 13 16 14 13 13 22 25 23 24 26 29 28 25 25 25 25 25 25 25 25 24 23 22 21 20 20 20 20 20 20 20 20 19
10 7 5 3 1 3 6 9 10 10 14 15 12 10 13 17 19 19 21 27 30 28 26 26 26 25 25 26 27 27 26 26 25 24 21 21 22 22 21 21 21 21
11 9 7 6 4 2 3 6 7 9 13 14 13 11 11 11 14 14 13 18 26 30 30 28 28 27 26 26 27 28 28 28 28 28 26 24 23 24 24 23 23 23
11 10 9 8 6 4 0 4 7 10 12 13 12 12 11 10 11 11 10 10 14 21 25 27 28 28 27 27 26 27 29 29 29 29 28 27 26 26 26 26 25 25
12 11 12 11 8 5 3 3 5 7 8 8 8 8 10 11 11 12 13 12 11 12 14 17 20 22 24 26 26 27 28 30 31 30 29 29 29 28 27 27 27 27
13 11 13 14 11 7 4 5 7 5 5 5 5 7 8 10 12 14 15 15 15 14 14 14 14 14 16 19 24 28 30 31 32 32 31 31 30 30 29 28 28 29
12 11 12 13 12 9 6 5 6 4 3 3 5 6 7 9 12 14 15 15 16 17 18 19 19 17 15 14 16 20 25 31 35 35 34 33 32 31 31 30 30 30
12 10 10 10 10 9 7 7 6 5 4 4 5 6 7 9 11 12 13 15 15 16 18 20 22 22 21 19 17 17 18 22 30 36 36 34 34 33 32 31 30 29
9 8 8 6 5 5 6 6 6 6 6 5 6 6 7 8 10 12 12 13 14 15 16 18 20 20 21 22 21 20 18 18 21 29 33 34 35 35 34 33 32 31
8 8 6 5 5 6 7 6 6 6 5 5 6 6 6 7 9 11 12 12 12 13 13 14 15 15 17 20 22 23 23 22 21 23 26 30 34 35 36 36 35 35
7 8 8 8 9 10 9 9 9 8 8 7 8 8 7 7 8 10 11 11 11 11 11 11 12 14 18 22 23 24 26 29 28 26 25 27 30 32 34 36 37 37
7 8 9 10 12 13 13 12 11 10 10 10 10 10 9 9 8 9 10 11 10 10 10 12 16 19 22 22 21 22 24 25 26 26 27 29 30 30 31 33 35 36

ECMWFNIL_925_spd_084.txt.gz
Wind_Speed
24 20 20 20 19 20 20 17 17 18 18 18 18 17 16 14 13 13 12 12 11 11 9 9 10 10 11 11 10 9 9 9 8 6 6 6 6 7 7 7 6 6
27 23 20 19 19 21 21 19 18 17 17 17 16 16 15 14 14 14 12 12 12 12 10 9 10 11 11 11 10 10 10 10 9 7 7 7 6 6 7 7 7 7
27 25 21 19 19 20 19 19 18 18 17 16 15 15 15 14 14 14 13 13 13 13 12 10 10 11 11 11 10 10 11 11 10 9 10 10 8 7 7 7 7 7
27 26 22 19 19 19 18 18 18 17 17 17 16 15 16 16 14 14 14 14 14 13 13 12 11 10 11 11 10 10 11 12 11 10 11 11 10 9 8 7 7 7
25 25 23 21 19 18 17 18 18 17 17 18 18 16 16 17 17 16 15 15 15 14 13 13 11 10 11 12 12 11 11 11 11 10 11 11 10 10 9 8 8 7
23 23 23 21 20 19 18 18 17 17 17 17 17 18 17 17 18 18 16 16 16 16 15 14 13 11 10 11 13 13 12 11 10 10 11 12 11 11 10 9 9 8
19 20 21 21 21 20 19 19 18 18 17 17 17 18 19 18 18 19 18 17 17 17 17 15 15 14 12 11 12 13 12 11 11 10 10 11 10 10 10 10 10 10
16 19 20 19 20 21 21 20 20 19 18 18 18 18 18 19 18 19 20 19 18 18 18 17 16 17 15 13 13 13 13 12 11 11 11 10 10 11 10 10 10 11
17 19 21 20 18 20 21 21 21 21 21 20 20 19 18 19 20 19 20 21 21 19 19 18 18 18 17 16 16 16 15 14 13 12 13 12 12 12 11 10 10 11
19 17 19 19 17 18 20 20 20 21 22 22 21 20 20 20 21 21 20 21 22 22 20 20 20 20 20 19 18 17 17 16 15 14 14 14 14 13 12 11 11 12
21 19 18 18 19 20 20 19 18 18 21 22 21 21 21 21 22 23 22 22 23 23 22 22 21 20 21 22 22 20 18 17 16 16 15 15 16 15 14 14 14 14
19 19 18 17 20 22 21 20 18 17 18 20 20 20 20 22 23 24 25 25 25 24 23 22 21 21 21 22 23 23 21 19 18 18 17 16 16 17 16 15 16 15
15 14 12 13 16 19 20 20 20 20 19 19 20 20 19 19 22 26 27 26 26 26 25 23 22 22 22 22 23 24 24 23 21 20 20 19 18 18 18 17 17 17
14 13 11 11 13 15 17 18 19 19 20 20 20 19 18 17 19 24 27 28 27 26 26 25 23 23 23 23 22 22 23 25 24 23 22 21 20 20 20 20 20 19
12 14 14 14 13 13 15 17 17 17 17 19 19 18 17 17 18 22 25 28 29 28 28 27 26 26 25 24 24 23 23 24 25 25 24 23 23 23 23 23 22 22
10 11 11 11 11 10 11 12 14 14 15 17 18 17 15 14 15 19 23 27 28 29 30 29 28 28 27 26 26 26 26 25 25 26 25 24 24 25 26 26 25 24
9 8 7 7 8 8 7 8 9 11 14 16 18 17 14 11 10 13 18 23 25 28 30 30 30 29 28 28 28 27 28 28 27 27 27 27 26 27 27 28 27 27
9 7 6 5 5 5 6 7 7 8 10 13 15 15 12 11 10 9 12 15 18 22 26 28 28 28 28 28 29 28 28 28 28 29 29 29 29 29 29 29 29 29
8 7 5 3 3 4 4 5 5 5 6 7 9 11 11 11 11 10 9 10 12 14 17 21 23 25 26 26 27 27 28 28 29 29 30 31 31 30 30 30 30 30
8 7 5 3 2 2 2 2 2 2 2 1 3 5 7 8 9 9 9 9 9 10 12 14 17 19 22 24 25 25 26 27 30 31 32 32 32 31 31 31 31 31
7 6 6 5 5 5 3 2 2 3 3 3 2 1 2 4 5 7 8 8 9 9 10 12 14 16 18 20 22 22 22 24 27 29 31 33 34 34 33 33 32 32
6 5 5 6 7 7 6 5 4 3 3 3 3 2 2 1 1 5 7 7 8 8 10 12 15 17 18 19 20 20 20 21 22 23 25 27 31 33 35 35 35 34
7 7 7 8 9 9 8 7 6 5 5 4 4 4 3 3 3 5 7 7 7 8 10 13 15 16 16 16 16 16 17 18 19 21 22 24 26 28 31 34 36 36
10 10 9 9 10 11 10 10 9 8 7 7 6 6 6 5 5 6 8 7 6 7 9 12 15 14 12 12 13 14 15 16 17 19 22 24 26 26 27 29 32 34
10 11 11 11 12 12 12 12 12 11 10 9 9 8 8 8 7 7 10 10 8 8 9 11 13 13 11 12 13 14 16 17 17 18 20 22 24 25 25 27 28 30
11 12 12 13 13 14 13 13 13 13 13 12 12 11 11 10 9 9 11 13 11 9 10 11 13 14 14 14 14 15 16 17 18 20 21 22 24 24 25 26 27 28

ECMWFNIL_925_spd_087.txt.gz
Wind_Speed
19 20 21 19 18 18 18 17 16 15 16 17 18 17 15 13 12 12 12 12 11 10 9 10 10 9 9 9 9 9 8 7 6 6 6 6 6 6 7 6 6 7
21 20 20 19 18 18 18 17 16 15 14 16 17 16 15 14 12 12 12 12 11 10 10 10 9 9 9 9 10 10 9 8 7 7 7 6 5 6 6 6 6 7
23 21 20 19 18 18 17 17 17 16 14 15 16 15 14 14 13 13 12 12 12 11 10 11 10 9 9 9 10 10 10 9 8 8 8 7 7 8 7 6 7 7
25 23 22 20 18 17 17 17 18 17 16 16 16 15 14 14 14 14 13 13 13 12 11 12 11 10 9 10 11 11 11 10 9 9 9 9 9 9 8 7 7 7
26 25 23 22 19 16 16 17 18 19 18 18 17 16 16 15 15 15 15 15 15 14 13 13 13 12 11 10 11 12 11 11 10 10 10 10 10 10 9 9 8 8
26 25 24 24 22 19 17 17 18 18 19 18 17 17 17 17 16 16 17 16 16 15 15 15 14 13 12 11 11 12 12 12 10 10 11 11 11 10 10 10 10 9
25 24 24 24 24 22 19 18 18 17 18 18 17 17 18 18 18 17 17 17 17 17 17 16 15 14 13 13 12 12 12 12 11 10 11 11 11 11 11 10 10 10
24 23 23 23 23 22 20 19 18 18 17 17 18 18 18 18 19 18 18 18 18 19 18 17 16 15 14 14 14 13 12 12 12 11 11 11 11 11 11 10 10 11
25 24 24 23 23 23 22 20 20 19 19 19 19 18 18 18 19 19 19 19 19 19 19 19 18 17 16 16 16 15 14 13 13 12 12 12 12 13 11 10 10 11
26 25 25 25 24 23 23 22 21 21 21 21 20 20 20 20 20 19 20 20 20 19 20 20 19 18 17 17 17 17 16 15 14 14 14 13 14 14 13 12 12 12
25 24 25 25 25 24 23 22 21 21 21 21 22 22 23 22 21 20 20 21 21 21 20 21 20 19 19 19 18 18 18 17 16 16 15 15 15 15 14 14 14 14
25 24 23 23 24 24 23 21 20 20 21 21 21 22 23 24 23 23 22 22 22 22 21 21 21 21 20 20 19 19 19 19 19 18 17 17 16 16 15 15 15 16
25 25 23 22 21 21 21 20 20 20 20 19 18 18 20 22 23 24 24 23 23 23 23 22 22 23 23 22 21 20 20 20 21 21 20 19 18 17 17 17 17 17
21 21 20 19 19 19 19 19 21 21 20 19 18 16 17 18 19 21 22 23 24 24 24 24 24 25 25 24 23 22 22 22 22 22 22 22 21 20 19 18 18 18
15 17 16 15 15 14 15 16 18 19 19 19 19 19 19 18 18 19 20 22 23 24 25 26 27 28 27 26 25 24 24 24 23 23 22 22 22 22 21 20 19 19
11 13 13 13 12 11 11 12 14 16 17 17 18 19 20 21 21 20 20 22 23 23 23 25 28 29 29 27 26 26 26 25 25 24 23 23 23 23 23 23 22 21
6 8 8 8 8 9 9 9 10 12 14 16 16 17 19 21 21 20 20 21 23 24 24 24 27 29 29 29 28 27 27 27 26 26 24 24 24 24 24 25 24 24
8 6 4 4 4 5 5 5 6 7 9 11 13 15 17 18 19 19 18 18 19 22 23 24 25 26 27 29 29 29 29 28 28 27 27 26 26 26 26 26 26 27
11 9 7 7 5 3 3 4 5 4 4 6 8 10 12 14 16 16 16 16 16 17 19 22 24 25 25 27 28 29 29 28 28 28 28 28 28 28 28 28 28 28
11 10 9 8 7 5 3 2 3 3 2 1 4 6 7 8 10 11 12 12 13 13 13 15 17 19 22 24 25 27 28 27 27 27 28 29 29 29 29 29 29 29
12 12 12 11 9 8 6 4 3 2 2 1 2 3 3 2 3 5 7 8 9 9 9 9 9 10 12 15 18 21 23 24 25 26 27 28 29 29 29 30 30 30
12 12 13 12 11 11 10 8 6 5 4 3 5 6 5 4 2 2 3 4 5 6 6 6 5 4 5 7 10 14 17 19 21 22 24 26 27 28 28 28 29 29
13 13 13 13 12 11 11 10 9 8 7 7 7 8 7 7 7 6 6 6 5 3 3 3 3 4 4 4 7 10 13 16 18 19 21 22 23 24 24 24 25 26
13 13 12 12 12 12 11 10 9 9 9 8 8 8 6 5 6 8 9 9 8 5 4 6 5 4 5 5 4 8 12 16 17 17 18 20 21 21 21 21 22 23
12 12 12 12 12 12 11 11 10 10 10 9 8 8 7 5 5 5 7 8 8 5 6 8 8 7 7 6 4 5 11 15 18 17 17 18 18 18 18 18 18 18
12 12 12 12 12 12 11 11 10 10 10 10 10 10 10 8 8 7 8 8 7 6 6 8 9 9 9 8 6 6 9 15 18 18 17 17 17 17 17 17 17 17

ECMWFNIL_925_spd_090.txt.gz
Wind_Speed
22 19 16 16 16 17 17 16 14 13 12 12 12 13 13 12 10 9 9 9 9 8 7 7 8 8 8 7 7 7 7 6 5 5 5 5 4 4 3 3 2 3
23 20 17 16 17 17 17 17 16 15 13 12 11 11 12 13 12 10 10 9 9 9 8 8 8 8 8 8 8 8 8 8 7 7 6 5 5 5 4 3 2 3
24 20 18 17 18 18 17 16 16 16 15 13 12 11 11 12 12 11 10 9 9 9 9 8 8 8 8 8 9 9 9 9 9 8 7 6 6 6 5 4 4 3
25 21 19 18 18 18 17 16 16 16 15 14 13 11 11 11 11 11 11 10 10 9 9 9 8 9 9 8 9 10 10 10 9 9 8 8 8 7 7 6 6 5
27 23 21 20 19 18 17 17 16 16 16 15 14 13 12 11 11 11 10 10 10 10 10 10 10 10 9 9 10 10 10 11 10 10 10 9 9 8 8 7 7 6
27 25 23 22 20 19 19 18 17 17 16 15 14 14 13 13 12 12 12 11 11 11 11 11 11 11 11 10 10 10 11 11 11 10 11 10 9 9 8 8 8 7
28 27 25 23 22 21 21 20 19 17 16 15 14 15 14 14 14 13 13 12 12 12 12 12 12 12 11 11 11 11 11 11 11 11 11 11 10 9 9 8 9 9
28 27 26 24 23 23 22 22 20 18 15 14 14 14 14 15 15 14 14 14 13 12 12 13 13 13 12 12 12 12 12 11 11 12 12 11 10 10 9 8 9 9
27 26 26 25 24 24 23 23 22 19 16 15 15 14 14 15 15 15 14 14 14 13 13 13 14 14 14 14 13 13 13 12 12 12 12 11 11 11 9 9 9 9
26 25 25 25 24 24 23 23 23 21 19 17 17 16 16 16 16 16 15 15 15 15 15 14 14 14 14 15 15 14 14 14 13 13 13 12 12 11 10 10 10 11
24 24 24 24 24 23 22 22 22 22 21 19 18 18 17 17 17 17 17 17 17 16 16 15 15 14 15 15 16 15 15 14 14 14 14 14 13 13 12 11 12 12
22 22 22 21 21 21 22 21 20 20 20 20 20 19 18 18 18 19 19 19 18 18 17 16 16 16 16 16 16 16 16 16 15 15 15 15 15 14 13 13 12 12
22 21 20 18 16 15 16 18 18 19 19 19 19 18 18 18 18 18 18 18 19 19 19 18 18 18 17 17 17 18 18 18 17 16 16 16 16 16 15 15 15 14
24 23 22 21 19 16 14 14 15 17 18 18 18 17 16 16 16 17 17 17 18 19 19 19 19 19 20 19 19 19 20 20 19 18 18 17 18 18 17 17 17 17
20 19 18 18 20 20 18 16 15 16 18 19 19 17 16 16 15 16 15 15 16 17 18 18 19 20 20 21 21 22 22 22 21 20 20 19 19 19 19 18 18 18
12 13 12 11 14 16 17 16 14 14 16 18 19 19 18 17 16 16 17 17 17 17 18 19 19 20 21 21 22 23 24 24 24 23 22 21 21 21 20 20 19 19
8 9 9 9 10 11 10 10 10 10 13 15 16 17 17 16 16 16 16 16 16 17 18 19 20 21 21 22 22 23 24 24 25 25 24 23 23 22 22 21 21 20
8 7 8 9 9 8 6 5 5 6 9 11 11 11 12 13 13 13 12 12 13 13 14 16 17 19 20 22 22 22 22 24 24 25 25 24 24 23 23 23 22 22
14 13 13 12 10 9 8 6 5 5 4 4 4 5 8 9 10 10 9 8 9 9 9 9 10 12 15 18 21 21 22 22 23 24 24 24 24 23 24 23 23 23
15 14 13 11 9 8 8 7 7 6 4 3 3 3 4 5 5 5 4 4 5 5 5 4 4 6 9 11 13 17 19 20 20 21 22 22 22 22 22 22 23 23
15 15 14 13 11 10 8 8 8 6 3 1 1 2 2 2 2 2 1 1 2 3 5 5 5 6 7 6 6 8 11 14 16 17 18 18 19 20 20 21 21 21
16 16 16 14 13 12 11 11 10 7 5 2 1 0 1 2 1 1 1 1 0 2 5 7 7 6 5 5 5 5 6 9 11 12 13 14 14 15 15 16 16 16
16 15 14 14 13 13 14 13 11 8 6 3 1 1 2 1 0 2 2 2 2 3 5 6 6 6 5 4 3 3 4 6 9 10 11 11 11 11 11 12 12 12
13 13 13 13 13 14 14 13 11 9 7 4 3 2 3 3 3 4 5 5 5 5 5 6 6 8 9 8 6 4 4 5 8 10 11 11 11 10 10 11 11 11
11 11 12 13 13 14 13 12 11 9 7 6 5 5 5 6 6 6 6 6 7 8 8 6 6 7 9 10 10 9 8 8 8 9 11 11 11 10 9 9 9 10
13 13 13 15 15 15 15 14 12 10 9 7 7 7 9 10 9 9 8 7 6 8 10 8 6 5 5 6 7 8 8 6 4 4 6 8 8 8 8 7 7 7

ECMWFNIL_925_spd_093.txt.gz
Wind_Speed
21 20 18 16 14 12 11 11 11 11 10 9 9 7 7 8 7 7 7 6 6 5 5 4 4 5 5 5 5 5 4 4 4 4 4 4 4 3 3 3 2 2
22 21 20 18 16 14 12 12 11 12 11 10 8 7 6 7 7 8 8 7 6 5 5 4 4 5 5 5 5 5 5 5 5 5 5 5 4 4 3 3 3 3
23 22 21 19 17 15 13 12 11 12 12 11 9 7 6 5 6 7 8 7 7 6 5 4 4 5 5 5 5 5 5 6 5 5 6 6 5 4 4 4 4 3
24 23 21 20 18 16 13 12 12 12 13 12 11 9 7 5 5 6 7 7 7 6 5 4 4 5 5 5 5 5 6 6 6 6 7 7 6 6 5 5 5 5
23 22 22 21 19 16 14 13 13 12 13 12 11 9 8 7 6 6 7 7 7 7 6 5 5 5 6 6 6 6 6 6 6 7 7 7 7 7 6 6 6 6
23 22 22 22 20 17 15 14 14 13 12 12 11 10 9 8 8 7 7 7 7 7 6 6 6 7 7 7 7 7 7 6 6 7 7 7 7 7 7 7 7 7
23 22 22 22 21 18 16 15 15 14 13 12 11 10 9 8 8 8 7 7 8 8 7 7 7 7 8 8 8 8 8 7 7 7 7 8 8 8 7 7 8 8
23 22 21 22 21 19 18 17 16 16 15 14 13 11 9 8 8 8 8 7 8 8 8 8 7 7 8 8 9 9 8 7 7 7 7 7 8 8 8 8 8 9
22 22 21 22 21 19 18 16 15 16 17 16 13 11 10 9 8 8 8 7 7 8 8 9 9 9 9 9 9 9 9 8 8 8 8 7 8 8 8 8 8 8
18 20 21 21 21 20 19 16 14 14 16 16 14 11 10 10 9 8 8 8 8 8 8 9 10 10 10 10 10 10 10 10 10 10 10 9 9 8 8 8 8 8
16 18 20 20 21 21 20 18 15 13 14 14 14 12 11 10 10 10 10 10 10 10 9 10 10 11 11 11 11 11 11 11 11 11 11 11 10 10 9 9 9 8
15 15 18 19 20 20 20 19 15 13 13 13 13 13 12 12 12 12 12 12 12 12 11 11 11 11 12 12 12 12 12 12 12 12 12 12 11 11 10 10 10 10
15 14 14 16 17 18 18 18 16 13 12 11 12 13 13 12 12 12 12 13 12 12 12 11 11 12 12 12 12 12 13 14 14 14 13 13 12 12 11 11 11 11
14 14 14 15 16 16 15 15 15 15 14 13 12 12 11 11 10 10 10 10 10 11 11 10 10 11 12 12 12 12 13 14 14 15 14 14 14 13 13 13 13 13
15 16 17 18 17 16 14 13 13 15 16 16 15 12 11 10 10 9 9 8 9 10 10 9 10 10 11 11 11 12 13 13 14 15 15 15 16 15 15 15 15 14
18 18 20 20 19 18 18 16 14 12 13 15 16 16 15 14 13 12 10 9 9 9 9 9 9 10 12 12 11 12 12 12 13 15 15 15 17 17 17 16 16 15
18 19 20 21 21 21 21 19 16 14 14 15 15 16 16 14 14 12 11 10 10 10 9 8 8 10 13 13 13 13 13 13 13 13 14 15 15 16 16 16 15 15
17 17 18 19 20 18 17 17 15 13 14 14 14 14 13 10 9 9 9 8 8 9 8 6 7 11 13 13 14 14 15 15 14 12 11 11 12 13 14 14 14 14
16 17 18 18 16 14 13 13 13 11 10 10 9 8 8 7 5 5 5 5 5 5 4 3 6 10 11 11 12 13 15 16 15 13 11 10 10 11 11 12 12 13
10 11 12 12 13 15 15 13 13 11 9 8 7 7 7 7 6 5 4 3 3 4 3 3 5 8 7 8 9 10 11 13 14 13 12 11 10 10 10 11 12 13
12 12 13 13 14 17 17 15 14 12 11 10 9 7 7 6 6 6 5 3 2 3 4 4 4 4 4 5 6 6 7 8 9 10 11 10 9 10 10 10 11 11
14 13 14 14 15 16 16 15 14 12 11 10 10 8 6 5 5 5 5 4 3 3 4 4 3 2 1 1 3 4 4 4 5 6 7 7 7 8 8 8 8 8
14 13 13 12 12 13 13 12 11 10 9 8 8 8 8 6 6 5 5 4 4 4 3 2 1 2 3 3 3 3 3 2 2 2 3 4 5 6 7 7 7 8
16 15 14 12 11 11 11 11 9 8 7 6 5 6 7 6 5 5 5 4 3 3 2 2 1 2 4 4 4 4 3 2 0 0 1 2 3 4 4 4 5 6
18 17 17 15 13 12 12 11 10 9 8 8 7 6 6 6 5 5 5 5 4 3 3 4 3 2 1 1 2 3 3 2 1 1 2 3 3 4 4 3 3 4
18 17 17 16 15 15 14 13 12 11 11 11 10 9 8 8 7 8 8 7 6 6 5 6 6 5 4 2 2 2 1 2 2 2 1 0 2 2 2 2 2 2

ECMWFNIL_925_spd_096.txt.gz
Wind_Speed
12 11 10 10 9 8 7 7 6 6 6 5 5 5 4 4 4 4 4 4 4 3 3 3 2 2 2 2 2 2 2 3 3 2 2 2 2 3 2 2 3 4
13 12 11 10 9 9 8 7 7 6 6 6 5 5 4 5 5 5 5 5 4 4 4 3 3 3 3 3 3 3 3 4 4 3 2 2 3 3 3 3 3 3
14 13 12 12 11 11 10 9 7 7 7 7 6 6 5 5 5 6 6 6 5 4 4 4 4 4 4 4 3 3 3 4 4 3 3 3 3 3 3 3 3 3
15 14 13 12 12 11 11 10 8 8 8 7 7 7 6 5 5 5 6 6 5 5 5 4 4 4 4 4 4 4 4 4 4 3 3 4 3 4 4 4 4 4
15 14 13 12 11 11 10 10 9 8 8 8 7 7 6 5 5 5 6 6 6 6 6 5 5 5 5 5 5 5 4 4 4 4 4 4 4 4 4 3 3 4
14 14 13 12 11 11 11 10 9 9 8 8 8 7 6 7 7 6 6 6 6 6 6 6 6 5 5 5 5 5 5 4 3 3 4 5 4 5 4 3 4 4
13 13 13 12 12 12 12 11 10 9 9 8 7 7 7 7 7 7 7 7 7 6 6 5 5 5 5 5 5 5 5 5 4 4 5 5 5 5 5 4 4 4
13 13 12 12 12 13 13 12 11 10 9 9 8 8 8 8 8 8 7 7 7 7 6 6 6 6 6 6 5 5 6 6 6 6 6 5 5 5 5 5 5 5
13 12 12 12 12 13 13 13 12 12 11 10 10 10 9 9 9 8 7 7 7 7 6 7 6 7 7 6 6 6 6 6 6 5 6 6 6 5 5 5 5 5
11 11 11 12 12 12 13 13 13 12 12 11 11 11 10 10 10 9 8 8 8 7 8 8 8 7 7 7 7 6 6 7 6 6 7 6 6 6 6 6 6 6
10 10 10 11 11 11 11 12 12 12 12 11 11 12 11 11 10 10 9 9 9 8 8 9 9 8 8 8 8 7 7 7 7 7 7 7 7 7 7 7 7 7
9 10 10 11 11 11 11 12 12 12 12 12 11 12 12 12 11 11 10 10 10 10 9 9 9 9 8 8 9 8 8 8 8 8 8 8 8 8 8 8 7 7
11 9 9 10 10 11 11 12 12 13 13 12 11 11 12 13 12 12 11 11 11 11 11 10 10 10 9 9 10 9 9 9 9 9 9 9 9 8 8 9 8 8
15 13 11 11 12 12 12 11 11 12 12 11 11 11 12 13 13 13 12 12 12 11 11 11 10 11 11 11 11 11 10 10 10 10 10 10 9 9 9 9 9 9
19 18 16 16 16 15 14 13 12 11 11 11 11 11 11 12 13 13 12 12 11 11 11 11 11 11 12 12 11 11 10 11 11 11 11 10 10 10 9 9 9 10
21 20 20 20 20 19 18 17 13 10 10 11 11 11 12 12 11 12 12 11 11 11 11 12 12 11 12 13 12 11 10 10 10 10 10 10 10 10 10 10 10 10
21 21 20 19 20 20 20 19 17 14 13 11 10 11 12 12 12 12 12 12 12 12 12 12 11 10 12 13 13 13 12 11 10 11 11 11 11 11 10 10 10 10
19 20 18 17 17 16 17 17 17 17 16 12 10 11 12 12 12 12 12 12 12 12 13 12 9 10 12 14 14 14 13 13 12 12 12 12 11 11 10 10 10 9
16 17 18 17 16 15 14 14 14 16 16 13 11 12 13 12 11 11 10 11 11 11 11 9 7 10 13 13 13 13 13 13 13 13 13 13 12 11 11 10 9 9
14 14 14 15 14 14 14 14 15 15 15 15 13 13 13 12 11 10 10 10 10 9 9 7 6 9 10 10 11 11 11 12 12 12 13 13 13 13 12 11 9 8
8 9 9 8 9 11 14 15 15 14 15 15 14 13 13 12 10 9 9 9 9 9 9 8 7 8 8 8 9 9 9 9 9 9 10 11 11 11 10 10 9 8
9 9 8 6 5 6 10 12 12 11 12 14 14 13 11 9 9 8 8 8 9 9 8 8 7 7 7 7 8 7 7 6 5 6 7 7 7 7 7 6 6 5
12 10 8 7 8 8 8 9 8 8 9 10 12 12 9 7 8 8 7 6 6 6 6 6 6 6 6 6 7 6 6 5 4 6 6 6 6 5 4 4 4 4
11 9 9 8 8 7 7 7 5 7 9 8 8 7 6 6 7 7 6 5 5 4 5 5 3 3 4 5 6 7 7 6 5 7 7 6 6 5 5 5 5 5
11 10 9 9 9 9 9 8 6 6 7 7 6 6 5 5 6 6 6 6 5 5 5 4 3 1 2 3 4 5 7 7 7 7 9 9 7 7 7 6 5 4
12 10 9 9 10 9 8 8 7 6 7 8 7 6 7 8 8 7 7 6 6 6 6 5 4 3 2 1 1 2 4 6 6 7 8 8 7 7 7 7 6 4

ECMWFNIL_925_spd_102.txt.gz
Wind_Speed
15 13 11 11 10 9 11 11 11 11 11 11 10 10 9 8 8 9 9 8 8 7 6 6 5 6 6 5 6 5 5 5 3 3 4 4 4 3 4 3 1 1
16 15 13 12 11 11 12 12 11 11 11 10 9 9 10 8 8 9 8 8 8 7 6 6 6 6 6 6 6 5 6 6 4 4 4 4 4 3 3 3 2 2
16 15 15 14 13 12 12 11 10 10 10 10 8 9 10 8 8 9 8 7 7 8 7 6 6 7 6 6 5 5 7 6 4 5 4 4 4 4 4 4 3 3
16 16 15 14 13 12 11 11 10 9 9 9 8 9 9 9 10 10 9 8 7 7 7 7 7 7 7 6 6 6 7 6 5 5 4 4 5 5 5 5 4 3
16 16 15 15 15 14 12 12 11 9 10 10 9 10 10 9 10 11 10 9 8 7 7 7 8 8 7 7 7 7 7 7 7 7 6 5 6 6 6 5 4 3
16 16 15 14 15 14 13 13 13 11 11 11 11 12 11 9 9 10 10 9 9 9 8 8 9 8 7 8 8 7 8 7 7 8 8 7 6 6 6 4 4 4
16 15 14 14 13 12 12 12 13 13 12 11 11 12 12 11 10 10 10 10 9 9 8 8 9 9 8 9 10 9 8 7 7 7 8 7 7 6 6 5 4 4
15 15 14 14 13 12 12 12 12 13 12 11 11 11 11 11 11 11 10 10 9 9 9 8 9 10 9 9 10 10 9 8 8 9 8 7 7 7 6 6 6 5
14 14 14 14 14 13 13 12 12 12 11 11 10 11 11 11 11 11 10 10 10 10 9 9 9 10 9 9 10 10 10 9 9 9 9 9 8 8 7 7 7 7
14 13 13 13 14 13 13 13 12 12 12 11 11 11 11 11 11 10 10 10 11 10 9 9 10 10 9 10 10 11 11 10 9 9 9 9 9 8 8 8 8 8
15 14 14 14 14 13 12 13 13 13 13 13 12 12 12 11 12 12 11 11 11 11 11 11 11 11 10 11 11 10 10 10 10 10 10 10 10 10 9 8 8 8
15 14 14 14 14 13 13 13 13 13 14 14 13 14 13 12 13 13 12 11 12 12 12 12 12 12 12 12 11 10 11 11 10 11 11 10 10 10 10 10 10 9
14 14 14 14 13 13 13 13 13 12 13 13 13 13 13 13 13 13 13 13 13 13 13 12 13 13 13 13 12 11 11 11 10 10 11 11 11 12 11 11 11 10
15 14 13 13 12 13 14 14 13 12 13 12 10 12 14 14 13 13 13 13 13 13 13 13 13 13 14 14 13 12 11 11 10 10 10 10 11 12 12 11 11 10
15 14 13 13 12 12 13 14 14 12 13 12 11 11 12 12 13 14 13 14 14 14 14 14 14 14 14 14 14 13 12 11 10 9 10 10 11 13 13 12 10 10
12 11 11 11 11 10 9 10 10 9 9 10 11 11 11 10 10 12 13 13 13 14 15 15 13 13 15 16 15 14 13 11 10 10 11 11 11 12 12 11 11 12
11 10 9 9 9 8 7 8 9 8 9 10 11 11 11 11 10 10 13 14 13 12 11 11 10 9 10 14 15 14 12 11 10 10 10 9 9 10 12 12 13 12
9 9 8 7 7 7 7 7 9 11 11 12 11 10 9 11 11 10 11 12 11 9 6 3 6 8 6 9 13 13 13 13 11 9 9 9 10 11 12 11 12 12
7 7 6 6 7 8 7 8 10 13 14 14 14 12 10 11 12 11 11 11 11 9 5 5 4 5 4 6 9 11 12 13 11 9 9 9 11 11 9 9 11 12
7 8 9 9 10 10 10 10 12 12 13 14 15 15 13 12 13 12 13 14 13 10 7 5 5 5 5 6 6 8 9 9 9 9 8 8 9 10 10 10 11 13
4 4 6 7 9 11 11 11 12 12 14 14 14 14 14 14 14 15 17 17 13 8 7 9 9 7 7 7 7 7 7 6 7 7 8 8 9 10 10 9 7 9
1 3 4 3 3 4 5 6 9 12 15 15 14 13 15 15 15 16 17 17 15 10 7 9 10 9 8 8 7 7 6 5 4 5 7 9 10 10 8 6 5 6
6 4 3 3 4 3 2 1 3 6 9 11 11 13 16 18 18 17 16 16 16 13 9 8 10 9 8 9 8 7 5 4 2 4 6 7 7 7 5 4 4 3
12 11 9 8 8 7 7 5 1 2 4 8 11 11 13 16 18 20 21 18 15 12 11 10 9 6 6 7 7 6 4 3 3 3 5 5 5 5 5 3 3 3
13 13 12 12 12 11 11 9 6 3 3 6 8 8 8 11 17 21 22 17 11 9 10 9 6 3 2 2 3 4 3 3 3 4 4 4 4 4 4 4 5 6
14 13 12 12 12 12 11 9 9 8 4 1 1 0 2 2 7 14 18 16 12 12 10 6 5 4 2 2 2 2 0 1 2 2 4 6 5 3 2 4 5 6

ECMWFNIL_925_spd_105.txt.gz
Wind_Speed
17 15 15 15 15 15 14 13 13 13 13 11 10 10 11 11 10 10 10 8 8 8 6 6 7 7 6 5 5 5 4 3 3 3 3 4 4 3 5 5 3 3
18 15 14 14 15 14 13 12 11 12 12 11 10 10 10 10 10 11 10 8 8 7 6 6 6 6 6 6 5 6 6 6 5 4 4 5 5 5 5 5 4 4
18 17 15 15 16 15 13 12 11 11 11 11 10 10 10 10 10 10 9 8 9 8 6 6 6 6 8 7 6 6 6 5 5 4 4 6 6 6 5 5 6 5
18 18 17 16 15 14 13 14 14 12 12 11 10 10 11 10 9 10 10 9 10 9 7 7 7 7 8 8 7 7 6 6 5 5 5 6 6 7 7 6 6 6
18 17 16 15 14 13 13 14 15 13 12 11 10 11 12 11 11 11 11 10 10 10 8 8 8 8 9 9 8 7 7 7 6 6 7 7 6 7 6 6 7 6
19 17 16 16 15 15 15 15 14 13 12 11 11 12 13 12 12 12 12 11 11 10 9 9 10 10 9 10 10 9 8 7 7 7 8 8 7 7 7 8 8 7
20 18 17 17 17 17 16 16 15 15 14 13 13 13 13 13 12 12 12 12 11 11 10 9 10 11 9 9 10 9 8 8 7 7 9 9 8 8 8 8 8 7
21 20 19 18 18 18 17 15 15 15 14 14 15 15 14 13 12 12 12 12 12 11 12 11 10 11 11 10 11 10 9 8 8 8 9 9 8 8 8 8 8 7
21 19 19 18 16 17 17 15 14 14 14 14 15 15 14 13 13 13 12 13 12 12 13 12 10 10 11 11 11 10 9 8 9 9 9 9 9 9 9 9 9 9
21 20 20 19 17 16 16 15 13 13 14 13 13 13 14 15 14 13 12 13 13 12 13 12 11 10 11 11 10 10 9 9 10 10 9 10 10 10 10 9 10 11
20 20 20 20 19 18 17 16 15 14 14 14 13 12 13 15 15 13 12 13 13 12 12 11 10 10 10 11 10 10 11 10 10 10 10 10 10 10 10 10 10 11
21 20 20 19 19 18 17 16 16 14 15 16 16 15 13 14 15 16 14 14 13 13 13 12 12 11 10 10 10 11 11 11 10 10 11 11 11 10 10 10 11 12
20 19 18 18 18 17 16 15 15 12 9 10 13 16 16 15 14 15 16 15 15 15 15 14 13 12 12 12 11 11 11 11 11 11 12 11 11 11 11 12 12 11
21 20 20 18 17 16 15 15 16 14 9 4 4 8 11 13 12 12 14 17 18 16 15 14 13 12 12 12 12 12 12 11 11 11 11 11 11 12 11 9 9 9
12 12 13 14 16 16 16 16 17 17 14 9 6 4 4 6 7 6 8 14 18 17 15 13 13 14 13 12 13 13 13 13 12 10 10 10 10 10 8 6 7 9
3 1 1 1 5 8 10 14 16 16 15 13 12 9 5 4 5 4 4 6 9 11 12 12 13 13 13 12 13 15 15 15 13 11 9 9 8 8 7 5 6 8
7 9 8 6 5 6 7 8 10 13 15 14 12 11 10 8 6 4 4 3 3 6 9 12 12 12 12 11 12 15 17 16 14 12 9 7 7 6 4 2 4 7
6 11 14 12 9 9 10 9 8 10 12 12 11 9 10 10 9 7 7 5 3 3 5 9 11 11 12 11 10 13 17 17 14 12 8 5 4 4 3 2 3 4
8 10 12 9 6 6 9 10 10 11 11 10 10 9 10 11 10 9 9 8 6 5 6 7 9 9 10 10 8 9 12 14 13 11 7 5 4 4 5 5 4 4
8 9 9 10 9 8 9 9 11 11 11 11 11 12 12 13 12 12 12 10 7 7 8 9 10 9 9 9 8 7 8 10 11 9 8 7 7 7 7 7 7 6
6 8 8 10 11 12 12 12 12 12 13 13 13 13 13 13 14 16 16 13 10 9 10 11 11 12 11 10 9 7 5 6 7 8 8 8 8 8 8 9 9 9
4 5 6 7 8 10 10 10 11 12 13 14 14 14 14 15 16 17 18 18 18 18 15 13 12 13 13 12 11 10 7 6 6 7 7 7 7 6 7 7 8 7
5 5 5 4 4 4 5 7 8 9 11 12 13 13 14 16 16 15 15 15 18 19 17 15 14 12 11 12 12 11 9 7 7 6 5 5 5 4 4 5 5 4
10 9 7 5 4 3 2 3 5 7 7 7 8 9 10 12 12 13 13 12 14 15 15 15 14 11 9 9 9 10 9 8 7 6 5 4 3 3 3 4 3 3
14 14 12 11 9 6 4 2 1 1 2 2 2 3 4 6 8 10 11 11 13 15 15 14 13 11 8 7 6 7 8 9 8 6 6 6 4 3 3 3 2 3
14 14 14 13 11 8 6 4 4 5 4 3 3 4 5 3 1 1 3 5 10 14 15 12 9 9 7 6 6 7 8 8 8 6 6 6 5 4 3 3 3 3

ECMWFNIL_925_spd_108.txt.gz
Wind_Speed
21 21 20 20 20 19 19 19 18 17 17 18 16 14 14 13 11 12 12 11 10 10 10 10 9 9 8 8 7 7 6 7 6 4 3 3 4 3 3 5 5 5
21 20 20 20 19 19 19 18 18 16 17 17 16 13 13 13 13 13 13 12 11 11 11 10 10 10 10 9 9 8 7 8 6 5 4 4 4 4 4 5 5 6
21 20 19 19 19 20 19 18 17 16 15 15 15 13 13 14 14 14 13 13 12 11 11 9 9 10 10 10 9 8 8 8 7 6 6 5 5 5 6 6 6 5
21 21 20 19 20 20 19 18 17 16 15 15 14 13 13 14 14 14 14 13 12 11 10 9 8 9 10 11 10 8 7 7 6 5 6 5 5 6 7 8 7 6
22 21 20 19 19 20 19 18 17 15 16 16 14 13 13 14 14 14 13 13 12 12 11 9 9 9 8 9 10 9 8 8 7 6 6 6 7 8 8 7 6 6
22 22 21 19 19 20 20 18 17 16 16 16 15 14 14 15 15 14 13 13 12 12 11 10 10 9 9 9 9 9 9 9 8 7 7 8 7 8 7 6 6 7
22 22 21 20 20 20 20 18 17 17 16 15 14 15 15 15 15 14 13 13 12 12 12 11 10 10 10 10 10 11 10 10 9 8 8 8 8 8 8 7 7 7
23 22 21 21 20 20 19 17 17 17 16 16 15 15 15 16 15 14 13 13 13 12 12 11 11 11 11 11 10 11 11 10 10 9 9 9 9 9 8 7 8 8
23 22 21 20 21 21 20 19 18 18 17 18 17 16 16 16 16 15 14 14 13 13 12 12 12 12 11 11 11 11 12 11 10 10 10 10 10 9 9 8 8 9
23 22 22 21 21 22 21 20 19 19 19 20 19 18 18 18 18 16 15 15 15 14 14 13 14 14 13 13 13 12 11 11 11 11 11 11 10 9 9 9 10 11
25 24 23 22 22 21 20 20 19 18 18 19 19 19 19 19 19 18 17 17 17 17 16 16 15 15 14 14 13 12 12 12 12 11 12 12 12 11 10 11 11 11
25 25 25 23 23 21 19 18 18 17 17 18 18 18 18 19 19 19 19 19 19 18 18 18 16 15 15 15 14 13 12 13 13 13 12 12 12 12 12 12 11 10
25 25 25 23 23 22 19 18 19 18 18 19 20 20 20 19 19 20 20 20 20 19 19 20 18 17 16 15 14 13 13 13 14 14 14 12 11 12 13 13 12 11
24 24 24 23 22 22 21 20 19 17 16 15 15 17 19 21 21 21 21 22 22 21 20 21 20 18 17 16 15 15 15 15 14 14 14 13 12 14 14 12 12 12
21 21 21 21 22 21 21 21 19 16 14 13 11 11 12 15 18 19 21 24 25 23 21 22 21 20 18 18 18 18 17 16 16 15 14 13 12 12 11 11 12 13
18 17 16 18 20 20 20 20 19 17 15 13 12 11 9 8 9 11 15 20 24 25 23 22 21 20 19 19 18 18 18 17 17 16 15 14 13 11 9 8 10 10
15 14 13 14 16 17 17 18 18 19 17 15 13 13 12 10 8 7 9 12 17 22 22 22 21 20 20 19 18 17 18 18 18 18 17 15 13 11 9 7 5 6
13 12 12 13 13 13 14 14 14 16 17 17 14 13 12 12 11 9 9 9 11 16 19 21 21 20 19 19 18 18 18 17 18 19 18 16 14 11 10 8 6 5
11 12 13 13 13 12 12 12 11 10 11 12 12 11 11 11 10 9 9 9 10 12 15 17 19 19 19 18 18 18 18 17 16 18 20 18 16 14 13 10 9 7
10 12 12 13 13 13 13 13 12 11 10 10 10 10 10 9 8 8 8 9 10 11 12 14 16 18 18 16 15 15 15 15 14 16 18 18 16 15 14 12 11 9
11 13 13 12 13 13 12 12 12 12 11 12 12 12 11 10 8 8 8 10 11 12 12 14 14 15 14 13 13 12 11 13 14 15 16 16 15 14 12 11 10 10
10 12 12 12 13 13 12 11 10 10 10 11 12 13 13 12 11 10 10 11 12 13 13 13 13 12 11 12 12 12 11 13 15 16 16 15 15 13 11 10 9 10
8 9 9 10 10 10 9 8 8 10 11 11 12 13 15 15 14 13 11 11 12 15 16 16 15 15 17 18 16 14 13 14 15 16 16 15 13 11 9 9 8 9
6 6 6 6 6 6 6 6 6 8 9 11 11 12 13 12 12 11 12 15 17 19 19 20 19 20 23 25 22 19 17 16 15 15 15 14 13 11 9 8 7 7
6 6 6 6 6 5 4 4 4 4 5 6 7 7 8 8 8 10 14 19 21 19 17 17 17 17 19 22 22 22 20 18 16 15 14 14 13 12 10 8 6 5
7 7 6 6 5 5 6 6 4 4 3 1 0 2 4 4 5 9 12 13 13 12 11 11 11 10 12 14 18 20 20 19 19 18 17 15 14 12 11 9 7 6

ECMWFNIL_925_spd_111.txt.gz
Wind_Speed
22 22 22 21 20 20 21 22 21 20 19 19 19 18 16 15 14 12 11 11 10 9 9 9 9 9 8 7 7 7 6 6 6 6 5 4 4 4 4 5 5 6
22 21 22 21 20 20 21 21 20 20 19 19 18 17 15 14 13 12 12 12 11 10 9 10 10 10 9 9 8 8 8 7 7 6 6 5 5 5 4 5 6 6
22 22 22 21 21 21 21 20 19 19 19 18 17 16 15 14 13 13 12 12 12 11 11 11 11 11 11 10 10 10 9 8 8 7 7 7 6 6 5 6 7 6
23 22 22 22 21 21 21 20 19 18 18 18 17 16 15 14 14 14 14 13 13 12 12 12 11 10 10 10 10 10 9 8 7 7 7 7 7 7 7 8 8 7
24 23 22 22 21 21 20 20 19 19 18 18 16 16 16 15 15 15 15 14 14 13 13 12 11 10 9 9 10 11 10 8 7 7 8 8 8 8 9 9 9 7
25 24 22 21 20 20 21 20 20 19 18 17 15 15 16 15 15 15 15 15 14 13 13 12 11 10 10 10 10 10 10 9 8 8 9 9 9 8 8 9 9 8
25 24 22 21 20 20 20 20 19 19 18 16 15 15 15 15 15 15 15 14 14 14 14 13 13 12 11 11 10 10 10 10 10 9 10 10 9 8 8 9 9 9
24 23 22 22 21 20 20 20 20 19 17 16 16 15 16 16 15 15 15 15 15 14 14 14 13 13 12 12 12 11 10 10 10 10 10 10 10 10 9 8 9 9
24 23 22 22 22 21 20 20 20 19 17 17 17 16 16 16 16 16 16 16 15 15 15 15 14 13 13 13 13 12 11 11 10 10 11 11 11 10 9 9 9 9
25 23 22 21 22 22 21 20 21 20 18 17 17 17 17 16 16 16 16 16 16 16 16 15 14 14 13 13 13 13 12 12 11 11 11 11 11 11 10 10 10 10
25 24 23 22 22 22 22 21 22 21 20 19 18 18 18 17 17 17 17 18 18 18 17 17 16 15 15 14 14 13 13 13 12 12 12 12 12 12 12 12 12 12
26 25 24 23 23 22 22 22 22 22 21 20 20 20 20 19 19 19 20 20 20 19 19 19 18 17 17 16 16 15 14 14 13 12 12 13 13 13 13 13 13 13
27 26 25 23 23 22 21 21 21 21 21 20 21 21 22 22 22 22 22 21 21 21 20 20 20 20 19 18 17 16 15 15 14 13 13 14 15 15 14 14 14 14
25 25 24 23 23 22 21 21 20 20 20 20 20 21 21 22 23 23 22 22 22 22 22 22 21 21 21 20 18 17 17 16 15 14 15 15 15 15 15 14 14 14
24 24 24 24 24 24 23 22 21 21 20 19 19 19 19 20 21 22 22 22 23 23 24 25 25 23 22 21 19 18 17 17 17 16 17 17 17 16 15 14 13 13
21 21 23 24 24 24 24 23 23 23 21 18 17 16 15 15 16 17 19 21 22 23 24 25 26 26 24 22 20 20 19 19 19 19 19 19 18 17 16 14 13 12
18 17 19 21 22 22 23 23 23 23 21 18 18 17 16 15 14 14 14 15 17 19 22 24 26 26 25 23 21 21 20 20 20 20 21 21 19 18 18 16 14 13
18 16 17 19 19 20 20 20 21 21 19 18 18 18 17 16 15 14 13 13 13 13 16 20 23 24 24 22 22 22 21 20 20 21 22 22 22 20 19 18 16 14
18 16 16 16 17 17 16 16 15 15 14 14 15 14 14 14 13 12 12 12 12 11 12 14 18 21 22 21 22 22 21 21 20 20 21 22 23 22 21 19 17 15
16 15 14 14 14 14 14 14 13 12 12 12 12 11 11 11 11 11 10 10 10 10 10 11 13 16 19 20 21 21 21 21 21 20 20 22 23 24 23 21 19 17
14 13 13 12 12 13 13 13 13 13 13 13 13 12 11 11 10 9 9 10 10 10 10 11 13 15 17 19 19 19 19 19 18 18 19 20 22 23 24 23 21 19
9 9 9 9 10 10 10 10 10 11 12 13 12 11 11 10 7 6 6 8 9 10 11 12 13 14 15 16 16 17 17 17 18 19 20 20 21 23 24 24 21 19
4 4 4 5 6 7 9 11 11 12 13 12 10 8 7 6 7 10 11 11 10 11 12 13 14 14 14 15 15 15 16 16 17 19 21 20 21 22 23 22 21 19
3 2 2 2 2 3 5 8 10 11 12 12 10 9 9 8 11 14 14 12 12 12 14 15 16 17 18 18 19 19 18 18 19 20 20 20 20 21 22 21 20 18
3 2 2 2 2 3 2 1 4 5 7 6 5 7 9 9 10 11 11 12 13 13 13 14 15 16 17 18 20 22 23 22 22 23 24 23 22 22 21 20 17 16
4 3 1 2 3 2 1 0 1 2 3 3 3 5 6 7 8 8 8 9 8 8 8 8 9 10 11 12 15 18 21 21 19 20 24 27 27 25 23 20 18 16

ECMWFNIL_925_spd_114.txt.gz
Wind_Speed
20 21 21 21 21 20 19 19 19 18 17 16 16 15 14 13 12 12 12 11 10 10 9 9 9 9 8 7 7 6 7 7 6 6 6 5 4 4 3 3 3 3
20 19 20 21 21 20 19 19 18 18 18 17 16 16 15 14 13 13 13 12 11 11 10 9 9 9 9 8 8 8 8 8 8 7 7 6 5 5 4 4 4 4
20 19 19 20 20 20 19 18 17 17 17 18 17 16 16 14 14 14 13 12 12 11 10 10 10 10 10 10 10 10 10 10 9 9 8 8 7 6 5 5 5 6
21 19 18 18 18 18 18 17 17 17 17 18 18 16 16 15 15 14 13 13 12 12 11 11 10 10 11 11 11 11 11 11 10 9 9 8 7 6 6 6 6 7
22 21 19 18 17 17 17 17 18 17 17 17 16 15 15 15 14 14 14 14 13 13 12 12 11 11 11 10 10 10 11 11 10 8 8 8 7 7 7 7 7 7
23 22 21 20 18 17 17 18 18 18 18 17 16 15 15 14 14 14 14 14 14 14 13 12 12 11 11 11 10 11 10 10 10 9 9 9 8 7 7 7 7 7
24 23 22 21 20 18 18 18 18 18 18 17 16 15 15 14 14 14 14 14 14 14 13 13 12 12 12 12 12 11 11 10 10 10 10 10 9 8 7 7 7 7
24 23 22 22 21 20 19 18 17 18 17 17 16 15 15 14 14 13 14 14 14 14 14 13 13 13 12 12 12 12 12 11 11 11 11 11 10 10 9 7 8 8
25 23 22 22 21 21 20 19 18 17 16 16 16 15 14 14 13 14 14 15 15 15 15 14 14 13 13 13 13 13 13 12 12 11 11 11 11 11 10 9 9 9
25 24 23 22 22 22 21 20 19 18 16 16 16 15 15 15 14 15 15 15 15 15 15 15 15 14 14 14 14 14 14 13 12 12 11 11 11 11 11 10 11 11
26 25 24 23 23 22 21 21 20 19 17 17 17 16 16 16 16 16 16 16 16 15 15 16 15 15 15 15 15 15 15 14 14 13 12 12 12 12 12 12 12 12
26 26 25 24 23 21 20 20 21 20 19 18 18 18 17 17 17 17 18 17 17 16 16 16 16 16 17 17 16 16 16 16 15 15 14 13 13 13 13 13 13 13
27 27 25 24 23 21 19 19 20 20 20 20 20 19 19 19 19 19 19 19 19 18 18 18 18 18 19 19 18 18 18 18 17 16 15 15 14 14 13 13 13 13
28 26 25 23 22 21 19 19 19 19 20 20 20 20 20 20 20 20 20 20 21 20 20 19 19 20 20 20 20 20 20 20 19 18 17 16 16 15 14 14 14 14
28 26 24 22 22 21 20 19 19 20 19 19 19 19 19 18 18 18 19 20 20 20 19 19 20 20 21 21 22 22 22 21 20 19 18 18 17 17 16 16 16 15
27 25 23 22 22 21 20 20 20 19 20 20 20 20 19 17 16 16 17 18 18 19 19 19 20 20 20 21 22 23 23 22 21 21 20 19 19 19 19 19 18 17
26 25 23 23 23 22 21 21 20 20 20 20 21 20 19 16 15 15 15 14 15 15 16 17 18 19 20 21 22 22 23 22 22 22 21 21 20 21 21 21 20 19
23 22 21 20 20 20 20 21 21 21 21 21 22 21 19 17 15 14 13 13 13 13 13 13 14 15 16 18 20 20 21 21 22 22 23 22 22 21 21 22 21 20
19 18 17 17 17 16 17 18 19 20 19 18 17 15 13 11 10 9 10 11 11 11 12 12 12 13 13 13 16 18 19 20 21 21 22 22 22 22 22 22 22 22
16 15 14 14 13 13 14 14 16 15 13 10 8 7 7 8 10 12 11 11 10 10 10 10 10 11 12 12 13 16 18 19 20 20 21 21 22 22 22 22 22 22
12 12 12 12 11 11 11 10 8 5 4 5 6 7 10 14 16 15 9 6 6 6 8 10 11 11 12 13 14 15 16 17 18 19 19 20 21 20 20 21 20 20
8 7 7 7 8 8 8 7 6 6 6 3 6 5 4 7 9 8 7 7 9 9 9 11 13 13 13 14 14 15 15 15 16 17 17 18 20 20 20 21 22 21
8 6 4 2 3 5 6 5 4 4 3 5 8 7 6 9 10 9 10 12 14 15 14 14 14 14 14 14 14 14 14 14 15 15 16 17 19 20 20 21 23 24
6 5 4 3 3 3 1 1 1 2 3 2 3 5 8 12 13 11 8 7 8 10 12 12 13 14 14 15 15 16 16 17 17 19 20 21 22 23 23 24 24 24
9 8 7 4 2 1 3 5 4 2 3 4 2 1 3 7 9 7 5 5 5 6 7 8 10 11 13 14 15 16 18 19 20 22 24 26 27 27 28 28 29 27
10 10 9 8 5 4 5 5 5 4 4 4 2 1 3 4 4 3 3 2 1 3 4 5 6 8 9 10 10 11 12 13 14 16 20 23 25 25 25 26 28 29

ECMWFNIL_925_spd_117.txt.gz
Wind_Speed
18 16 15 15 16 15 14 14 13 12 12 10 9 8 8 9 9 9 9 8 8 8 7 7 7 8 7 7 6 6 6 6 5 5 5 5 4 4 4 4 4 4
19 17 16 15 16 16 15 15 14 13 13 12 11 10 10 10 9 10 10 9 9 8 8 8 8 8 7 7 7 6 7 7 6 5 5 6 6 5 5 5 5 5
20 18 16 15 15 15 14 14 15 14 13 12 12 12 11 10 10 11 10 10 10 9 9 9 8 8 8 8 8 7 7 8 7 6 7 7 7 7 7 6 6 6
22 19 17 16 14 14 13 13 14 14 13 12 12 11 11 11 11 11 11 11 10 10 9 9 9 9 9 9 9 9 8 9 8 8 8 8 8 8 7 7 7 7
23 21 18 17 15 14 13 13 13 12 13 12 11 11 11 11 11 10 10 11 10 10 10 10 10 10 10 10 10 9 8 8 8 8 9 9 8 8 7 7 8 8
24 22 19 18 16 15 13 13 12 12 12 11 10 10 10 10 10 10 10 10 9 9 9 10 10 10 9 10 10 9 9 8 8 8 9 9 9 8 8 8 8 8
23 22 20 18 17 16 14 13 13 12 12 11 10 11 10 10 11 10 10 10 10 9 9 9 10 10 10 10 10 10 10 10 9 9 10 10 9 9 9 8 8 8
22 22 21 19 17 16 15 13 13 13 12 11 11 11 11 11 10 10 10 10 10 9 9 10 11 11 10 9 10 11 11 10 9 9 10 10 10 10 10 9 9 9
22 21 21 20 17 16 15 14 13 12 12 12 11 10 11 11 11 10 10 10 9 9 10 10 10 10 10 10 11 11 11 10 9 9 9 9 10 10 9 9 9 9
23 22 20 19 17 16 16 15 13 12 12 12 11 10 10 11 11 11 10 10 9 10 10 10 10 10 10 11 11 11 11 11 11 10 10 10 10 10 10 9 9 10
24 23 21 21 20 18 17 16 14 13 12 12 11 11 10 10 11 11 11 10 10 10 10 10 10 10 10 11 10 11 11 11 12 12 12 12 12 12 12 11 11 11
22 21 21 22 22 21 18 16 14 13 13 12 12 11 10 10 10 10 11 11 11 11 11 11 11 11 11 11 11 11 12 12 13 13 13 13 12 12 12 12 11 12
20 20 20 21 21 22 20 17 14 13 13 12 12 12 11 11 10 10 11 12 12 12 12 12 13 13 13 13 12 13 14 14 14 14 14 14 14 14 13 12 12 12
21 20 21 22 22 21 20 19 16 14 12 12 12 11 11 11 10 10 10 11 12 12 13 13 13 14 14 13 13 14 15 16 16 16 15 14 15 15 14 15 15 14
25 23 23 24 23 21 20 19 18 16 14 13 13 12 11 11 11 10 10 10 10 11 11 13 13 14 14 14 14 14 14 15 16 16 16 15 16 16 15 16 17 16
26 26 25 24 23 21 20 19 18 17 15 14 14 13 12 11 11 10 9 9 10 10 11 12 11 12 13 14 14 14 15 14 15 16 17 17 17 17 16 16 17 17
19 21 22 23 23 21 20 18 18 17 16 14 13 12 12 12 11 11 10 9 8 8 8 7 7 8 11 11 12 13 14 14 14 14 15 15 16 17 17 16 16 16
11 13 14 17 19 20 19 18 16 14 13 11 9 8 9 9 8 8 8 7 6 5 4 4 6 8 10 10 10 11 11 11 11 11 11 12 13 14 15 15 15 16
13 11 11 12 13 14 14 14 13 12 9 8 9 9 8 7 6 7 7 7 7 7 6 7 9 10 10 11 11 12 11 11 11 12 12 11 11 12 13 14 15 16
14 12 12 10 8 6 7 9 11 10 8 6 7 9 9 10 11 12 12 11 9 8 7 8 9 9 10 11 11 12 12 11 11 12 12 12 12 12 12 13 13 14
13 12 12 9 7 7 5 5 6 5 5 4 4 6 8 10 12 13 12 10 9 8 7 8 9 9 9 10 10 11 12 11 11 12 11 10 11 12 11 12 12 12
13 14 14 10 8 11 9 7 7 7 7 7 8 8 9 9 8 8 8 8 7 8 6 7 9 10 10 11 12 12 12 11 11 11 11 10 11 11 11 11 12 12
13 13 14 11 11 12 10 9 9 8 7 8 9 8 8 7 5 4 4 6 7 8 8 9 12 13 13 12 13 13 13 12 12 12 12 12 12 11 12 12 13 14
13 13 13 13 12 11 11 8 7 6 6 7 6 4 4 5 5 4 3 4 6 7 7 8 9 10 10 11 12 13 13 13 14 14 14 13 14 15 16 16 16 17
15 15 14 13 11 11 10 8 6 6 5 5 4 3 3 4 4 4 4 3 2 3 4 5 5 6 7 9 10 11 11 11 11 12 12 13 14 16 17 16 15 16
17 17 16 15 15 14 11 9 9 8 6 4 3 3 3 4 5 4 3 2 1 0 1 1 2 3 5 5 6 6 7 7 7 7 8 9 11 12 12 12 11 11

ECMWFNIL_925_spd_120.txt.gz
Wind_Speed
13 11 10 10 9 8 7 7 6 6 5 5 5 5 4 4 4 5 5 4 4 4 3 3 4 4 4 4 3 3 3 4 4 4 4 5 6 6 6 6 6 7
14 13 12 11 10 9 8 8 7 6 6 6 6 5 4 5 5 5 5 5 5 5 4 4 5 4 5 4 3 4 4 4 6 6 5 5 6 7 7 7 7 7
15 14 13 13 11 11 10 9 8 8 7 7 6 6 6 6 6 5 6 5 6 5 5 5 5 5 5 5 4 5 5 5 6 6 6 6 7 7 8 8 8 7
16 15 14 14 12 11 10 9 9 9 9 8 7 7 6 6 6 6 6 6 6 6 6 5 5 5 5 5 5 6 6 6 7 7 6 7 7 7 8 8 8 8
16 16 15 14 12 11 10 9 9 10 9 9 8 8 7 7 7 7 7 7 7 7 7 6 6 6 6 6 6 6 7 7 6 5 6 7 7 7 8 8 8 8
16 16 16 14 13 11 11 10 10 10 10 9 9 9 8 8 8 8 7 7 7 7 7 7 6 6 6 6 6 7 7 7 5 4 6 7 7 7 8 7 7 8
16 17 16 16 14 13 13 12 11 11 10 10 9 9 9 9 9 9 8 8 7 7 7 6 6 6 6 6 7 7 7 7 6 5 6 7 7 7 8 8 7 8
16 16 17 16 16 15 14 13 12 11 11 10 10 10 10 9 9 9 8 8 8 7 7 7 6 7 7 8 8 8 8 8 7 6 6 7 7 7 8 8 8 8
16 16 16 16 16 15 15 15 14 13 12 11 11 10 10 10 10 9 8 8 7 7 7 7 7 7 8 8 8 8 8 8 7 7 7 7 7 7 7 8 8 8
16 16 16 16 16 15 15 14 14 13 12 12 11 10 10 10 9 9 8 8 8 7 8 8 8 8 8 8 8 8 8 8 8 8 8 8 8 8 8 8 8 9
17 17 16 16 15 14 14 13 13 13 12 12 11 10 10 9 9 10 9 9 9 8 8 8 8 7 8 8 8 8 8 9 9 8 9 9 8 9 8 9 9 10
17 17 16 16 15 14 13 12 13 12 11 11 11 10 10 9 9 10 9 9 9 9 9 8 8 8 7 8 8 8 8 9 9 9 9 9 9 9 9 9 10 10
18 17 16 16 15 15 14 13 12 12 12 11 11 10 10 10 10 10 9 9 9 9 9 9 8 8 8 8 9 9 9 10 10 10 10 10 10 10 10 10 11 11
18 17 16 15 14 14 14 14 13 12 11 10 10 11 11 11 11 10 10 10 10 10 10 10 10 10 9 9 9 10 10 10 10 11 10 10 11 11 11 11 11 12
15 15 14 13 14 14 13 13 13 13 12 10 10 10 10 10 10 11 10 10 10 10 10 11 11 9 9 9 9 9 9 10 11 12 11 11 13 13 12 11 11 12
12 11 11 11 11 11 12 12 12 12 12 10 10 10 10 9 10 10 10 10 10 9 10 11 9 6 7 9 10 9 9 9 11 12 12 12 14 15 14 13 12 13
10 10 9 9 9 9 9 9 9 10 9 9 9 10 9 9 10 10 10 10 9 9 10 9 6 4 6 8 9 8 8 7 8 10 11 11 12 13 13 13 14 14
12 12 11 10 9 10 9 7 6 7 7 7 9 10 9 9 9 9 9 9 8 9 9 5 4 6 8 8 8 8 8 8 8 9 10 11 11 12 12 13 13 14
15 16 14 12 11 11 10 9 7 7 8 8 8 8 7 7 7 7 8 8 7 8 6 3 4 8 8 8 9 9 9 9 9 9 10 12 12 11 11 12 12 12
15 15 14 13 13 11 10 9 10 10 10 9 8 8 6 6 7 8 7 6 5 4 3 3 5 8 6 7 8 8 9 10 8 8 10 11 11 11 12 11 11 11
12 12 12 12 13 13 12 11 12 14 12 10 10 10 8 6 6 7 6 5 4 4 3 2 5 6 5 6 7 8 9 8 7 8 9 10 10 10 10 10 10 10
11 10 9 9 10 12 13 10 10 12 12 9 9 9 7 6 6 6 6 5 4 4 3 3 6 7 6 8 9 10 10 9 8 9 10 10 11 11 12 12 11 10
15 13 11 10 9 10 11 10 8 9 9 8 7 6 6 6 5 5 4 3 2 2 2 3 5 6 7 8 10 11 11 9 8 10 11 11 12 12 12 13 12 12
16 16 14 12 10 10 12 13 10 8 9 9 7 6 5 4 4 4 3 3 3 3 3 1 2 4 6 7 8 9 8 7 7 10 11 11 11 11 12 13 13 13
17 19 16 14 13 13 12 12 11 8 8 9 9 7 6 4 3 4 4 4 4 4 3 1 2 4 4 4 6 6 5 4 4 5 6 7 8 9 9 10 10 10
19 21 20 17 15 14 12 11 10 9 9 9 9 9 8 5 4 5 5 5 5 4 2 2 3 4 6 7 8 8 8 8 7 6 6 7 7 7 7 7 6 7